<?xml version="1.0" encoding="UTF-8" standalone="no" ?>
<gpx xmlns="http://www.topografix.com/GPX/1/1" xmlns:xsi="http://www.w3.org/2001/XMLSchema-instance" xsi:schemaLocation="http://www.topografix.com/GPX/1/1 http://www.topografix.com/GPX/1/1/gpx.xsd" version="1.1" creator="VisuGPX - https://www.visugpx.com">
  <metadata>
    <name>luere-malaval-croix de part</name>
    <desc><![CDATA[col de la luère
col de malval
col de la croix de part
col des brosses]]></desc>
  </metadata>
  <trk>
    <name><![CDATA[2010-04-14T12:41:10Z]]></name>
    <trkseg>
      <trkpt lat="45.67636" lon="4.69438">
        <ele>361.648</ele>
        <time>2010-04-14T12:41:11Z</time>
      </trkpt>
      <trkpt lat="45.67665" lon="4.6941">
        <ele>363.063</ele>
        <time>2010-04-14T12:41:20Z</time>
      </trkpt>
      <trkpt lat="45.67708" lon="4.69369">
        <ele>363.813</ele>
        <time>2010-04-14T12:41:33Z</time>
      </trkpt>
      <trkpt lat="45.67731" lon="4.69337">
        <ele>364.495</ele>
        <time>2010-04-14T12:41:41Z</time>
      </trkpt>
      <trkpt lat="45.67734" lon="4.69333">
        <ele>364.767</ele>
        <time>2010-04-14T12:41:42Z</time>
      </trkpt>
      <trkpt lat="45.67742" lon="4.69322">
        <ele>364.891</ele>
        <time>2010-04-14T12:41:45Z</time>
      </trkpt>
      <trkpt lat="45.67742" lon="4.69322">
        <ele>364.422</ele>
        <time>2010-04-14T12:41:49Z</time>
      </trkpt>
      <trkpt lat="45.67765" lon="4.69298">
        <ele>364.61</ele>
        <time>2010-04-14T12:41:53Z</time>
      </trkpt>
      <trkpt lat="45.67778" lon="4.69239">
        <ele>362.758</ele>
        <time>2010-04-14T12:42:01Z</time>
      </trkpt>
      <trkpt lat="45.67791" lon="4.69174">
        <ele>361.409</ele>
        <time>2010-04-14T12:42:08Z</time>
      </trkpt>
      <trkpt lat="45.67807" lon="4.69094">
        <ele>360.67</ele>
        <time>2010-04-14T12:42:16Z</time>
      </trkpt>
      <trkpt lat="45.67822" lon="4.69006">
        <ele>360.909</ele>
        <time>2010-04-14T12:42:25Z</time>
      </trkpt>
      <trkpt lat="45.67828" lon="4.68966">
        <ele>359.081</ele>
        <time>2010-04-14T12:42:33Z</time>
      </trkpt>
      <trkpt lat="45.67821" lon="4.68822">
        <ele>356.933</ele>
        <time>2010-04-14T12:42:43Z</time>
      </trkpt>
      <trkpt lat="45.67813" lon="4.68756">
        <ele>355.566</ele>
        <time>2010-04-14T12:42:49Z</time>
      </trkpt>
      <trkpt lat="45.67802" lon="4.68678">
        <ele>353.822</ele>
        <time>2010-04-14T12:42:56Z</time>
      </trkpt>
      <trkpt lat="45.67796" lon="4.68609">
        <ele>352.021</ele>
        <time>2010-04-14T12:43:02Z</time>
      </trkpt>
      <trkpt lat="45.67799" lon="4.68479">
        <ele>350.248</ele>
        <time>2010-04-14T12:43:13Z</time>
      </trkpt>
      <trkpt lat="45.67803" lon="4.68412">
        <ele>350.856</ele>
        <time>2010-04-14T12:43:19Z</time>
      </trkpt>
      <trkpt lat="45.67809" lon="4.68321">
        <ele>351.443</ele>
        <time>2010-04-14T12:43:28Z</time>
      </trkpt>
      <trkpt lat="45.67812" lon="4.68276">
        <ele>352.812</ele>
        <time>2010-04-14T12:43:33Z</time>
      </trkpt>
      <trkpt lat="45.67815" lon="4.68225">
        <ele>354.066</ele>
        <time>2010-04-14T12:43:40Z</time>
      </trkpt>
      <trkpt lat="45.67819" lon="4.68164">
        <ele>355.402</ele>
        <time>2010-04-14T12:43:50Z</time>
      </trkpt>
      <trkpt lat="45.67821" lon="4.68132">
        <ele>356.376</ele>
        <time>2010-04-14T12:43:56Z</time>
      </trkpt>
      <trkpt lat="45.67824" lon="4.68074">
        <ele>358.202</ele>
        <time>2010-04-14T12:44:07Z</time>
      </trkpt>
      <trkpt lat="45.67821" lon="4.68024">
        <ele>359.187</ele>
        <time>2010-04-14T12:44:16Z</time>
      </trkpt>
      <trkpt lat="45.67815" lon="4.67965">
        <ele>359.738</ele>
        <time>2010-04-14T12:44:26Z</time>
      </trkpt>
      <trkpt lat="45.67808" lon="4.67918">
        <ele>358.831</ele>
        <time>2010-04-14T12:44:33Z</time>
      </trkpt>
      <trkpt lat="45.67797" lon="4.6787">
        <ele>357.39</ele>
        <time>2010-04-14T12:44:39Z</time>
      </trkpt>
      <trkpt lat="45.67782" lon="4.67809">
        <ele>354.628</ele>
        <time>2010-04-14T12:44:45Z</time>
      </trkpt>
      <trkpt lat="45.67771" lon="4.67747">
        <ele>351.842</ele>
        <time>2010-04-14T12:44:50Z</time>
      </trkpt>
      <trkpt lat="45.67768" lon="4.67688">
        <ele>349.722</ele>
        <time>2010-04-14T12:44:54Z</time>
      </trkpt>
      <trkpt lat="45.67781" lon="4.67582">
        <ele>346.656</ele>
        <time>2010-04-14T12:45:01Z</time>
      </trkpt>
      <trkpt lat="45.67782" lon="4.67495">
        <ele>345.05</ele>
        <time>2010-04-14T12:45:07Z</time>
      </trkpt>
      <trkpt lat="45.67784" lon="4.67375">
        <ele>343.961</ele>
        <time>2010-04-14T12:45:16Z</time>
      </trkpt>
      <trkpt lat="45.67783" lon="4.67288">
        <ele>342.745</ele>
        <time>2010-04-14T12:45:23Z</time>
      </trkpt>
      <trkpt lat="45.67778" lon="4.67201">
        <ele>341.317</ele>
        <time>2010-04-14T12:45:30Z</time>
      </trkpt>
      <trkpt lat="45.67787" lon="4.67125">
        <ele>339.277</ele>
        <time>2010-04-14T12:45:36Z</time>
      </trkpt>
      <trkpt lat="45.67801" lon="4.66962">
        <ele>336.694</ele>
        <time>2010-04-14T12:45:49Z</time>
      </trkpt>
      <trkpt lat="45.67806" lon="4.669">
        <ele>335.249</ele>
        <time>2010-04-14T12:45:54Z</time>
      </trkpt>
      <trkpt lat="45.67794" lon="4.66796">
        <ele>331.821</ele>
        <time>2010-04-14T12:46:02Z</time>
      </trkpt>
      <trkpt lat="45.67797" lon="4.66718">
        <ele>329.673</ele>
        <time>2010-04-14T12:46:07Z</time>
      </trkpt>
      <trkpt lat="45.67802" lon="4.66708">
        <ele>329.553</ele>
        <time>2010-04-14T12:46:08Z</time>
      </trkpt>
      <trkpt lat="45.67828" lon="4.66656">
        <ele>329.551</ele>
        <time>2010-04-14T12:46:13Z</time>
      </trkpt>
      <trkpt lat="45.67862" lon="4.66584">
        <ele>327.796</ele>
        <time>2010-04-14T12:46:21Z</time>
      </trkpt>
      <trkpt lat="45.67874" lon="4.66541">
        <ele>326.557</ele>
        <time>2010-04-14T12:46:24Z</time>
      </trkpt>
      <trkpt lat="45.67887" lon="4.66457">
        <ele>324.139</ele>
        <time>2010-04-14T12:46:31Z</time>
      </trkpt>
      <trkpt lat="45.67892" lon="4.66417">
        <ele>321.586</ele>
        <time>2010-04-14T12:46:36Z</time>
      </trkpt>
      <trkpt lat="45.67896" lon="4.66307">
        <ele>318.224</ele>
        <time>2010-04-14T12:46:42Z</time>
      </trkpt>
      <trkpt lat="45.67892" lon="4.66215">
        <ele>313.448</ele>
        <time>2010-04-14T12:46:48Z</time>
      </trkpt>
      <trkpt lat="45.67888" lon="4.66151">
        <ele>312.055</ele>
        <time>2010-04-14T12:46:54Z</time>
      </trkpt>
      <trkpt lat="45.67877" lon="4.6606">
        <ele>312.63</ele>
        <time>2010-04-14T12:46:59Z</time>
      </trkpt>
      <trkpt lat="45.67873" lon="4.66026">
        <ele>312.702</ele>
        <time>2010-04-14T12:47:02Z</time>
      </trkpt>
      <trkpt lat="45.67878" lon="4.65984">
        <ele>312.508</ele>
        <time>2010-04-14T12:47:06Z</time>
      </trkpt>
      <trkpt lat="45.67891" lon="4.65951">
        <ele>313.737</ele>
        <time>2010-04-14T12:47:10Z</time>
      </trkpt>
      <trkpt lat="45.67901" lon="4.65936">
        <ele>315.373</ele>
        <time>2010-04-14T12:47:13Z</time>
      </trkpt>
      <trkpt lat="45.67913" lon="4.65932">
        <ele>315.038</ele>
        <time>2010-04-14T12:47:16Z</time>
      </trkpt>
      <trkpt lat="45.67927" lon="4.65951">
        <ele>315.615</ele>
        <time>2010-04-14T12:47:19Z</time>
      </trkpt>
      <trkpt lat="45.67944" lon="4.65976">
        <ele>317.233</ele>
        <time>2010-04-14T12:47:26Z</time>
      </trkpt>
      <trkpt lat="45.67944" lon="4.66027">
        <ele>317.801</ele>
        <time>2010-04-14T12:47:33Z</time>
      </trkpt>
      <trkpt lat="45.67966" lon="4.6607">
        <ele>319.527</ele>
        <time>2010-04-14T12:47:43Z</time>
      </trkpt>
      <trkpt lat="45.68001" lon="4.66129">
        <ele>321.008</ele>
        <time>2010-04-14T12:47:57Z</time>
      </trkpt>
      <trkpt lat="45.68021" lon="4.66164">
        <ele>322.14</ele>
        <time>2010-04-14T12:48:06Z</time>
      </trkpt>
      <trkpt lat="45.68055" lon="4.66217">
        <ele>323.295</ele>
        <time>2010-04-14T12:48:17Z</time>
      </trkpt>
      <trkpt lat="45.68086" lon="4.66252">
        <ele>322.344</ele>
        <time>2010-04-14T12:48:25Z</time>
      </trkpt>
      <trkpt lat="45.6813" lon="4.66301">
        <ele>321.561</ele>
        <time>2010-04-14T12:48:35Z</time>
      </trkpt>
      <trkpt lat="45.68173" lon="4.66358">
        <ele>321.429</ele>
        <time>2010-04-14T12:48:45Z</time>
      </trkpt>
      <trkpt lat="45.68214" lon="4.66424">
        <ele>321.916</ele>
        <time>2010-04-14T12:48:56Z</time>
      </trkpt>
      <trkpt lat="45.68259" lon="4.66508">
        <ele>321.537</ele>
        <time>2010-04-14T12:49:09Z</time>
      </trkpt>
      <trkpt lat="45.68294" lon="4.66574">
        <ele>321.606</ele>
        <time>2010-04-14T12:49:19Z</time>
      </trkpt>
      <trkpt lat="45.68317" lon="4.66619">
        <ele>322.603</ele>
        <time>2010-04-14T12:49:29Z</time>
      </trkpt>
      <trkpt lat="45.68362" lon="4.66699">
        <ele>323.245</ele>
        <time>2010-04-14T12:49:39Z</time>
      </trkpt>
      <trkpt lat="45.68386" lon="4.6673">
        <ele>323.434</ele>
        <time>2010-04-14T12:49:50Z</time>
      </trkpt>
      <trkpt lat="45.68447" lon="4.66815">
        <ele>323.627</ele>
        <time>2010-04-14T12:50:02Z</time>
      </trkpt>
      <trkpt lat="45.68487" lon="4.66867">
        <ele>323.462</ele>
        <time>2010-04-14T12:50:12Z</time>
      </trkpt>
      <trkpt lat="45.68514" lon="4.66906">
        <ele>323.285</ele>
        <time>2010-04-14T12:50:21Z</time>
      </trkpt>
      <trkpt lat="45.68559" lon="4.66987">
        <ele>323.775</ele>
        <time>2010-04-14T12:50:32Z</time>
      </trkpt>
      <trkpt lat="45.68603" lon="4.67067">
        <ele>323.838</ele>
        <time>2010-04-14T12:50:45Z</time>
      </trkpt>
      <trkpt lat="45.68634" lon="4.67118">
        <ele>323.543</ele>
        <time>2010-04-14T12:50:54Z</time>
      </trkpt>
      <trkpt lat="45.68673" lon="4.67166">
        <ele>322.502</ele>
        <time>2010-04-14T12:51:03Z</time>
      </trkpt>
      <trkpt lat="45.68711" lon="4.67213">
        <ele>322.109</ele>
        <time>2010-04-14T12:51:12Z</time>
      </trkpt>
      <trkpt lat="45.68743" lon="4.67265">
        <ele>321.723</ele>
        <time>2010-04-14T12:51:20Z</time>
      </trkpt>
      <trkpt lat="45.68785" lon="4.6734">
        <ele>320.46</ele>
        <time>2010-04-14T12:51:31Z</time>
      </trkpt>
      <trkpt lat="45.68809" lon="4.67387">
        <ele>319.792</ele>
        <time>2010-04-14T12:51:38Z</time>
      </trkpt>
      <trkpt lat="45.68815" lon="4.674">
        <ele>321.05</ele>
        <time>2010-04-14T12:51:43Z</time>
      </trkpt>
      <trkpt lat="45.68844" lon="4.67424">
        <ele>321.129</ele>
        <time>2010-04-14T12:51:46Z</time>
      </trkpt>
      <trkpt lat="45.68851" lon="4.67412">
        <ele>321.052</ele>
        <time>2010-04-14T12:51:49Z</time>
      </trkpt>
      <trkpt lat="45.68857" lon="4.67412">
        <ele>320.813</ele>
        <time>2010-04-14T12:51:50Z</time>
      </trkpt>
      <trkpt lat="45.68871" lon="4.67412">
        <ele>321.152</ele>
        <time>2010-04-14T12:51:53Z</time>
      </trkpt>
      <trkpt lat="45.68891" lon="4.67411">
        <ele>321.511</ele>
        <time>2010-04-14T12:51:57Z</time>
      </trkpt>
      <trkpt lat="45.68941" lon="4.67408">
        <ele>322.173</ele>
        <time>2010-04-14T12:52:07Z</time>
      </trkpt>
      <trkpt lat="45.68984" lon="4.67408">
        <ele>323.714</ele>
        <time>2010-04-14T12:52:16Z</time>
      </trkpt>
      <trkpt lat="45.6902" lon="4.67408">
        <ele>324.849</ele>
        <time>2010-04-14T12:52:24Z</time>
      </trkpt>
      <trkpt lat="45.69058" lon="4.67408">
        <ele>325.629</ele>
        <time>2010-04-14T12:52:33Z</time>
      </trkpt>
      <trkpt lat="45.69098" lon="4.67408">
        <ele>325.754</ele>
        <time>2010-04-14T12:52:42Z</time>
      </trkpt>
      <trkpt lat="45.69149" lon="4.67408">
        <ele>326.466</ele>
        <time>2010-04-14T12:52:53Z</time>
      </trkpt>
      <trkpt lat="45.69186" lon="4.67417">
        <ele>327.38</ele>
        <time>2010-04-14T12:53:01Z</time>
      </trkpt>
      <trkpt lat="45.69223" lon="4.6744">
        <ele>328.327</ele>
        <time>2010-04-14T12:53:10Z</time>
      </trkpt>
      <trkpt lat="45.69255" lon="4.6746">
        <ele>330.179</ele>
        <time>2010-04-14T12:53:19Z</time>
      </trkpt>
      <trkpt lat="45.69281" lon="4.67477">
        <ele>331.295</ele>
        <time>2010-04-14T12:53:27Z</time>
      </trkpt>
      <trkpt lat="45.69304" lon="4.67491">
        <ele>331.824</ele>
        <time>2010-04-14T12:53:34Z</time>
      </trkpt>
      <trkpt lat="45.69308" lon="4.67494">
        <ele>333.45</ele>
        <time>2010-04-14T12:53:42Z</time>
      </trkpt>
      <trkpt lat="45.69363" lon="4.67489">
        <ele>335.751</ele>
        <time>2010-04-14T12:53:52Z</time>
      </trkpt>
      <trkpt lat="45.69388" lon="4.67485">
        <ele>338.112</ele>
        <time>2010-04-14T12:54:01Z</time>
      </trkpt>
      <trkpt lat="45.69406" lon="4.67481">
        <ele>339.805</ele>
        <time>2010-04-14T12:54:08Z</time>
      </trkpt>
      <trkpt lat="45.69407" lon="4.67481">
        <ele>341.773</ele>
        <time>2010-04-14T12:54:16Z</time>
      </trkpt>
      <trkpt lat="45.69446" lon="4.67475">
        <ele>343.666</ele>
        <time>2010-04-14T12:54:25Z</time>
      </trkpt>
      <trkpt lat="45.6947" lon="4.67465">
        <ele>346.121</ele>
        <time>2010-04-14T12:54:35Z</time>
      </trkpt>
      <trkpt lat="45.69493" lon="4.67455">
        <ele>348.045</ele>
        <time>2010-04-14T12:54:45Z</time>
      </trkpt>
      <trkpt lat="45.69502" lon="4.67451">
        <ele>350.726</ele>
        <time>2010-04-14T12:54:56Z</time>
      </trkpt>
      <trkpt lat="45.69541" lon="4.67432">
        <ele>352.664</ele>
        <time>2010-04-14T12:55:07Z</time>
      </trkpt>
      <trkpt lat="45.69558" lon="4.67427">
        <ele>354.061</ele>
        <time>2010-04-14T12:55:14Z</time>
      </trkpt>
      <trkpt lat="45.69576" lon="4.67423">
        <ele>355.574</ele>
        <time>2010-04-14T12:55:21Z</time>
      </trkpt>
      <trkpt lat="45.696" lon="4.67424">
        <ele>356.27</ele>
        <time>2010-04-14T12:55:30Z</time>
      </trkpt>
      <trkpt lat="45.69625" lon="4.67428">
        <ele>357.627</ele>
        <time>2010-04-14T12:55:39Z</time>
      </trkpt>
      <trkpt lat="45.69644" lon="4.67427">
        <ele>358.248</ele>
        <time>2010-04-14T12:55:46Z</time>
      </trkpt>
      <trkpt lat="45.69667" lon="4.67418">
        <ele>358.754</ele>
        <time>2010-04-14T12:55:54Z</time>
      </trkpt>
      <trkpt lat="45.6969" lon="4.67408">
        <ele>359.778</ele>
        <time>2010-04-14T12:56:03Z</time>
      </trkpt>
      <trkpt lat="45.69715" lon="4.67416">
        <ele>359.917</ele>
        <time>2010-04-14T12:56:10Z</time>
      </trkpt>
      <trkpt lat="45.69725" lon="4.6742">
        <ele>359.773</ele>
        <time>2010-04-14T12:56:13Z</time>
      </trkpt>
      <trkpt lat="45.69745" lon="4.67443">
        <ele>359.081</ele>
        <time>2010-04-14T12:56:19Z</time>
      </trkpt>
      <trkpt lat="45.69761" lon="4.67455">
        <ele>358.848</ele>
        <time>2010-04-14T12:56:23Z</time>
      </trkpt>
      <trkpt lat="45.69786" lon="4.67455">
        <ele>358.758</ele>
        <time>2010-04-14T12:56:28Z</time>
      </trkpt>
      <trkpt lat="45.69789" lon="4.67455">
        <ele>359.332</ele>
        <time>2010-04-14T12:56:34Z</time>
      </trkpt>
      <trkpt lat="45.69821" lon="4.67455">
        <ele>359.642</ele>
        <time>2010-04-14T12:56:36Z</time>
      </trkpt>
      <trkpt lat="45.69852" lon="4.67453">
        <ele>358.452</ele>
        <time>2010-04-14T12:56:43Z</time>
      </trkpt>
      <trkpt lat="45.69874" lon="4.67451">
        <ele>358.301</ele>
        <time>2010-04-14T12:56:48Z</time>
      </trkpt>
      <trkpt lat="45.69879" lon="4.67451">
        <ele>358.373</ele>
        <time>2010-04-14T12:56:54Z</time>
      </trkpt>
      <trkpt lat="45.69939" lon="4.6742">
        <ele>358.448</ele>
        <time>2010-04-14T12:57:05Z</time>
      </trkpt>
      <trkpt lat="45.69966" lon="4.67409">
        <ele>358.137</ele>
        <time>2010-04-14T12:57:11Z</time>
      </trkpt>
      <trkpt lat="45.70019" lon="4.67405">
        <ele>358.831</ele>
        <time>2010-04-14T12:57:22Z</time>
      </trkpt>
      <trkpt lat="45.70064" lon="4.67398">
        <ele>358.588</ele>
        <time>2010-04-14T12:57:31Z</time>
      </trkpt>
      <trkpt lat="45.70122" lon="4.67382">
        <ele>359.005</ele>
        <time>2010-04-14T12:57:43Z</time>
      </trkpt>
      <trkpt lat="45.70171" lon="4.67368">
        <ele>359.909</ele>
        <time>2010-04-14T12:57:53Z</time>
      </trkpt>
      <trkpt lat="45.70197" lon="4.67361">
        <ele>360.881</ele>
        <time>2010-04-14T12:58:03Z</time>
      </trkpt>
      <trkpt lat="45.70263" lon="4.67352">
        <ele>360.261</ele>
        <time>2010-04-14T12:58:13Z</time>
      </trkpt>
      <trkpt lat="45.70291" lon="4.67348">
        <ele>358.382</ele>
        <time>2010-04-14T12:58:20Z</time>
      </trkpt>
      <trkpt lat="45.70345" lon="4.67331">
        <ele>355.206</ele>
        <time>2010-04-14T12:58:27Z</time>
      </trkpt>
      <trkpt lat="45.70368" lon="4.67314">
        <ele>352.972</ele>
        <time>2010-04-14T12:58:31Z</time>
      </trkpt>
      <trkpt lat="45.70375" lon="4.67294">
        <ele>352.518</ele>
        <time>2010-04-14T12:58:33Z</time>
      </trkpt>
      <trkpt lat="45.70383" lon="4.67273">
        <ele>350.967</ele>
        <time>2010-04-14T12:58:35Z</time>
      </trkpt>
      <trkpt lat="45.70398" lon="4.67229">
        <ele>348.893</ele>
        <time>2010-04-14T12:58:39Z</time>
      </trkpt>
      <trkpt lat="45.70415" lon="4.67215">
        <ele>348.764</ele>
        <time>2010-04-14T12:58:41Z</time>
      </trkpt>
      <trkpt lat="45.70437" lon="4.67211">
        <ele>348.57</ele>
        <time>2010-04-14T12:58:45Z</time>
      </trkpt>
      <trkpt lat="45.70485" lon="4.67211">
        <ele>350.148</ele>
        <time>2010-04-14T12:58:51Z</time>
      </trkpt>
      <trkpt lat="45.70505" lon="4.67211">
        <ele>351.587</ele>
        <time>2010-04-14T12:58:55Z</time>
      </trkpt>
      <trkpt lat="45.70515" lon="4.67211">
        <ele>352.404</ele>
        <time>2010-04-14T12:58:58Z</time>
      </trkpt>
      <trkpt lat="45.70521" lon="4.67211">
        <ele>353.19</ele>
        <time>2010-04-14T12:59:00Z</time>
      </trkpt>
      <trkpt lat="45.70527" lon="4.67211">
        <ele>353.892</ele>
        <time>2010-04-14T12:59:02Z</time>
      </trkpt>
      <trkpt lat="45.70536" lon="4.67211">
        <ele>355.883</ele>
        <time>2010-04-14T12:59:09Z</time>
      </trkpt>
      <trkpt lat="45.70536" lon="4.67211">
        <ele>357.461</ele>
        <time>2010-04-14T12:59:15Z</time>
      </trkpt>
      <trkpt lat="45.70578" lon="4.67211">
        <ele>359.904</ele>
        <time>2010-04-14T12:59:23Z</time>
      </trkpt>
      <trkpt lat="45.70596" lon="4.67208">
        <ele>362.135</ele>
        <time>2010-04-14T12:59:31Z</time>
      </trkpt>
      <trkpt lat="45.70617" lon="4.67204">
        <ele>364.047</ele>
        <time>2010-04-14T12:59:40Z</time>
      </trkpt>
      <trkpt lat="45.70634" lon="4.67202">
        <ele>365.637</ele>
        <time>2010-04-14T12:59:47Z</time>
      </trkpt>
      <trkpt lat="45.70656" lon="4.67198">
        <ele>367.158</ele>
        <time>2010-04-14T12:59:57Z</time>
      </trkpt>
      <trkpt lat="45.70692" lon="4.67195">
        <ele>369.667</ele>
        <time>2010-04-14T13:00:09Z</time>
      </trkpt>
      <trkpt lat="45.70714" lon="4.67192">
        <ele>371.508</ele>
        <time>2010-04-14T13:00:18Z</time>
      </trkpt>
      <trkpt lat="45.7074" lon="4.6719">
        <ele>372.926</ele>
        <time>2010-04-14T13:00:29Z</time>
      </trkpt>
      <trkpt lat="45.70746" lon="4.67189">
        <ele>373.837</ele>
        <time>2010-04-14T13:00:40Z</time>
      </trkpt>
      <trkpt lat="45.70799" lon="4.67188">
        <ele>373.76</ele>
        <time>2010-04-14T13:00:48Z</time>
      </trkpt>
      <trkpt lat="45.70832" lon="4.67187">
        <ele>371.925</ele>
        <time>2010-04-14T13:00:55Z</time>
      </trkpt>
      <trkpt lat="45.7087" lon="4.67186">
        <ele>368.16</ele>
        <time>2010-04-14T13:01:01Z</time>
      </trkpt>
      <trkpt lat="45.70884" lon="4.67185">
        <ele>367.215</ele>
        <time>2010-04-14T13:01:03Z</time>
      </trkpt>
      <trkpt lat="45.70936" lon="4.67164">
        <ele>365.108</ele>
        <time>2010-04-14T13:01:10Z</time>
      </trkpt>
      <trkpt lat="45.70976" lon="4.67147">
        <ele>361.721</ele>
        <time>2010-04-14T13:01:15Z</time>
      </trkpt>
      <trkpt lat="45.70985" lon="4.67143">
        <ele>361.443</ele>
        <time>2010-04-14T13:01:16Z</time>
      </trkpt>
      <trkpt lat="45.71026" lon="4.67144">
        <ele>359.824</ele>
        <time>2010-04-14T13:01:21Z</time>
      </trkpt>
      <trkpt lat="45.71067" lon="4.67146">
        <ele>361.044</ele>
        <time>2010-04-14T13:01:27Z</time>
      </trkpt>
      <trkpt lat="45.71102" lon="4.67141">
        <ele>362.761</ele>
        <time>2010-04-14T13:01:34Z</time>
      </trkpt>
      <trkpt lat="45.71131" lon="4.67136">
        <ele>364.506</ele>
        <time>2010-04-14T13:01:42Z</time>
      </trkpt>
      <trkpt lat="45.71165" lon="4.67131">
        <ele>365.846</ele>
        <time>2010-04-14T13:01:52Z</time>
      </trkpt>
      <trkpt lat="45.71205" lon="4.67124">
        <ele>365.974</ele>
        <time>2010-04-14T13:02:03Z</time>
      </trkpt>
      <trkpt lat="45.71239" lon="4.67119">
        <ele>366.191</ele>
        <time>2010-04-14T13:02:11Z</time>
      </trkpt>
      <trkpt lat="45.71282" lon="4.67114">
        <ele>365.655</ele>
        <time>2010-04-14T13:02:20Z</time>
      </trkpt>
      <trkpt lat="45.71321" lon="4.67111">
        <ele>366.106</ele>
        <time>2010-04-14T13:02:28Z</time>
      </trkpt>
      <trkpt lat="45.71365" lon="4.67108">
        <ele>366.086</ele>
        <time>2010-04-14T13:02:37Z</time>
      </trkpt>
      <trkpt lat="45.71414" lon="4.67104">
        <ele>367.26</ele>
        <time>2010-04-14T13:02:48Z</time>
      </trkpt>
      <trkpt lat="45.71449" lon="4.67089">
        <ele>368.667</ele>
        <time>2010-04-14T13:02:57Z</time>
      </trkpt>
      <trkpt lat="45.71478" lon="4.67077">
        <ele>370.085</ele>
        <time>2010-04-14T13:03:05Z</time>
      </trkpt>
      <trkpt lat="45.71497" lon="4.67069">
        <ele>371.855</ele>
        <time>2010-04-14T13:03:12Z</time>
      </trkpt>
      <trkpt lat="45.71497" lon="4.67069">
        <ele>372.009</ele>
        <time>2010-04-14T13:03:18Z</time>
      </trkpt>
      <trkpt lat="45.71538" lon="4.67055">
        <ele>370.383</ele>
        <time>2010-04-14T13:03:22Z</time>
      </trkpt>
      <trkpt lat="45.71569" lon="4.67046">
        <ele>368.781</ele>
        <time>2010-04-14T13:03:27Z</time>
      </trkpt>
      <trkpt lat="45.71587" lon="4.67043">
        <ele>368.58</ele>
        <time>2010-04-14T13:03:30Z</time>
      </trkpt>
      <trkpt lat="45.71635" lon="4.67063">
        <ele>368.794</ele>
        <time>2010-04-14T13:03:38Z</time>
      </trkpt>
      <trkpt lat="45.71666" lon="4.67081">
        <ele>369.339</ele>
        <time>2010-04-14T13:03:45Z</time>
      </trkpt>
      <trkpt lat="45.71701" lon="4.67102">
        <ele>366.311</ele>
        <time>2010-04-14T13:03:52Z</time>
      </trkpt>
      <trkpt lat="45.71713" lon="4.67109">
        <ele>365.294</ele>
        <time>2010-04-14T13:03:54Z</time>
      </trkpt>
      <trkpt lat="45.71741" lon="4.67125">
        <ele>361.877</ele>
        <time>2010-04-14T13:03:59Z</time>
      </trkpt>
      <trkpt lat="45.71776" lon="4.67137">
        <ele>358.02</ele>
        <time>2010-04-14T13:04:04Z</time>
      </trkpt>
      <trkpt lat="45.71785" lon="4.67137">
        <ele>357.452</ele>
        <time>2010-04-14T13:04:05Z</time>
      </trkpt>
      <trkpt lat="45.71873" lon="4.67124">
        <ele>352.874</ele>
        <time>2010-04-14T13:04:15Z</time>
      </trkpt>
      <trkpt lat="45.71925" lon="4.67123">
        <ele>350.936</ele>
        <time>2010-04-14T13:04:21Z</time>
      </trkpt>
      <trkpt lat="45.71958" lon="4.67126">
        <ele>349.019</ele>
        <time>2010-04-14T13:04:25Z</time>
      </trkpt>
      <trkpt lat="45.72027" lon="4.67132">
        <ele>347.237</ele>
        <time>2010-04-14T13:04:34Z</time>
      </trkpt>
      <trkpt lat="45.72055" lon="4.67132">
        <ele>345.385</ele>
        <time>2010-04-14T13:04:38Z</time>
      </trkpt>
      <trkpt lat="45.721" lon="4.67128">
        <ele>342.84</ele>
        <time>2010-04-14T13:04:44Z</time>
      </trkpt>
      <trkpt lat="45.72143" lon="4.67131">
        <ele>338.254</ele>
        <time>2010-04-14T13:04:50Z</time>
      </trkpt>
      <trkpt lat="45.72156" lon="4.67141">
        <ele>337.174</ele>
        <time>2010-04-14T13:04:52Z</time>
      </trkpt>
      <trkpt lat="45.72178" lon="4.67164">
        <ele>333.862</ele>
        <time>2010-04-14T13:04:56Z</time>
      </trkpt>
      <trkpt lat="45.72195" lon="4.67183">
        <ele>330.906</ele>
        <time>2010-04-14T13:04:59Z</time>
      </trkpt>
      <trkpt lat="45.72203" lon="4.67187">
        <ele>329.827</ele>
        <time>2010-04-14T13:05:00Z</time>
      </trkpt>
      <trkpt lat="45.72249" lon="4.67202">
        <ele>323.234</ele>
        <time>2010-04-14T13:05:06Z</time>
      </trkpt>
      <trkpt lat="45.72308" lon="4.6722">
        <ele>316.51</ele>
        <time>2010-04-14T13:05:13Z</time>
      </trkpt>
      <trkpt lat="45.72349" lon="4.67229">
        <ele>314.064</ele>
        <time>2010-04-14T13:05:18Z</time>
      </trkpt>
      <trkpt lat="45.72374" lon="4.67234">
        <ele>312.023</ele>
        <time>2010-04-14T13:05:22Z</time>
      </trkpt>
      <trkpt lat="45.72385" lon="4.67237">
        <ele>311.87</ele>
        <time>2010-04-14T13:05:26Z</time>
      </trkpt>
      <trkpt lat="45.72385" lon="4.67237">
        <ele>311.469</ele>
        <time>2010-04-14T13:05:28Z</time>
      </trkpt>
      <trkpt lat="45.72418" lon="4.67211">
        <ele>309.204</ele>
        <time>2010-04-14T13:05:34Z</time>
      </trkpt>
      <trkpt lat="45.72442" lon="4.67191">
        <ele>308.326</ele>
        <time>2010-04-14T13:05:38Z</time>
      </trkpt>
      <trkpt lat="45.72476" lon="4.67175">
        <ele>307.788</ele>
        <time>2010-04-14T13:05:43Z</time>
      </trkpt>
      <trkpt lat="45.7249" lon="4.67171">
        <ele>308.176</ele>
        <time>2010-04-14T13:05:45Z</time>
      </trkpt>
      <trkpt lat="45.72533" lon="4.67178">
        <ele>308.44</ele>
        <time>2010-04-14T13:05:52Z</time>
      </trkpt>
      <trkpt lat="45.72564" lon="4.67193">
        <ele>309.591</ele>
        <time>2010-04-14T13:05:58Z</time>
      </trkpt>
      <trkpt lat="45.72584" lon="4.67208">
        <ele>310.649</ele>
        <time>2010-04-14T13:06:03Z</time>
      </trkpt>
      <trkpt lat="45.72613" lon="4.67229">
        <ele>311.25</ele>
        <time>2010-04-14T13:06:11Z</time>
      </trkpt>
      <trkpt lat="45.72633" lon="4.67243">
        <ele>312.579</ele>
        <time>2010-04-14T13:06:17Z</time>
      </trkpt>
      <trkpt lat="45.7265" lon="4.67256">
        <ele>314.183</ele>
        <time>2010-04-14T13:06:23Z</time>
      </trkpt>
      <trkpt lat="45.7267" lon="4.67273">
        <ele>315.818</ele>
        <time>2010-04-14T13:06:31Z</time>
      </trkpt>
      <trkpt lat="45.72699" lon="4.67297">
        <ele>318.206</ele>
        <time>2010-04-14T13:06:43Z</time>
      </trkpt>
      <trkpt lat="45.72722" lon="4.67318">
        <ele>320.506</ele>
        <time>2010-04-14T13:06:53Z</time>
      </trkpt>
      <trkpt lat="45.72744" lon="4.67339">
        <ele>322.434</ele>
        <time>2010-04-14T13:07:03Z</time>
      </trkpt>
      <trkpt lat="45.7276" lon="4.67361">
        <ele>323.852</ele>
        <time>2010-04-14T13:07:11Z</time>
      </trkpt>
      <trkpt lat="45.72769" lon="4.67385">
        <ele>324.979</ele>
        <time>2010-04-14T13:07:18Z</time>
      </trkpt>
      <trkpt lat="45.72783" lon="4.67422">
        <ele>326.959</ele>
        <time>2010-04-14T13:07:29Z</time>
      </trkpt>
      <trkpt lat="45.72796" lon="4.67457">
        <ele>329.101</ele>
        <time>2010-04-14T13:07:40Z</time>
      </trkpt>
      <trkpt lat="45.72807" lon="4.67476">
        <ele>330.135</ele>
        <time>2010-04-14T13:07:47Z</time>
      </trkpt>
      <trkpt lat="45.72826" lon="4.67486">
        <ele>330.922</ele>
        <time>2010-04-14T13:07:55Z</time>
      </trkpt>
      <trkpt lat="45.72849" lon="4.6749">
        <ele>331.47</ele>
        <time>2010-04-14T13:08:03Z</time>
      </trkpt>
      <trkpt lat="45.72871" lon="4.67476">
        <ele>332.36</ele>
        <time>2010-04-14T13:08:11Z</time>
      </trkpt>
      <trkpt lat="45.72896" lon="4.67455">
        <ele>333.734</ele>
        <time>2010-04-14T13:08:20Z</time>
      </trkpt>
      <trkpt lat="45.72914" lon="4.67441">
        <ele>335.54</ele>
        <time>2010-04-14T13:08:28Z</time>
      </trkpt>
      <trkpt lat="45.72934" lon="4.67427">
        <ele>337.104</ele>
        <time>2010-04-14T13:08:37Z</time>
      </trkpt>
      <trkpt lat="45.72957" lon="4.67412">
        <ele>338.497</ele>
        <time>2010-04-14T13:08:47Z</time>
      </trkpt>
      <trkpt lat="45.72985" lon="4.67393">
        <ele>340.404</ele>
        <time>2010-04-14T13:08:59Z</time>
      </trkpt>
      <trkpt lat="45.73014" lon="4.67374">
        <ele>342.696</ele>
        <time>2010-04-14T13:09:11Z</time>
      </trkpt>
      <trkpt lat="45.73038" lon="4.67352">
        <ele>344.099</ele>
        <time>2010-04-14T13:09:22Z</time>
      </trkpt>
      <trkpt lat="45.73042" lon="4.67348">
        <ele>345.693</ele>
        <time>2010-04-14T13:09:32Z</time>
      </trkpt>
      <trkpt lat="45.73074" lon="4.67299">
        <ele>347.222</ele>
        <time>2010-04-14T13:09:41Z</time>
      </trkpt>
      <trkpt lat="45.73093" lon="4.67291">
        <ele>348.723</ele>
        <time>2010-04-14T13:09:48Z</time>
      </trkpt>
      <trkpt lat="45.73123" lon="4.67287">
        <ele>350.749</ele>
        <time>2010-04-14T13:09:59Z</time>
      </trkpt>
      <trkpt lat="45.73149" lon="4.67284">
        <ele>352.689</ele>
        <time>2010-04-14T13:10:13Z</time>
      </trkpt>
      <trkpt lat="45.73192" lon="4.67279">
        <ele>354.893</ele>
        <time>2010-04-14T13:10:25Z</time>
      </trkpt>
      <trkpt lat="45.73223" lon="4.67276">
        <ele>357.139</ele>
        <time>2010-04-14T13:10:36Z</time>
      </trkpt>
      <trkpt lat="45.73246" lon="4.67274">
        <ele>359.283</ele>
        <time>2010-04-14T13:10:45Z</time>
      </trkpt>
      <trkpt lat="45.73266" lon="4.67271">
        <ele>361.55</ele>
        <time>2010-04-14T13:10:53Z</time>
      </trkpt>
      <trkpt lat="45.73268" lon="4.67271">
        <ele>361.673</ele>
        <time>2010-04-14T13:10:54Z</time>
      </trkpt>
      <trkpt lat="45.73271" lon="4.67255">
        <ele>361.145</ele>
        <time>2010-04-14T13:11:00Z</time>
      </trkpt>
      <trkpt lat="45.73273" lon="4.67229">
        <ele>360.847</ele>
        <time>2010-04-14T13:11:05Z</time>
      </trkpt>
      <trkpt lat="45.73294" lon="4.67207">
        <ele>361.925</ele>
        <time>2010-04-14T13:11:12Z</time>
      </trkpt>
      <trkpt lat="45.73325" lon="4.67174">
        <ele>364.159</ele>
        <time>2010-04-14T13:11:25Z</time>
      </trkpt>
      <trkpt lat="45.73362" lon="4.67135">
        <ele>366.101</ele>
        <time>2010-04-14T13:11:40Z</time>
      </trkpt>
      <trkpt lat="45.73395" lon="4.67098">
        <ele>368.184</ele>
        <time>2010-04-14T13:11:54Z</time>
      </trkpt>
      <trkpt lat="45.73402" lon="4.6709">
        <ele>369.663</ele>
        <time>2010-04-14T13:11:57Z</time>
      </trkpt>
      <trkpt lat="45.73436" lon="4.67053">
        <ele>371.469</ele>
        <time>2010-04-14T13:12:11Z</time>
      </trkpt>
      <trkpt lat="45.73463" lon="4.67026">
        <ele>372.801</ele>
        <time>2010-04-14T13:12:22Z</time>
      </trkpt>
      <trkpt lat="45.73492" lon="4.66995">
        <ele>374.68</ele>
        <time>2010-04-14T13:12:34Z</time>
      </trkpt>
      <trkpt lat="45.73515" lon="4.66967">
        <ele>376.428</ele>
        <time>2010-04-14T13:12:44Z</time>
      </trkpt>
      <trkpt lat="45.7353" lon="4.66934">
        <ele>378.122</ele>
        <time>2010-04-14T13:12:54Z</time>
      </trkpt>
      <trkpt lat="45.7354" lon="4.66896">
        <ele>379.541</ele>
        <time>2010-04-14T13:13:04Z</time>
      </trkpt>
      <trkpt lat="45.73544" lon="4.66849">
        <ele>380.914</ele>
        <time>2010-04-14T13:13:15Z</time>
      </trkpt>
      <trkpt lat="45.73544" lon="4.6682">
        <ele>381.928</ele>
        <time>2010-04-14T13:13:22Z</time>
      </trkpt>
      <trkpt lat="45.73534" lon="4.66802">
        <ele>382.659</ele>
        <time>2010-04-14T13:13:28Z</time>
      </trkpt>
      <trkpt lat="45.73514" lon="4.66785">
        <ele>383.705</ele>
        <time>2010-04-14T13:13:36Z</time>
      </trkpt>
      <trkpt lat="45.73484" lon="4.6676">
        <ele>385.495</ele>
        <time>2010-04-14T13:13:48Z</time>
      </trkpt>
      <trkpt lat="45.73461" lon="4.66741">
        <ele>387.042</ele>
        <time>2010-04-14T13:13:56Z</time>
      </trkpt>
      <trkpt lat="45.73454" lon="4.6673">
        <ele>389.281</ele>
        <time>2010-04-14T13:14:08Z</time>
      </trkpt>
      <trkpt lat="45.73414" lon="4.66674">
        <ele>391.015</ele>
        <time>2010-04-14T13:14:18Z</time>
      </trkpt>
      <trkpt lat="45.73393" lon="4.66644">
        <ele>392.753</ele>
        <time>2010-04-14T13:14:28Z</time>
      </trkpt>
      <trkpt lat="45.73379" lon="4.66615">
        <ele>394.345</ele>
        <time>2010-04-14T13:14:36Z</time>
      </trkpt>
      <trkpt lat="45.73374" lon="4.6657">
        <ele>396.071</ele>
        <time>2010-04-14T13:14:46Z</time>
      </trkpt>
      <trkpt lat="45.73376" lon="4.66534">
        <ele>397.528</ele>
        <time>2010-04-14T13:14:54Z</time>
      </trkpt>
      <trkpt lat="45.73389" lon="4.66502">
        <ele>398.426</ele>
        <time>2010-04-14T13:15:02Z</time>
      </trkpt>
      <trkpt lat="45.73411" lon="4.66473">
        <ele>400.013</ele>
        <time>2010-04-14T13:15:12Z</time>
      </trkpt>
      <trkpt lat="45.73442" lon="4.66435">
        <ele>402.084</ele>
        <time>2010-04-14T13:15:25Z</time>
      </trkpt>
      <trkpt lat="45.7345" lon="4.66425">
        <ele>402.672</ele>
        <time>2010-04-14T13:15:29Z</time>
      </trkpt>
      <trkpt lat="45.73461" lon="4.66433">
        <ele>402.96</ele>
        <time>2010-04-14T13:15:31Z</time>
      </trkpt>
      <trkpt lat="45.73476" lon="4.66461">
        <ele>404.592</ele>
        <time>2010-04-14T13:15:39Z</time>
      </trkpt>
      <trkpt lat="45.7349" lon="4.66483">
        <ele>406.111</ele>
        <time>2010-04-14T13:15:47Z</time>
      </trkpt>
      <trkpt lat="45.73508" lon="4.665">
        <ele>407.512</ele>
        <time>2010-04-14T13:15:55Z</time>
      </trkpt>
      <trkpt lat="45.73529" lon="4.66516">
        <ele>408.607</ele>
        <time>2010-04-14T13:16:04Z</time>
      </trkpt>
      <trkpt lat="45.73545" lon="4.66526">
        <ele>410.032</ele>
        <time>2010-04-14T13:16:11Z</time>
      </trkpt>
      <trkpt lat="45.73564" lon="4.66532">
        <ele>411.594</ele>
        <time>2010-04-14T13:16:19Z</time>
      </trkpt>
      <trkpt lat="45.73587" lon="4.66527">
        <ele>413.467</ele>
        <time>2010-04-14T13:16:28Z</time>
      </trkpt>
      <trkpt lat="45.73612" lon="4.66521">
        <ele>415.275</ele>
        <time>2010-04-14T13:16:38Z</time>
      </trkpt>
      <trkpt lat="45.73637" lon="4.66516">
        <ele>416.921</ele>
        <time>2010-04-14T13:16:48Z</time>
      </trkpt>
      <trkpt lat="45.73659" lon="4.66521">
        <ele>418.657</ele>
        <time>2010-04-14T13:16:57Z</time>
      </trkpt>
      <trkpt lat="45.73682" lon="4.66532">
        <ele>419.741</ele>
        <time>2010-04-14T13:17:06Z</time>
      </trkpt>
      <trkpt lat="45.73707" lon="4.66553">
        <ele>419.999</ele>
        <time>2010-04-14T13:17:16Z</time>
      </trkpt>
      <trkpt lat="45.73734" lon="4.66578">
        <ele>420.726</ele>
        <time>2010-04-14T13:17:25Z</time>
      </trkpt>
      <trkpt lat="45.73758" lon="4.66608">
        <ele>420.789</ele>
        <time>2010-04-14T13:17:33Z</time>
      </trkpt>
      <trkpt lat="45.73767" lon="4.66619">
        <ele>421.77</ele>
        <time>2010-04-14T13:17:41Z</time>
      </trkpt>
      <trkpt lat="45.73793" lon="4.66666">
        <ele>422.111</ele>
        <time>2010-04-14T13:17:47Z</time>
      </trkpt>
      <trkpt lat="45.73793" lon="4.66666">
        <ele>422.882</ele>
        <time>2010-04-14T13:17:53Z</time>
      </trkpt>
      <trkpt lat="45.73839" lon="4.66722">
        <ele>423.772</ele>
        <time>2010-04-14T13:18:02Z</time>
      </trkpt>
      <trkpt lat="45.73876" lon="4.66748">
        <ele>423.791</ele>
        <time>2010-04-14T13:18:12Z</time>
      </trkpt>
      <trkpt lat="45.73903" lon="4.66765">
        <ele>423.337</ele>
        <time>2010-04-14T13:18:18Z</time>
      </trkpt>
      <trkpt lat="45.73929" lon="4.66765">
        <ele>421.601</ele>
        <time>2010-04-14T13:18:23Z</time>
      </trkpt>
      <trkpt lat="45.73961" lon="4.66751">
        <ele>421.489</ele>
        <time>2010-04-14T13:18:29Z</time>
      </trkpt>
      <trkpt lat="45.73984" lon="4.66728">
        <ele>423.062</ele>
        <time>2010-04-14T13:18:35Z</time>
      </trkpt>
      <trkpt lat="45.74007" lon="4.66704">
        <ele>424.578</ele>
        <time>2010-04-14T13:18:43Z</time>
      </trkpt>
      <trkpt lat="45.7403" lon="4.66679">
        <ele>426.277</ele>
        <time>2010-04-14T13:18:53Z</time>
      </trkpt>
      <trkpt lat="45.74051" lon="4.66655">
        <ele>427.395</ele>
        <time>2010-04-14T13:19:02Z</time>
      </trkpt>
      <trkpt lat="45.74074" lon="4.6663">
        <ele>428.344</ele>
        <time>2010-04-14T13:19:11Z</time>
      </trkpt>
      <trkpt lat="45.74099" lon="4.66596">
        <ele>427.664</ele>
        <time>2010-04-14T13:19:20Z</time>
      </trkpt>
      <trkpt lat="45.74125" lon="4.6656">
        <ele>427.56</ele>
        <time>2010-04-14T13:19:28Z</time>
      </trkpt>
      <trkpt lat="45.74133" lon="4.66545">
        <ele>427.149</ele>
        <time>2010-04-14T13:19:31Z</time>
      </trkpt>
      <trkpt lat="45.74141" lon="4.66501">
        <ele>425.599</ele>
        <time>2010-04-14T13:19:37Z</time>
      </trkpt>
      <trkpt lat="45.74145" lon="4.66483">
        <ele>424.542</ele>
        <time>2010-04-14T13:19:39Z</time>
      </trkpt>
      <trkpt lat="45.74163" lon="4.6644">
        <ele>423.408</ele>
        <time>2010-04-14T13:19:44Z</time>
      </trkpt>
      <trkpt lat="45.74178" lon="4.66419">
        <ele>422.718</ele>
        <time>2010-04-14T13:19:47Z</time>
      </trkpt>
      <trkpt lat="45.74202" lon="4.66418">
        <ele>422.147</ele>
        <time>2010-04-14T13:19:50Z</time>
      </trkpt>
      <trkpt lat="45.74244" lon="4.66418">
        <ele>422.15</ele>
        <time>2010-04-14T13:19:57Z</time>
      </trkpt>
      <trkpt lat="45.74285" lon="4.66413">
        <ele>417.56</ele>
        <time>2010-04-14T13:20:03Z</time>
      </trkpt>
      <trkpt lat="45.74294" lon="4.66414">
        <ele>416.833</ele>
        <time>2010-04-14T13:20:04Z</time>
      </trkpt>
      <trkpt lat="45.74338" lon="4.6643">
        <ele>412.707</ele>
        <time>2010-04-14T13:20:10Z</time>
      </trkpt>
      <trkpt lat="45.74388" lon="4.66451">
        <ele>410.88</ele>
        <time>2010-04-14T13:20:14Z</time>
      </trkpt>
      <trkpt lat="45.74434" lon="4.66462">
        <ele>410.518</ele>
        <time>2010-04-14T13:20:19Z</time>
      </trkpt>
      <trkpt lat="45.74441" lon="4.66464">
        <ele>412.138</ele>
        <time>2010-04-14T13:20:24Z</time>
      </trkpt>
      <trkpt lat="45.74497" lon="4.66472">
        <ele>412.86</ele>
        <time>2010-04-14T13:20:29Z</time>
      </trkpt>
      <trkpt lat="45.74541" lon="4.66475">
        <ele>413.42</ele>
        <time>2010-04-14T13:20:38Z</time>
      </trkpt>
      <trkpt lat="45.74576" lon="4.66466">
        <ele>415.173</ele>
        <time>2010-04-14T13:20:46Z</time>
      </trkpt>
      <trkpt lat="45.74611" lon="4.66444">
        <ele>415.615</ele>
        <time>2010-04-14T13:20:55Z</time>
      </trkpt>
      <trkpt lat="45.74649" lon="4.66416">
        <ele>415.254</ele>
        <time>2010-04-14T13:21:04Z</time>
      </trkpt>
      <trkpt lat="45.74678" lon="4.66388">
        <ele>414.66</ele>
        <time>2010-04-14T13:21:11Z</time>
      </trkpt>
      <trkpt lat="45.74696" lon="4.66368">
        <ele>413.857</ele>
        <time>2010-04-14T13:21:15Z</time>
      </trkpt>
      <trkpt lat="45.74718" lon="4.66324">
        <ele>413.313</ele>
        <time>2010-04-14T13:21:21Z</time>
      </trkpt>
      <trkpt lat="45.74719" lon="4.66315">
        <ele>413.234</ele>
        <time>2010-04-14T13:21:22Z</time>
      </trkpt>
      <trkpt lat="45.74721" lon="4.6624">
        <ele>411.208</ele>
        <time>2010-04-14T13:21:30Z</time>
      </trkpt>
      <trkpt lat="45.74723" lon="4.6622">
        <ele>411.317</ele>
        <time>2010-04-14T13:21:32Z</time>
      </trkpt>
      <trkpt lat="45.74735" lon="4.6619">
        <ele>408.529</ele>
        <time>2010-04-14T13:21:36Z</time>
      </trkpt>
      <trkpt lat="45.74741" lon="4.66185">
        <ele>408.359</ele>
        <time>2010-04-14T13:21:37Z</time>
      </trkpt>
      <trkpt lat="45.74758" lon="4.66196">
        <ele>409.486</ele>
        <time>2010-04-14T13:21:40Z</time>
      </trkpt>
      <trkpt lat="45.7478" lon="4.66231">
        <ele>410.681</ele>
        <time>2010-04-14T13:21:47Z</time>
      </trkpt>
      <trkpt lat="45.74802" lon="4.66268">
        <ele>412.286</ele>
        <time>2010-04-14T13:21:56Z</time>
      </trkpt>
      <trkpt lat="45.74814" lon="4.66286">
        <ele>413.628</ele>
        <time>2010-04-14T13:22:01Z</time>
      </trkpt>
      <trkpt lat="45.74832" lon="4.66315">
        <ele>415.124</ele>
        <time>2010-04-14T13:22:10Z</time>
      </trkpt>
      <trkpt lat="45.74854" lon="4.66351">
        <ele>416.989</ele>
        <time>2010-04-14T13:22:21Z</time>
      </trkpt>
      <trkpt lat="45.74871" lon="4.6637">
        <ele>418.333</ele>
        <time>2010-04-14T13:22:29Z</time>
      </trkpt>
      <trkpt lat="45.74883" lon="4.66382">
        <ele>418.867</ele>
        <time>2010-04-14T13:22:35Z</time>
      </trkpt>
      <trkpt lat="45.74884" lon="4.66389">
        <ele>419.531</ele>
        <time>2010-04-14T13:22:39Z</time>
      </trkpt>
      <trkpt lat="45.74883" lon="4.66385">
        <ele>419.841</ele>
        <time>2010-04-14T13:22:40Z</time>
      </trkpt>
      <trkpt lat="45.74883" lon="4.66383">
        <ele>421.264</ele>
        <time>2010-04-14T13:22:50Z</time>
      </trkpt>
      <trkpt lat="45.7487" lon="4.66307">
        <ele>423.632</ele>
        <time>2010-04-14T13:23:02Z</time>
      </trkpt>
      <trkpt lat="45.74862" lon="4.66272">
        <ele>425.399</ele>
        <time>2010-04-14T13:23:12Z</time>
      </trkpt>
      <trkpt lat="45.74854" lon="4.66237">
        <ele>427.226</ele>
        <time>2010-04-14T13:23:22Z</time>
      </trkpt>
      <trkpt lat="45.74844" lon="4.66204">
        <ele>428.884</ele>
        <time>2010-04-14T13:23:32Z</time>
      </trkpt>
      <trkpt lat="45.74834" lon="4.66169">
        <ele>430.753</ele>
        <time>2010-04-14T13:23:42Z</time>
      </trkpt>
      <trkpt lat="45.74826" lon="4.66132">
        <ele>432.639</ele>
        <time>2010-04-14T13:23:53Z</time>
      </trkpt>
      <trkpt lat="45.74824" lon="4.66099">
        <ele>433.986</ele>
        <time>2010-04-14T13:24:02Z</time>
      </trkpt>
      <trkpt lat="45.74829" lon="4.66059">
        <ele>435.99</ele>
        <time>2010-04-14T13:24:13Z</time>
      </trkpt>
      <trkpt lat="45.74833" lon="4.66024">
        <ele>437.776</ele>
        <time>2010-04-14T13:24:23Z</time>
      </trkpt>
      <trkpt lat="45.74837" lon="4.65983">
        <ele>440.239</ele>
        <time>2010-04-14T13:24:35Z</time>
      </trkpt>
      <trkpt lat="45.74841" lon="4.65948">
        <ele>441.753</ele>
        <time>2010-04-14T13:24:45Z</time>
      </trkpt>
      <trkpt lat="45.74846" lon="4.65915">
        <ele>443.086</ele>
        <time>2010-04-14T13:24:55Z</time>
      </trkpt>
      <trkpt lat="45.74854" lon="4.65883">
        <ele>445.472</ele>
        <time>2010-04-14T13:25:05Z</time>
      </trkpt>
      <trkpt lat="45.74862" lon="4.65854">
        <ele>446.814</ele>
        <time>2010-04-14T13:25:14Z</time>
      </trkpt>
      <trkpt lat="45.74864" lon="4.65818">
        <ele>448.492</ele>
        <time>2010-04-14T13:25:24Z</time>
      </trkpt>
      <trkpt lat="45.74865" lon="4.65786">
        <ele>450.305</ele>
        <time>2010-04-14T13:25:33Z</time>
      </trkpt>
      <trkpt lat="45.74866" lon="4.65777">
        <ele>451.961</ele>
        <time>2010-04-14T13:25:42Z</time>
      </trkpt>
      <trkpt lat="45.74863" lon="4.6572">
        <ele>453.537</ele>
        <time>2010-04-14T13:25:52Z</time>
      </trkpt>
      <trkpt lat="45.74853" lon="4.65687">
        <ele>455.133</ele>
        <time>2010-04-14T13:26:02Z</time>
      </trkpt>
      <trkpt lat="45.74834" lon="4.65662">
        <ele>456.665</ele>
        <time>2010-04-14T13:26:12Z</time>
      </trkpt>
      <trkpt lat="45.7482" lon="4.65643">
        <ele>457.995</ele>
        <time>2010-04-14T13:26:20Z</time>
      </trkpt>
      <trkpt lat="45.748" lon="4.65623">
        <ele>460.087</ele>
        <time>2010-04-14T13:26:30Z</time>
      </trkpt>
      <trkpt lat="45.74778" lon="4.65605">
        <ele>461.525</ele>
        <time>2010-04-14T13:26:40Z</time>
      </trkpt>
      <trkpt lat="45.74757" lon="4.65587">
        <ele>463.495</ele>
        <time>2010-04-14T13:26:50Z</time>
      </trkpt>
      <trkpt lat="45.74741" lon="4.6557">
        <ele>464.901</ele>
        <time>2010-04-14T13:26:58Z</time>
      </trkpt>
      <trkpt lat="45.74723" lon="4.65549">
        <ele>466.344</ele>
        <time>2010-04-14T13:27:07Z</time>
      </trkpt>
      <trkpt lat="45.74702" lon="4.65522">
        <ele>468.279</ele>
        <time>2010-04-14T13:27:18Z</time>
      </trkpt>
      <trkpt lat="45.74687" lon="4.65497">
        <ele>469.845</ele>
        <time>2010-04-14T13:27:27Z</time>
      </trkpt>
      <trkpt lat="45.74675" lon="4.65455">
        <ele>471.944</ele>
        <time>2010-04-14T13:27:39Z</time>
      </trkpt>
      <trkpt lat="45.74665" lon="4.65418">
        <ele>474.243</ele>
        <time>2010-04-14T13:27:50Z</time>
      </trkpt>
      <trkpt lat="45.74656" lon="4.6538">
        <ele>475.842</ele>
        <time>2010-04-14T13:28:01Z</time>
      </trkpt>
      <trkpt lat="45.74653" lon="4.65336">
        <ele>477.887</ele>
        <time>2010-04-14T13:28:13Z</time>
      </trkpt>
      <trkpt lat="45.74657" lon="4.65311">
        <ele>479.362</ele>
        <time>2010-04-14T13:28:20Z</time>
      </trkpt>
      <trkpt lat="45.7466" lon="4.65301">
        <ele>481.129</ele>
        <time>2010-04-14T13:28:29Z</time>
      </trkpt>
      <trkpt lat="45.74681" lon="4.65254">
        <ele>482.664</ele>
        <time>2010-04-14T13:28:40Z</time>
      </trkpt>
      <trkpt lat="45.74693" lon="4.65228">
        <ele>484.198</ele>
        <time>2010-04-14T13:28:49Z</time>
      </trkpt>
      <trkpt lat="45.74706" lon="4.65198">
        <ele>485.747</ele>
        <time>2010-04-14T13:28:59Z</time>
      </trkpt>
      <trkpt lat="45.74715" lon="4.65164">
        <ele>488.201</ele>
        <time>2010-04-14T13:29:10Z</time>
      </trkpt>
      <trkpt lat="45.74723" lon="4.65124">
        <ele>490.147</ele>
        <time>2010-04-14T13:29:22Z</time>
      </trkpt>
      <trkpt lat="45.74731" lon="4.65092">
        <ele>492.099</ele>
        <time>2010-04-14T13:29:32Z</time>
      </trkpt>
      <trkpt lat="45.74739" lon="4.65059">
        <ele>493.354</ele>
        <time>2010-04-14T13:29:42Z</time>
      </trkpt>
      <trkpt lat="45.74747" lon="4.65019">
        <ele>495.495</ele>
        <time>2010-04-14T13:29:54Z</time>
      </trkpt>
      <trkpt lat="45.7475" lon="4.64993">
        <ele>497.048</ele>
        <time>2010-04-14T13:30:02Z</time>
      </trkpt>
      <trkpt lat="45.7475" lon="4.64958">
        <ele>499.136</ele>
        <time>2010-04-14T13:30:12Z</time>
      </trkpt>
      <trkpt lat="45.7475" lon="4.64958">
        <ele>500.503</ele>
        <time>2010-04-14T13:30:21Z</time>
      </trkpt>
      <trkpt lat="45.7474" lon="4.64896">
        <ele>501.903</ele>
        <time>2010-04-14T13:30:30Z</time>
      </trkpt>
      <trkpt lat="45.74738" lon="4.64876">
        <ele>503.265</ele>
        <time>2010-04-14T13:30:36Z</time>
      </trkpt>
      <trkpt lat="45.74742" lon="4.64857">
        <ele>504.57</ele>
        <time>2010-04-14T13:30:42Z</time>
      </trkpt>
      <trkpt lat="45.74751" lon="4.64832">
        <ele>506.196</ele>
        <time>2010-04-14T13:30:50Z</time>
      </trkpt>
      <trkpt lat="45.74765" lon="4.64809">
        <ele>507.791</ele>
        <time>2010-04-14T13:30:59Z</time>
      </trkpt>
      <trkpt lat="45.74776" lon="4.64789">
        <ele>508.972</ele>
        <time>2010-04-14T13:31:07Z</time>
      </trkpt>
      <trkpt lat="45.74788" lon="4.64761">
        <ele>510.593</ele>
        <time>2010-04-14T13:31:17Z</time>
      </trkpt>
      <trkpt lat="45.74795" lon="4.64741">
        <ele>511.548</ele>
        <time>2010-04-14T13:31:24Z</time>
      </trkpt>
      <trkpt lat="45.74805" lon="4.64717">
        <ele>513.218</ele>
        <time>2010-04-14T13:31:32Z</time>
      </trkpt>
      <trkpt lat="45.74815" lon="4.64691">
        <ele>514.663</ele>
        <time>2010-04-14T13:31:41Z</time>
      </trkpt>
      <trkpt lat="45.74823" lon="4.64671">
        <ele>515.764</ele>
        <time>2010-04-14T13:31:48Z</time>
      </trkpt>
      <trkpt lat="45.74831" lon="4.6465">
        <ele>517.072</ele>
        <time>2010-04-14T13:31:55Z</time>
      </trkpt>
      <trkpt lat="45.7484" lon="4.64627">
        <ele>518.348</ele>
        <time>2010-04-14T13:32:03Z</time>
      </trkpt>
      <trkpt lat="45.7484" lon="4.64627">
        <ele>519.795</ele>
        <time>2010-04-14T13:32:10Z</time>
      </trkpt>
      <trkpt lat="45.74866" lon="4.64588">
        <ele>520.988</ele>
        <time>2010-04-14T13:32:17Z</time>
      </trkpt>
      <trkpt lat="45.74893" lon="4.64582">
        <ele>522.972</ele>
        <time>2010-04-14T13:32:28Z</time>
      </trkpt>
      <trkpt lat="45.74913" lon="4.6459">
        <ele>525.516</ele>
        <time>2010-04-14T13:32:38Z</time>
      </trkpt>
      <trkpt lat="45.74929" lon="4.64595">
        <ele>527.301</ele>
        <time>2010-04-14T13:32:45Z</time>
      </trkpt>
      <trkpt lat="45.74945" lon="4.64608">
        <ele>528.77</ele>
        <time>2010-04-14T13:32:54Z</time>
      </trkpt>
      <trkpt lat="45.74961" lon="4.64624">
        <ele>530.372</ele>
        <time>2010-04-14T13:33:02Z</time>
      </trkpt>
      <trkpt lat="45.74978" lon="4.64637">
        <ele>531.978</ele>
        <time>2010-04-14T13:33:10Z</time>
      </trkpt>
      <trkpt lat="45.75" lon="4.64639">
        <ele>533.233</ele>
        <time>2010-04-14T13:33:18Z</time>
      </trkpt>
      <trkpt lat="45.75019" lon="4.64617">
        <ele>534.706</ele>
        <time>2010-04-14T13:33:28Z</time>
      </trkpt>
      <trkpt lat="45.75035" lon="4.64597">
        <ele>535.953</ele>
        <time>2010-04-14T13:33:36Z</time>
      </trkpt>
      <trkpt lat="45.75052" lon="4.64578">
        <ele>537.526</ele>
        <time>2010-04-14T13:33:45Z</time>
      </trkpt>
      <trkpt lat="45.75063" lon="4.64564">
        <ele>537.982</ele>
        <time>2010-04-14T13:33:51Z</time>
      </trkpt>
      <trkpt lat="45.7508" lon="4.64549">
        <ele>540.119</ele>
        <time>2010-04-14T13:34:00Z</time>
      </trkpt>
      <trkpt lat="45.75094" lon="4.64538">
        <ele>541.252</ele>
        <time>2010-04-14T13:34:07Z</time>
      </trkpt>
      <trkpt lat="45.75111" lon="4.64525">
        <ele>542.72</ele>
        <time>2010-04-14T13:34:15Z</time>
      </trkpt>
      <trkpt lat="45.75134" lon="4.64507">
        <ele>544.446</ele>
        <time>2010-04-14T13:34:26Z</time>
      </trkpt>
      <trkpt lat="45.75152" lon="4.64484">
        <ele>545.801</ele>
        <time>2010-04-14T13:34:36Z</time>
      </trkpt>
      <trkpt lat="45.75163" lon="4.64459">
        <ele>547.437</ele>
        <time>2010-04-14T13:34:45Z</time>
      </trkpt>
      <trkpt lat="45.75173" lon="4.64437">
        <ele>548.707</ele>
        <time>2010-04-14T13:34:53Z</time>
      </trkpt>
      <trkpt lat="45.75185" lon="4.64412">
        <ele>550.289</ele>
        <time>2010-04-14T13:35:02Z</time>
      </trkpt>
      <trkpt lat="45.752" lon="4.64385">
        <ele>552.184</ele>
        <time>2010-04-14T13:35:12Z</time>
      </trkpt>
      <trkpt lat="45.75212" lon="4.6437">
        <ele>553.464</ele>
        <time>2010-04-14T13:35:19Z</time>
      </trkpt>
      <trkpt lat="45.75224" lon="4.64354">
        <ele>554.667</ele>
        <time>2010-04-14T13:35:26Z</time>
      </trkpt>
      <trkpt lat="45.7524" lon="4.64329">
        <ele>556.512</ele>
        <time>2010-04-14T13:35:36Z</time>
      </trkpt>
      <trkpt lat="45.75256" lon="4.64298">
        <ele>558.457</ele>
        <time>2010-04-14T13:35:47Z</time>
      </trkpt>
      <trkpt lat="45.7526" lon="4.64275">
        <ele>559.876</ele>
        <time>2010-04-14T13:35:54Z</time>
      </trkpt>
      <trkpt lat="45.75266" lon="4.64241">
        <ele>561.54</ele>
        <time>2010-04-14T13:36:04Z</time>
      </trkpt>
      <trkpt lat="45.7527" lon="4.64218">
        <ele>562.854</ele>
        <time>2010-04-14T13:36:11Z</time>
      </trkpt>
      <trkpt lat="45.75274" lon="4.64193">
        <ele>564.011</ele>
        <time>2010-04-14T13:36:19Z</time>
      </trkpt>
      <trkpt lat="45.75278" lon="4.64165">
        <ele>565.764</ele>
        <time>2010-04-14T13:36:27Z</time>
      </trkpt>
      <trkpt lat="45.75286" lon="4.64133">
        <ele>567.398</ele>
        <time>2010-04-14T13:36:37Z</time>
      </trkpt>
      <trkpt lat="45.75294" lon="4.64112">
        <ele>568.664</ele>
        <time>2010-04-14T13:36:44Z</time>
      </trkpt>
      <trkpt lat="45.75301" lon="4.64092">
        <ele>569.757</ele>
        <time>2010-04-14T13:36:51Z</time>
      </trkpt>
      <trkpt lat="45.7531" lon="4.64069">
        <ele>571.352</ele>
        <time>2010-04-14T13:36:59Z</time>
      </trkpt>
      <trkpt lat="45.75321" lon="4.64045">
        <ele>572.873</ele>
        <time>2010-04-14T13:37:08Z</time>
      </trkpt>
      <trkpt lat="45.75335" lon="4.64024">
        <ele>574.432</ele>
        <time>2010-04-14T13:37:16Z</time>
      </trkpt>
      <trkpt lat="45.75345" lon="4.64008">
        <ele>575.684</ele>
        <time>2010-04-14T13:37:23Z</time>
      </trkpt>
      <trkpt lat="45.75359" lon="4.63987">
        <ele>577.255</ele>
        <time>2010-04-14T13:37:32Z</time>
      </trkpt>
      <trkpt lat="45.75372" lon="4.63968">
        <ele>578.796</ele>
        <time>2010-04-14T13:37:40Z</time>
      </trkpt>
      <trkpt lat="45.75383" lon="4.63951">
        <ele>579.882</ele>
        <time>2010-04-14T13:37:47Z</time>
      </trkpt>
      <trkpt lat="45.75397" lon="4.63929">
        <ele>581.363</ele>
        <time>2010-04-14T13:37:56Z</time>
      </trkpt>
      <trkpt lat="45.75408" lon="4.63918">
        <ele>582.63</ele>
        <time>2010-04-14T13:38:02Z</time>
      </trkpt>
      <trkpt lat="45.75425" lon="4.63901">
        <ele>584.177</ele>
        <time>2010-04-14T13:38:11Z</time>
      </trkpt>
      <trkpt lat="45.7544" lon="4.63885">
        <ele>585.448</ele>
        <time>2010-04-14T13:38:20Z</time>
      </trkpt>
      <trkpt lat="45.75453" lon="4.63877">
        <ele>587.076</ele>
        <time>2010-04-14T13:38:28Z</time>
      </trkpt>
      <trkpt lat="45.75473" lon="4.63869">
        <ele>589.059</ele>
        <time>2010-04-14T13:38:37Z</time>
      </trkpt>
      <trkpt lat="45.75497" lon="4.63846">
        <ele>591.227</ele>
        <time>2010-04-14T13:38:48Z</time>
      </trkpt>
      <trkpt lat="45.75511" lon="4.63828">
        <ele>592.408</ele>
        <time>2010-04-14T13:38:56Z</time>
      </trkpt>
      <trkpt lat="45.7553" lon="4.638">
        <ele>594.248</ele>
        <time>2010-04-14T13:39:07Z</time>
      </trkpt>
      <trkpt lat="45.75546" lon="4.63779">
        <ele>595.69</ele>
        <time>2010-04-14T13:39:16Z</time>
      </trkpt>
      <trkpt lat="45.75558" lon="4.63761">
        <ele>596.959</ele>
        <time>2010-04-14T13:39:23Z</time>
      </trkpt>
      <trkpt lat="45.7558" lon="4.6373">
        <ele>599.523</ele>
        <time>2010-04-14T13:39:36Z</time>
      </trkpt>
      <trkpt lat="45.75594" lon="4.637">
        <ele>601.544</ele>
        <time>2010-04-14T13:39:47Z</time>
      </trkpt>
      <trkpt lat="45.75606" lon="4.63673">
        <ele>603.351</ele>
        <time>2010-04-14T13:39:57Z</time>
      </trkpt>
      <trkpt lat="45.75616" lon="4.63651">
        <ele>604.805</ele>
        <time>2010-04-14T13:40:05Z</time>
      </trkpt>
      <trkpt lat="45.75622" lon="4.63629">
        <ele>606.26</ele>
        <time>2010-04-14T13:40:13Z</time>
      </trkpt>
      <trkpt lat="45.75626" lon="4.6361">
        <ele>607.466</ele>
        <time>2010-04-14T13:40:20Z</time>
      </trkpt>
      <trkpt lat="45.7563" lon="4.6359">
        <ele>608.506</ele>
        <time>2010-04-14T13:40:27Z</time>
      </trkpt>
      <trkpt lat="45.7563" lon="4.63565">
        <ele>610.159</ele>
        <time>2010-04-14T13:40:35Z</time>
      </trkpt>
      <trkpt lat="45.7563" lon="4.63543">
        <ele>611.367</ele>
        <time>2010-04-14T13:40:42Z</time>
      </trkpt>
      <trkpt lat="45.75623" lon="4.63512">
        <ele>612.525</ele>
        <time>2010-04-14T13:40:51Z</time>
      </trkpt>
      <trkpt lat="45.75617" lon="4.63484">
        <ele>614.045</ele>
        <time>2010-04-14T13:41:00Z</time>
      </trkpt>
      <trkpt lat="45.7561" lon="4.63455">
        <ele>615.681</ele>
        <time>2010-04-14T13:41:09Z</time>
      </trkpt>
      <trkpt lat="45.75603" lon="4.63423">
        <ele>616.917</ele>
        <time>2010-04-14T13:41:19Z</time>
      </trkpt>
      <trkpt lat="45.75599" lon="4.63391">
        <ele>618.341</ele>
        <time>2010-04-14T13:41:28Z</time>
      </trkpt>
      <trkpt lat="45.75598" lon="4.63371">
        <ele>619.4</ele>
        <time>2010-04-14T13:41:34Z</time>
      </trkpt>
      <trkpt lat="45.75597" lon="4.63345">
        <ele>620.499</ele>
        <time>2010-04-14T13:41:41Z</time>
      </trkpt>
      <trkpt lat="45.75596" lon="4.63318">
        <ele>622.144</ele>
        <time>2010-04-14T13:41:49Z</time>
      </trkpt>
      <trkpt lat="45.75595" lon="4.63288">
        <ele>623.304</ele>
        <time>2010-04-14T13:41:58Z</time>
      </trkpt>
      <trkpt lat="45.75594" lon="4.63263">
        <ele>624.386</ele>
        <time>2010-04-14T13:42:05Z</time>
      </trkpt>
      <trkpt lat="45.75593" lon="4.63233">
        <ele>626.142</ele>
        <time>2010-04-14T13:42:14Z</time>
      </trkpt>
      <trkpt lat="45.75591" lon="4.63203">
        <ele>627.687</ele>
        <time>2010-04-14T13:42:22Z</time>
      </trkpt>
      <trkpt lat="45.75591" lon="4.63198">
        <ele>628.313</ele>
        <time>2010-04-14T13:42:28Z</time>
      </trkpt>
      <trkpt lat="45.75591" lon="4.63198">
        <ele>629.107</ele>
        <time>2010-04-14T13:42:31Z</time>
      </trkpt>
      <trkpt lat="45.75599" lon="4.63155">
        <ele>630.172</ele>
        <time>2010-04-14T13:42:37Z</time>
      </trkpt>
      <trkpt lat="45.75602" lon="4.63137">
        <ele>631.457</ele>
        <time>2010-04-14T13:42:43Z</time>
      </trkpt>
      <trkpt lat="45.75604" lon="4.63125">
        <ele>632.038</ele>
        <time>2010-04-14T13:42:47Z</time>
      </trkpt>
      <trkpt lat="45.75606" lon="4.63119">
        <ele>632.578</ele>
        <time>2010-04-14T13:42:49Z</time>
      </trkpt>
      <trkpt lat="45.75614" lon="4.63096">
        <ele>633.946</ele>
        <time>2010-04-14T13:42:57Z</time>
      </trkpt>
      <trkpt lat="45.75624" lon="4.63084">
        <ele>635.097</ele>
        <time>2010-04-14T13:43:03Z</time>
      </trkpt>
      <trkpt lat="45.75636" lon="4.63068">
        <ele>636.581</ele>
        <time>2010-04-14T13:43:10Z</time>
      </trkpt>
      <trkpt lat="45.75648" lon="4.63068">
        <ele>637.345</ele>
        <time>2010-04-14T13:43:16Z</time>
      </trkpt>
      <trkpt lat="45.75666" lon="4.63073">
        <ele>639.112</ele>
        <time>2010-04-14T13:43:25Z</time>
      </trkpt>
      <trkpt lat="45.75681" lon="4.63087">
        <ele>640.273</ele>
        <time>2010-04-14T13:43:33Z</time>
      </trkpt>
      <trkpt lat="45.75693" lon="4.631">
        <ele>641.738</ele>
        <time>2010-04-14T13:43:40Z</time>
      </trkpt>
      <trkpt lat="45.75706" lon="4.63114">
        <ele>642.616</ele>
        <time>2010-04-14T13:43:47Z</time>
      </trkpt>
      <trkpt lat="45.75723" lon="4.63133">
        <ele>644.394</ele>
        <time>2010-04-14T13:43:57Z</time>
      </trkpt>
      <trkpt lat="45.7574" lon="4.63134">
        <ele>645.885</ele>
        <time>2010-04-14T13:44:05Z</time>
      </trkpt>
      <trkpt lat="45.75756" lon="4.63134">
        <ele>647.133</ele>
        <time>2010-04-14T13:44:12Z</time>
      </trkpt>
      <trkpt lat="45.75773" lon="4.63127">
        <ele>648.34</ele>
        <time>2010-04-14T13:44:20Z</time>
      </trkpt>
      <trkpt lat="45.7579" lon="4.63117">
        <ele>649.781</ele>
        <time>2010-04-14T13:44:28Z</time>
      </trkpt>
      <trkpt lat="45.75812" lon="4.63117">
        <ele>651.231</ele>
        <time>2010-04-14T13:44:38Z</time>
      </trkpt>
      <trkpt lat="45.75832" lon="4.63135">
        <ele>652.721</ele>
        <time>2010-04-14T13:44:47Z</time>
      </trkpt>
      <trkpt lat="45.75846" lon="4.63148">
        <ele>654.075</ele>
        <time>2010-04-14T13:44:54Z</time>
      </trkpt>
      <trkpt lat="45.75865" lon="4.63169">
        <ele>655.731</ele>
        <time>2010-04-14T13:45:04Z</time>
      </trkpt>
      <trkpt lat="45.75881" lon="4.63194">
        <ele>657.631</ele>
        <time>2010-04-14T13:45:14Z</time>
      </trkpt>
      <trkpt lat="45.759" lon="4.6322">
        <ele>659.407</ele>
        <time>2010-04-14T13:45:25Z</time>
      </trkpt>
      <trkpt lat="45.75917" lon="4.63236">
        <ele>661.07</ele>
        <time>2010-04-14T13:45:34Z</time>
      </trkpt>
      <trkpt lat="45.75938" lon="4.63252">
        <ele>662.65</ele>
        <time>2010-04-14T13:45:44Z</time>
      </trkpt>
      <trkpt lat="45.75958" lon="4.63261">
        <ele>664.539</ele>
        <time>2010-04-14T13:45:53Z</time>
      </trkpt>
      <trkpt lat="45.75982" lon="4.63261">
        <ele>665.851</ele>
        <time>2010-04-14T13:46:03Z</time>
      </trkpt>
      <trkpt lat="45.76003" lon="4.63259">
        <ele>667.389</ele>
        <time>2010-04-14T13:46:12Z</time>
      </trkpt>
      <trkpt lat="45.76024" lon="4.63252">
        <ele>668.722</ele>
        <time>2010-04-14T13:46:21Z</time>
      </trkpt>
      <trkpt lat="45.76044" lon="4.63242">
        <ele>670.403</ele>
        <time>2010-04-14T13:46:30Z</time>
      </trkpt>
      <trkpt lat="45.76058" lon="4.63224">
        <ele>671.391</ele>
        <time>2010-04-14T13:46:37Z</time>
      </trkpt>
      <trkpt lat="45.76075" lon="4.63201">
        <ele>673.214</ele>
        <time>2010-04-14T13:46:47Z</time>
      </trkpt>
      <trkpt lat="45.76091" lon="4.63176">
        <ele>675.095</ele>
        <time>2010-04-14T13:46:57Z</time>
      </trkpt>
      <trkpt lat="45.76103" lon="4.63148">
        <ele>676.793</ele>
        <time>2010-04-14T13:47:07Z</time>
      </trkpt>
      <trkpt lat="45.76116" lon="4.63116">
        <ele>678.334</ele>
        <time>2010-04-14T13:47:18Z</time>
      </trkpt>
      <trkpt lat="45.76123" lon="4.63098">
        <ele>679.447</ele>
        <time>2010-04-14T13:47:24Z</time>
      </trkpt>
      <trkpt lat="45.76133" lon="4.63075">
        <ele>680.547</ele>
        <time>2010-04-14T13:47:32Z</time>
      </trkpt>
      <trkpt lat="45.7614" lon="4.63058">
        <ele>682.185</ele>
        <time>2010-04-14T13:47:38Z</time>
      </trkpt>
      <trkpt lat="45.76153" lon="4.63034">
        <ele>683.347</ele>
        <time>2010-04-14T13:47:45Z</time>
      </trkpt>
      <trkpt lat="45.76165" lon="4.63032">
        <ele>684.733</ele>
        <time>2010-04-14T13:47:51Z</time>
      </trkpt>
      <trkpt lat="45.76178" lon="4.63045">
        <ele>686.018</ele>
        <time>2010-04-14T13:47:57Z</time>
      </trkpt>
      <trkpt lat="45.76181" lon="4.6307">
        <ele>687.269</ele>
        <time>2010-04-14T13:48:04Z</time>
      </trkpt>
      <trkpt lat="45.76184" lon="4.63101">
        <ele>688.907</ele>
        <time>2010-04-14T13:48:13Z</time>
      </trkpt>
      <trkpt lat="45.76188" lon="4.63136">
        <ele>690.676</ele>
        <time>2010-04-14T13:48:23Z</time>
      </trkpt>
      <trkpt lat="45.76191" lon="4.63165">
        <ele>692.285</ele>
        <time>2010-04-14T13:48:32Z</time>
      </trkpt>
      <trkpt lat="45.76193" lon="4.63194">
        <ele>693.459</ele>
        <time>2010-04-14T13:48:41Z</time>
      </trkpt>
      <trkpt lat="45.76196" lon="4.63222">
        <ele>694.781</ele>
        <time>2010-04-14T13:48:49Z</time>
      </trkpt>
      <trkpt lat="45.76199" lon="4.63263">
        <ele>695.378</ele>
        <time>2010-04-14T13:49:00Z</time>
      </trkpt>
      <trkpt lat="45.76201" lon="4.63293">
        <ele>695.676</ele>
        <time>2010-04-14T13:49:07Z</time>
      </trkpt>
      <trkpt lat="45.7621" lon="4.63301">
        <ele>696.262</ele>
        <time>2010-04-14T13:49:12Z</time>
      </trkpt>
      <trkpt lat="45.76222" lon="4.63298">
        <ele>697.005</ele>
        <time>2010-04-14T13:49:17Z</time>
      </trkpt>
      <trkpt lat="45.76226" lon="4.63294">
        <ele>698.733</ele>
        <time>2010-04-14T13:49:23Z</time>
      </trkpt>
      <trkpt lat="45.76225" lon="4.63274">
        <ele>698.729</ele>
        <time>2010-04-14T13:49:29Z</time>
      </trkpt>
      <trkpt lat="45.76224" lon="4.63245">
        <ele>700.136</ele>
        <time>2010-04-14T13:49:37Z</time>
      </trkpt>
      <trkpt lat="45.76223" lon="4.63205">
        <ele>701.889</ele>
        <time>2010-04-14T13:49:48Z</time>
      </trkpt>
      <trkpt lat="45.76224" lon="4.63179">
        <ele>702.422</ele>
        <time>2010-04-14T13:49:55Z</time>
      </trkpt>
      <trkpt lat="45.76227" lon="4.63143">
        <ele>704.087</ele>
        <time>2010-04-14T13:50:05Z</time>
      </trkpt>
      <trkpt lat="45.76229" lon="4.63116">
        <ele>705.797</ele>
        <time>2010-04-14T13:50:13Z</time>
      </trkpt>
      <trkpt lat="45.76231" lon="4.6309">
        <ele>706.597</ele>
        <time>2010-04-14T13:50:20Z</time>
      </trkpt>
      <trkpt lat="45.76233" lon="4.63073">
        <ele>707.395</ele>
        <time>2010-04-14T13:50:25Z</time>
      </trkpt>
      <trkpt lat="45.76237" lon="4.63046">
        <ele>708.571</ele>
        <time>2010-04-14T13:50:33Z</time>
      </trkpt>
      <trkpt lat="45.7624" lon="4.63022">
        <ele>709.528</ele>
        <time>2010-04-14T13:50:40Z</time>
      </trkpt>
      <trkpt lat="45.76244" lon="4.62993">
        <ele>710.702</ele>
        <time>2010-04-14T13:50:48Z</time>
      </trkpt>
      <trkpt lat="45.76247" lon="4.62971">
        <ele>711.258</ele>
        <time>2010-04-14T13:50:54Z</time>
      </trkpt>
      <trkpt lat="45.76258" lon="4.6294">
        <ele>712.949</ele>
        <time>2010-04-14T13:51:02Z</time>
      </trkpt>
      <trkpt lat="45.76271" lon="4.62907">
        <ele>714.037</ele>
        <time>2010-04-14T13:51:12Z</time>
      </trkpt>
      <trkpt lat="45.76278" lon="4.6289">
        <ele>714.2</ele>
        <time>2010-04-14T13:51:17Z</time>
      </trkpt>
      <trkpt lat="45.76278" lon="4.62881">
        <ele>714.58</ele>
        <time>2010-04-14T13:51:24Z</time>
      </trkpt>
      <trkpt lat="45.76304" lon="4.62863">
        <ele>714.951</ele>
        <time>2010-04-14T13:51:29Z</time>
      </trkpt>
      <trkpt lat="45.76317" lon="4.62841">
        <ele>716.107</ele>
        <time>2010-04-14T13:51:35Z</time>
      </trkpt>
      <trkpt lat="45.76328" lon="4.6281">
        <ele>717.306</ele>
        <time>2010-04-14T13:51:41Z</time>
      </trkpt>
      <trkpt lat="45.76302" lon="4.62768">
        <ele>718.699</ele>
        <time>2010-04-14T13:51:47Z</time>
      </trkpt>
      <trkpt lat="45.76307" lon="4.62742">
        <ele>719.687</ele>
        <time>2010-04-14T13:51:54Z</time>
      </trkpt>
      <trkpt lat="45.76308" lon="4.62724">
        <ele>720.775</ele>
        <time>2010-04-14T13:51:59Z</time>
      </trkpt>
      <trkpt lat="45.76306" lon="4.62701">
        <ele>721.791</ele>
        <time>2010-04-14T13:52:05Z</time>
      </trkpt>
      <trkpt lat="45.76298" lon="4.62678">
        <ele>722.909</ele>
        <time>2010-04-14T13:52:11Z</time>
      </trkpt>
      <trkpt lat="45.76285" lon="4.62665">
        <ele>724.069</ele>
        <time>2010-04-14T13:52:17Z</time>
      </trkpt>
      <trkpt lat="45.76269" lon="4.62659">
        <ele>724.893</ele>
        <time>2010-04-14T13:52:23Z</time>
      </trkpt>
      <trkpt lat="45.76253" lon="4.62656">
        <ele>725.83</ele>
        <time>2010-04-14T13:52:29Z</time>
      </trkpt>
      <trkpt lat="45.76231" lon="4.62651">
        <ele>727.522</ele>
        <time>2010-04-14T13:52:37Z</time>
      </trkpt>
      <trkpt lat="45.76216" lon="4.62644">
        <ele>728.41</ele>
        <time>2010-04-14T13:52:43Z</time>
      </trkpt>
      <trkpt lat="45.76196" lon="4.62631">
        <ele>729.821</ele>
        <time>2010-04-14T13:52:51Z</time>
      </trkpt>
      <trkpt lat="45.76181" lon="4.62612">
        <ele>731.482</ele>
        <time>2010-04-14T13:52:59Z</time>
      </trkpt>
      <trkpt lat="45.76162" lon="4.62589">
        <ele>732.762</ele>
        <time>2010-04-14T13:53:08Z</time>
      </trkpt>
      <trkpt lat="45.76147" lon="4.6257">
        <ele>734.141</ele>
        <time>2010-04-14T13:53:16Z</time>
      </trkpt>
      <trkpt lat="45.76127" lon="4.62546">
        <ele>735.827</ele>
        <time>2010-04-14T13:53:26Z</time>
      </trkpt>
      <trkpt lat="45.7611" lon="4.62525">
        <ele>737.247</ele>
        <time>2010-04-14T13:53:34Z</time>
      </trkpt>
      <trkpt lat="45.7609" lon="4.62499">
        <ele>738.225</ele>
        <time>2010-04-14T13:53:43Z</time>
      </trkpt>
      <trkpt lat="45.76073" lon="4.62477">
        <ele>739.428</ele>
        <time>2010-04-14T13:53:51Z</time>
      </trkpt>
      <trkpt lat="45.76056" lon="4.62455">
        <ele>741.006</ele>
        <time>2010-04-14T13:53:59Z</time>
      </trkpt>
      <trkpt lat="45.76044" lon="4.6244">
        <ele>741.947</ele>
        <time>2010-04-14T13:54:05Z</time>
      </trkpt>
      <trkpt lat="45.76026" lon="4.62413">
        <ele>743.313</ele>
        <time>2010-04-14T13:54:14Z</time>
      </trkpt>
      <trkpt lat="45.76008" lon="4.62383">
        <ele>744.815</ele>
        <time>2010-04-14T13:54:23Z</time>
      </trkpt>
      <trkpt lat="45.75994" lon="4.62359">
        <ele>746.148</ele>
        <time>2010-04-14T13:54:31Z</time>
      </trkpt>
      <trkpt lat="45.75986" lon="4.62346">
        <ele>747.211</ele>
        <time>2010-04-14T13:54:36Z</time>
      </trkpt>
      <trkpt lat="45.75974" lon="4.62325">
        <ele>748.474</ele>
        <time>2010-04-14T13:54:43Z</time>
      </trkpt>
      <trkpt lat="45.7596" lon="4.62301">
        <ele>750.196</ele>
        <time>2010-04-14T13:54:51Z</time>
      </trkpt>
      <trkpt lat="45.75943" lon="4.62276">
        <ele>751.768</ele>
        <time>2010-04-14T13:55:00Z</time>
      </trkpt>
      <trkpt lat="45.75922" lon="4.62258">
        <ele>752.947</ele>
        <time>2010-04-14T13:55:09Z</time>
      </trkpt>
      <trkpt lat="45.75893" lon="4.62232">
        <ele>754.903</ele>
        <time>2010-04-14T13:55:21Z</time>
      </trkpt>
      <trkpt lat="45.75866" lon="4.62208">
        <ele>755.296</ele>
        <time>2010-04-14T13:55:31Z</time>
      </trkpt>
      <trkpt lat="45.75842" lon="4.62187">
        <ele>755.662</ele>
        <time>2010-04-14T13:55:39Z</time>
      </trkpt>
      <trkpt lat="45.75815" lon="4.62152">
        <ele>755.679</ele>
        <time>2010-04-14T13:55:48Z</time>
      </trkpt>
      <trkpt lat="45.75792" lon="4.62115">
        <ele>755.806</ele>
        <time>2010-04-14T13:55:56Z</time>
      </trkpt>
      <trkpt lat="45.75765" lon="4.62067">
        <ele>756.325</ele>
        <time>2010-04-14T13:56:05Z</time>
      </trkpt>
      <trkpt lat="45.75736" lon="4.62015">
        <ele>754.495</ele>
        <time>2010-04-14T13:56:15Z</time>
      </trkpt>
      <trkpt lat="45.75717" lon="4.61975">
        <ele>754.332</ele>
        <time>2010-04-14T13:56:22Z</time>
      </trkpt>
      <trkpt lat="45.7569" lon="4.61919">
        <ele>753.771</ele>
        <time>2010-04-14T13:56:31Z</time>
      </trkpt>
      <trkpt lat="45.75665" lon="4.61866">
        <ele>753.54</ele>
        <time>2010-04-14T13:56:39Z</time>
      </trkpt>
      <trkpt lat="45.75649" lon="4.61833">
        <ele>753.139</ele>
        <time>2010-04-14T13:56:44Z</time>
      </trkpt>
      <trkpt lat="45.75631" lon="4.6179">
        <ele>752.412</ele>
        <time>2010-04-14T13:56:50Z</time>
      </trkpt>
      <trkpt lat="45.75621" lon="4.61748">
        <ele>752.031</ele>
        <time>2010-04-14T13:56:56Z</time>
      </trkpt>
      <trkpt lat="45.75621" lon="4.61687">
        <ele>752.165</ele>
        <time>2010-04-14T13:57:03Z</time>
      </trkpt>
      <trkpt lat="45.75621" lon="4.61673">
        <ele>752.199</ele>
        <time>2010-04-14T13:57:05Z</time>
      </trkpt>
      <trkpt lat="45.75621" lon="4.61637">
        <ele>751.938</ele>
        <time>2010-04-14T13:57:10Z</time>
      </trkpt>
      <trkpt lat="45.75621" lon="4.61612">
        <ele>752.097</ele>
        <time>2010-04-14T13:57:15Z</time>
      </trkpt>
      <trkpt lat="45.75621" lon="4.61612">
        <ele>752.297</ele>
        <time>2010-04-14T13:57:16Z</time>
      </trkpt>
      <trkpt lat="45.75621" lon="4.6161">
        <ele>752.845</ele>
        <time>2010-04-14T13:59:27Z</time>
      </trkpt>
      <trkpt lat="45.75621" lon="4.61585">
        <ele>752.292</ele>
        <time>2010-04-14T13:59:40Z</time>
      </trkpt>
      <trkpt lat="45.7562" lon="4.61549">
        <ele>751.741</ele>
        <time>2010-04-14T13:59:46Z</time>
      </trkpt>
      <trkpt lat="45.75613" lon="4.61507">
        <ele>751.349</ele>
        <time>2010-04-14T13:59:54Z</time>
      </trkpt>
      <trkpt lat="45.7559" lon="4.61442">
        <ele>751.337</ele>
        <time>2010-04-14T14:00:01Z</time>
      </trkpt>
      <trkpt lat="45.75564" lon="4.61403">
        <ele>751.401</ele>
        <time>2010-04-14T14:00:08Z</time>
      </trkpt>
      <trkpt lat="45.75547" lon="4.61382">
        <ele>751.084</ele>
        <time>2010-04-14T14:00:12Z</time>
      </trkpt>
      <trkpt lat="45.75506" lon="4.61351">
        <ele>750.213</ele>
        <time>2010-04-14T14:00:20Z</time>
      </trkpt>
      <trkpt lat="45.75471" lon="4.61332">
        <ele>749.788</ele>
        <time>2010-04-14T14:00:26Z</time>
      </trkpt>
      <trkpt lat="45.75431" lon="4.61311">
        <ele>748.999</ele>
        <time>2010-04-14T14:00:33Z</time>
      </trkpt>
      <trkpt lat="45.75403" lon="4.61293">
        <ele>749.035</ele>
        <time>2010-04-14T14:00:38Z</time>
      </trkpt>
      <trkpt lat="45.75376" lon="4.6127">
        <ele>749.064</ele>
        <time>2010-04-14T14:00:43Z</time>
      </trkpt>
      <trkpt lat="45.75326" lon="4.61209">
        <ele>748.096</ele>
        <time>2010-04-14T14:00:52Z</time>
      </trkpt>
      <trkpt lat="45.75278" lon="4.6115">
        <ele>745.143</ele>
        <time>2010-04-14T14:01:00Z</time>
      </trkpt>
      <trkpt lat="45.75239" lon="4.6109">
        <ele>742.943</ele>
        <time>2010-04-14T14:01:07Z</time>
      </trkpt>
      <trkpt lat="45.75202" lon="4.61027">
        <ele>741.726</ele>
        <time>2010-04-14T14:01:14Z</time>
      </trkpt>
      <trkpt lat="45.75174" lon="4.60994">
        <ele>741.195</ele>
        <time>2010-04-14T14:01:19Z</time>
      </trkpt>
      <trkpt lat="45.75153" lon="4.60982">
        <ele>740.303</ele>
        <time>2010-04-14T14:01:22Z</time>
      </trkpt>
      <trkpt lat="45.75116" lon="4.60975">
        <ele>738.585</ele>
        <time>2010-04-14T14:01:27Z</time>
      </trkpt>
      <trkpt lat="45.75043" lon="4.60979">
        <ele>736.195</ele>
        <time>2010-04-14T14:01:36Z</time>
      </trkpt>
      <trkpt lat="45.74974" lon="4.60976">
        <ele>734.798</ele>
        <time>2010-04-14T14:01:45Z</time>
      </trkpt>
      <trkpt lat="45.74959" lon="4.60975">
        <ele>734.802</ele>
        <time>2010-04-14T14:01:47Z</time>
      </trkpt>
      <trkpt lat="45.7493" lon="4.6098">
        <ele>734.28</ele>
        <time>2010-04-14T14:01:51Z</time>
      </trkpt>
      <trkpt lat="45.74884" lon="4.61022">
        <ele>732.844</ele>
        <time>2010-04-14T14:01:58Z</time>
      </trkpt>
      <trkpt lat="45.74835" lon="4.61073">
        <ele>730.563</ele>
        <time>2010-04-14T14:02:06Z</time>
      </trkpt>
      <trkpt lat="45.74824" lon="4.61087">
        <ele>730.31</ele>
        <time>2010-04-14T14:02:08Z</time>
      </trkpt>
      <trkpt lat="45.74805" lon="4.61115">
        <ele>730.185</ele>
        <time>2010-04-14T14:02:12Z</time>
      </trkpt>
      <trkpt lat="45.74793" lon="4.61138">
        <ele>728.951</ele>
        <time>2010-04-14T14:02:16Z</time>
      </trkpt>
      <trkpt lat="45.74767" lon="4.61164">
        <ele>728.432</ele>
        <time>2010-04-14T14:02:19Z</time>
      </trkpt>
      <trkpt lat="45.74762" lon="4.61164">
        <ele>728.333</ele>
        <time>2010-04-14T14:02:20Z</time>
      </trkpt>
      <trkpt lat="45.74728" lon="4.61094">
        <ele>724.487</ele>
        <time>2010-04-14T14:02:26Z</time>
      </trkpt>
      <trkpt lat="45.74686" lon="4.61041">
        <ele>720.467</ele>
        <time>2010-04-14T14:02:32Z</time>
      </trkpt>
      <trkpt lat="45.74648" lon="4.6099">
        <ele>717.531</ele>
        <time>2010-04-14T14:02:37Z</time>
      </trkpt>
      <trkpt lat="45.7461" lon="4.60914">
        <ele>713.332</ele>
        <time>2010-04-14T14:02:43Z</time>
      </trkpt>
      <trkpt lat="45.74605" lon="4.609">
        <ele>712.622</ele>
        <time>2010-04-14T14:02:44Z</time>
      </trkpt>
      <trkpt lat="45.74586" lon="4.60788">
        <ele>707.19</ele>
        <time>2010-04-14T14:02:51Z</time>
      </trkpt>
      <trkpt lat="45.74573" lon="4.60689">
        <ele>701.922</ele>
        <time>2010-04-14T14:02:57Z</time>
      </trkpt>
      <trkpt lat="45.74571" lon="4.60672">
        <ele>701.649</ele>
        <time>2010-04-14T14:02:58Z</time>
      </trkpt>
      <trkpt lat="45.74534" lon="4.60584">
        <ele>696.286</ele>
        <time>2010-04-14T14:03:04Z</time>
      </trkpt>
      <trkpt lat="45.7449" lon="4.60483">
        <ele>690.693</ele>
        <time>2010-04-14T14:03:11Z</time>
      </trkpt>
      <trkpt lat="45.74453" lon="4.60397">
        <ele>685.838</ele>
        <time>2010-04-14T14:03:17Z</time>
      </trkpt>
      <trkpt lat="45.7443" lon="4.60345">
        <ele>683.464</ele>
        <time>2010-04-14T14:03:21Z</time>
      </trkpt>
      <trkpt lat="45.74427" lon="4.60337">
        <ele>682.999</ele>
        <time>2010-04-14T14:03:22Z</time>
      </trkpt>
      <trkpt lat="45.74415" lon="4.60292">
        <ele>680.226</ele>
        <time>2010-04-14T14:03:26Z</time>
      </trkpt>
      <trkpt lat="45.74423" lon="4.60265">
        <ele>678.989</ele>
        <time>2010-04-14T14:03:28Z</time>
      </trkpt>
      <trkpt lat="45.74456" lon="4.60204">
        <ele>675.207</ele>
        <time>2010-04-14T14:03:34Z</time>
      </trkpt>
      <trkpt lat="45.74468" lon="4.60183">
        <ele>673.661</ele>
        <time>2010-04-14T14:03:36Z</time>
      </trkpt>
      <trkpt lat="45.745" lon="4.60144">
        <ele>670.931</ele>
        <time>2010-04-14T14:03:40Z</time>
      </trkpt>
      <trkpt lat="45.74528" lon="4.60106">
        <ele>667.925</ele>
        <time>2010-04-14T14:03:44Z</time>
      </trkpt>
      <trkpt lat="45.74557" lon="4.60039">
        <ele>663.384</ele>
        <time>2010-04-14T14:03:49Z</time>
      </trkpt>
      <trkpt lat="45.74596" lon="4.59946">
        <ele>658.141</ele>
        <time>2010-04-14T14:03:56Z</time>
      </trkpt>
      <trkpt lat="45.74626" lon="4.59865">
        <ele>654.086</ele>
        <time>2010-04-14T14:04:02Z</time>
      </trkpt>
      <trkpt lat="45.7464" lon="4.59809">
        <ele>650.877</ele>
        <time>2010-04-14T14:04:06Z</time>
      </trkpt>
      <trkpt lat="45.74645" lon="4.59781">
        <ele>649.623</ele>
        <time>2010-04-14T14:04:08Z</time>
      </trkpt>
      <trkpt lat="45.7464" lon="4.59732">
        <ele>647.054</ele>
        <time>2010-04-14T14:04:12Z</time>
      </trkpt>
      <trkpt lat="45.74627" lon="4.59696">
        <ele>644.431</ele>
        <time>2010-04-14T14:04:15Z</time>
      </trkpt>
      <trkpt lat="45.7461" lon="4.59679">
        <ele>643.726</ele>
        <time>2010-04-14T14:04:17Z</time>
      </trkpt>
      <trkpt lat="45.74585" lon="4.59675">
        <ele>641.62</ele>
        <time>2010-04-14T14:04:20Z</time>
      </trkpt>
      <trkpt lat="45.74571" lon="4.59672">
        <ele>640.756</ele>
        <time>2010-04-14T14:04:22Z</time>
      </trkpt>
      <trkpt lat="45.74552" lon="4.59666">
        <ele>638.965</ele>
        <time>2010-04-14T14:04:25Z</time>
      </trkpt>
      <trkpt lat="45.74539" lon="4.59645">
        <ele>637.235</ele>
        <time>2010-04-14T14:04:28Z</time>
      </trkpt>
      <trkpt lat="45.74538" lon="4.59612">
        <ele>635.134</ele>
        <time>2010-04-14T14:04:31Z</time>
      </trkpt>
      <trkpt lat="45.74547" lon="4.5954">
        <ele>631.561</ele>
        <time>2010-04-14T14:04:37Z</time>
      </trkpt>
      <trkpt lat="45.74558" lon="4.59511">
        <ele>630.346</ele>
        <time>2010-04-14T14:04:39Z</time>
      </trkpt>
      <trkpt lat="45.74583" lon="4.59466">
        <ele>627.35</ele>
        <time>2010-04-14T14:04:43Z</time>
      </trkpt>
      <trkpt lat="45.746" lon="4.5945">
        <ele>625.859</ele>
        <time>2010-04-14T14:04:45Z</time>
      </trkpt>
      <trkpt lat="45.74626" lon="4.5943">
        <ele>623.334</ele>
        <time>2010-04-14T14:04:48Z</time>
      </trkpt>
      <trkpt lat="45.74654" lon="4.59391">
        <ele>620.225</ele>
        <time>2010-04-14T14:04:52Z</time>
      </trkpt>
      <trkpt lat="45.74673" lon="4.59353">
        <ele>617.979</ele>
        <time>2010-04-14T14:04:55Z</time>
      </trkpt>
      <trkpt lat="45.74693" lon="4.59318">
        <ele>615.891</ele>
        <time>2010-04-14T14:04:58Z</time>
      </trkpt>
      <trkpt lat="45.74725" lon="4.59262">
        <ele>611.776</ele>
        <time>2010-04-14T14:05:03Z</time>
      </trkpt>
      <trkpt lat="45.7473" lon="4.59218">
        <ele>609.608</ele>
        <time>2010-04-14T14:05:06Z</time>
      </trkpt>
      <trkpt lat="45.74728" lon="4.59124">
        <ele>604.061</ele>
        <time>2010-04-14T14:05:12Z</time>
      </trkpt>
      <trkpt lat="45.74724" lon="4.59047">
        <ele>600.693</ele>
        <time>2010-04-14T14:05:17Z</time>
      </trkpt>
      <trkpt lat="45.74724" lon="4.59034">
        <ele>600.089</ele>
        <time>2010-04-14T14:05:18Z</time>
      </trkpt>
      <trkpt lat="45.74748" lon="4.58984">
        <ele>597.121</ele>
        <time>2010-04-14T14:05:22Z</time>
      </trkpt>
      <trkpt lat="45.74771" lon="4.58973">
        <ele>595.834</ele>
        <time>2010-04-14T14:05:24Z</time>
      </trkpt>
      <trkpt lat="45.74812" lon="4.5895">
        <ele>591.944</ele>
        <time>2010-04-14T14:05:29Z</time>
      </trkpt>
      <trkpt lat="45.74826" lon="4.5894">
        <ele>589.776</ele>
        <time>2010-04-14T14:05:31Z</time>
      </trkpt>
      <trkpt lat="45.74846" lon="4.58938">
        <ele>588.196</ele>
        <time>2010-04-14T14:05:33Z</time>
      </trkpt>
      <trkpt lat="45.74897" lon="4.58955">
        <ele>584.585</ele>
        <time>2010-04-14T14:05:38Z</time>
      </trkpt>
      <trkpt lat="45.74953" lon="4.58986">
        <ele>580.199</ele>
        <time>2010-04-14T14:05:44Z</time>
      </trkpt>
      <trkpt lat="45.74982" lon="4.58993">
        <ele>577.865</ele>
        <time>2010-04-14T14:05:48Z</time>
      </trkpt>
      <trkpt lat="45.75002" lon="4.58973">
        <ele>575.703</ele>
        <time>2010-04-14T14:05:51Z</time>
      </trkpt>
      <trkpt lat="45.75003" lon="4.58951">
        <ele>574.496</ele>
        <time>2010-04-14T14:05:53Z</time>
      </trkpt>
      <trkpt lat="45.74998" lon="4.5891">
        <ele>571.94</ele>
        <time>2010-04-14T14:05:56Z</time>
      </trkpt>
      <trkpt lat="45.74992" lon="4.58866">
        <ele>568.997</ele>
        <time>2010-04-14T14:05:59Z</time>
      </trkpt>
      <trkpt lat="45.74993" lon="4.58819">
        <ele>566.153</ele>
        <time>2010-04-14T14:06:02Z</time>
      </trkpt>
      <trkpt lat="45.75005" lon="4.58718">
        <ele>559.824</ele>
        <time>2010-04-14T14:06:09Z</time>
      </trkpt>
      <trkpt lat="45.75007" lon="4.58705">
        <ele>559.547</ele>
        <time>2010-04-14T14:06:10Z</time>
      </trkpt>
      <trkpt lat="45.75011" lon="4.58691">
        <ele>558.498</ele>
        <time>2010-04-14T14:06:11Z</time>
      </trkpt>
      <trkpt lat="45.75028" lon="4.58653">
        <ele>554.542</ele>
        <time>2010-04-14T14:06:15Z</time>
      </trkpt>
      <trkpt lat="45.75048" lon="4.5863">
        <ele>552.518</ele>
        <time>2010-04-14T14:06:18Z</time>
      </trkpt>
      <trkpt lat="45.75065" lon="4.58587">
        <ele>550.812</ele>
        <time>2010-04-14T14:06:22Z</time>
      </trkpt>
      <trkpt lat="45.75067" lon="4.58574">
        <ele>550.081</ele>
        <time>2010-04-14T14:06:23Z</time>
      </trkpt>
      <trkpt lat="45.75085" lon="4.58479">
        <ele>543.602</ele>
        <time>2010-04-14T14:06:30Z</time>
      </trkpt>
      <trkpt lat="45.75095" lon="4.58437">
        <ele>541.887</ele>
        <time>2010-04-14T14:06:33Z</time>
      </trkpt>
      <trkpt lat="45.75106" lon="4.58395">
        <ele>540.792</ele>
        <time>2010-04-14T14:06:36Z</time>
      </trkpt>
      <trkpt lat="45.7511" lon="4.58328">
        <ele>536.33</ele>
        <time>2010-04-14T14:06:41Z</time>
      </trkpt>
      <trkpt lat="45.75103" lon="4.58221">
        <ele>529.668</ele>
        <time>2010-04-14T14:06:48Z</time>
      </trkpt>
      <trkpt lat="45.75097" lon="4.5819">
        <ele>528.404</ele>
        <time>2010-04-14T14:06:50Z</time>
      </trkpt>
      <trkpt lat="45.75076" lon="4.58081">
        <ele>521.538</ele>
        <time>2010-04-14T14:06:57Z</time>
      </trkpt>
      <trkpt lat="45.75055" lon="4.58006">
        <ele>517.666</ele>
        <time>2010-04-14T14:07:02Z</time>
      </trkpt>
      <trkpt lat="45.75017" lon="4.57894">
        <ele>514.286</ele>
        <time>2010-04-14T14:07:10Z</time>
      </trkpt>
      <trkpt lat="45.75007" lon="4.57867">
        <ele>513.291</ele>
        <time>2010-04-14T14:07:12Z</time>
      </trkpt>
      <trkpt lat="45.74969" lon="4.5777">
        <ele>507.358</ele>
        <time>2010-04-14T14:07:19Z</time>
      </trkpt>
      <trkpt lat="45.74934" lon="4.57708">
        <ele>503.539</ele>
        <time>2010-04-14T14:07:24Z</time>
      </trkpt>
      <trkpt lat="45.74876" lon="4.57602">
        <ele>495.913</ele>
        <time>2010-04-14T14:07:32Z</time>
      </trkpt>
      <trkpt lat="45.74853" lon="4.57559">
        <ele>493.602</ele>
        <time>2010-04-14T14:07:36Z</time>
      </trkpt>
      <trkpt lat="45.74817" lon="4.57451">
        <ele>488.418</ele>
        <time>2010-04-14T14:07:43Z</time>
      </trkpt>
      <trkpt lat="45.74796" lon="4.57378">
        <ele>485.747</ele>
        <time>2010-04-14T14:07:48Z</time>
      </trkpt>
      <trkpt lat="45.74782" lon="4.57315">
        <ele>483.822</ele>
        <time>2010-04-14T14:07:53Z</time>
      </trkpt>
      <trkpt lat="45.7478" lon="4.57305">
        <ele>483.446</ele>
        <time>2010-04-14T14:07:54Z</time>
      </trkpt>
      <trkpt lat="45.74767" lon="4.5728">
        <ele>481.841</ele>
        <time>2010-04-14T14:07:58Z</time>
      </trkpt>
      <trkpt lat="45.74754" lon="4.5728">
        <ele>480.558</ele>
        <time>2010-04-14T14:08:01Z</time>
      </trkpt>
      <trkpt lat="45.74749" lon="4.57289">
        <ele>479.168</ele>
        <time>2010-04-14T14:08:03Z</time>
      </trkpt>
      <trkpt lat="45.74746" lon="4.57309">
        <ele>477.354</ele>
        <time>2010-04-14T14:08:06Z</time>
      </trkpt>
      <trkpt lat="45.74754" lon="4.57343">
        <ele>475.659</ele>
        <time>2010-04-14T14:08:09Z</time>
      </trkpt>
      <trkpt lat="45.74761" lon="4.57379">
        <ele>473.58</ele>
        <time>2010-04-14T14:08:12Z</time>
      </trkpt>
      <trkpt lat="45.74774" lon="4.57443">
        <ele>470.997</ele>
        <time>2010-04-14T14:08:17Z</time>
      </trkpt>
      <trkpt lat="45.74788" lon="4.57509">
        <ele>468.061</ele>
        <time>2010-04-14T14:08:22Z</time>
      </trkpt>
      <trkpt lat="45.74809" lon="4.5761">
        <ele>462.279</ele>
        <time>2010-04-14T14:08:29Z</time>
      </trkpt>
      <trkpt lat="45.74828" lon="4.57701">
        <ele>458.397</ele>
        <time>2010-04-14T14:08:35Z</time>
      </trkpt>
      <trkpt lat="45.74838" lon="4.57749">
        <ele>456.779</ele>
        <time>2010-04-14T14:08:39Z</time>
      </trkpt>
      <trkpt lat="45.74842" lon="4.5777">
        <ele>456.62</ele>
        <time>2010-04-14T14:08:41Z</time>
      </trkpt>
      <trkpt lat="45.74844" lon="4.57782">
        <ele>454.328</ele>
        <time>2010-04-14T14:08:44Z</time>
      </trkpt>
      <trkpt lat="45.74834" lon="4.57814">
        <ele>453.213</ele>
        <time>2010-04-14T14:08:46Z</time>
      </trkpt>
      <trkpt lat="45.74822" lon="4.57821">
        <ele>451.884</ele>
        <time>2010-04-14T14:08:48Z</time>
      </trkpt>
      <trkpt lat="45.74815" lon="4.57818">
        <ele>452.004</ele>
        <time>2010-04-14T14:08:49Z</time>
      </trkpt>
      <trkpt lat="45.74777" lon="4.57769">
        <ele>446.391</ele>
        <time>2010-04-14T14:08:55Z</time>
      </trkpt>
      <trkpt lat="45.74771" lon="4.57759">
        <ele>445.67</ele>
        <time>2010-04-14T14:08:56Z</time>
      </trkpt>
      <trkpt lat="45.74737" lon="4.577">
        <ele>441.87</ele>
        <time>2010-04-14T14:09:01Z</time>
      </trkpt>
      <trkpt lat="45.74707" lon="4.57652">
        <ele>438.375</ele>
        <time>2010-04-14T14:09:05Z</time>
      </trkpt>
      <trkpt lat="45.74643" lon="4.57577">
        <ele>432.481</ele>
        <time>2010-04-14T14:09:12Z</time>
      </trkpt>
      <trkpt lat="45.74594" lon="4.57503">
        <ele>428.582</ele>
        <time>2010-04-14T14:09:18Z</time>
      </trkpt>
      <trkpt lat="45.74562" lon="4.5746">
        <ele>426.02</ele>
        <time>2010-04-14T14:09:22Z</time>
      </trkpt>
      <trkpt lat="45.74533" lon="4.57411">
        <ele>423.675</ele>
        <time>2010-04-14T14:09:26Z</time>
      </trkpt>
      <trkpt lat="45.74523" lon="4.57386">
        <ele>422.481</ele>
        <time>2010-04-14T14:09:28Z</time>
      </trkpt>
      <trkpt lat="45.74501" lon="4.57353">
        <ele>420.167</ele>
        <time>2010-04-14T14:09:32Z</time>
      </trkpt>
      <trkpt lat="45.74501" lon="4.57353">
        <ele>417.4</ele>
        <time>2010-04-14T14:09:35Z</time>
      </trkpt>
      <trkpt lat="45.74463" lon="4.57311">
        <ele>416.963</ele>
        <time>2010-04-14T14:09:36Z</time>
      </trkpt>
      <trkpt lat="45.74437" lon="4.57214">
        <ele>413.564</ele>
        <time>2010-04-14T14:09:43Z</time>
      </trkpt>
      <trkpt lat="45.74425" lon="4.57154">
        <ele>412.342</ele>
        <time>2010-04-14T14:09:48Z</time>
      </trkpt>
      <trkpt lat="45.74408" lon="4.57122">
        <ele>411.226</ele>
        <time>2010-04-14T14:09:52Z</time>
      </trkpt>
      <trkpt lat="45.74402" lon="4.57113">
        <ele>410.439</ele>
        <time>2010-04-14T14:09:55Z</time>
      </trkpt>
      <trkpt lat="45.74352" lon="4.57115">
        <ele>407.348</ele>
        <time>2010-04-14T14:10:01Z</time>
      </trkpt>
      <trkpt lat="45.74313" lon="4.57119">
        <ele>404.117</ele>
        <time>2010-04-14T14:10:06Z</time>
      </trkpt>
      <trkpt lat="45.74306" lon="4.5712">
        <ele>403.981</ele>
        <time>2010-04-14T14:10:07Z</time>
      </trkpt>
      <trkpt lat="45.74288" lon="4.57122">
        <ele>402.779</ele>
        <time>2010-04-14T14:10:10Z</time>
      </trkpt>
      <trkpt lat="45.74275" lon="4.57124">
        <ele>401.233</ele>
        <time>2010-04-14T14:10:13Z</time>
      </trkpt>
      <trkpt lat="45.74247" lon="4.57128">
        <ele>399.89</ele>
        <time>2010-04-14T14:10:18Z</time>
      </trkpt>
      <trkpt lat="45.74208" lon="4.57134">
        <ele>397.722</ele>
        <time>2010-04-14T14:10:24Z</time>
      </trkpt>
      <trkpt lat="45.74192" lon="4.57138">
        <ele>397.395</ele>
        <time>2010-04-14T14:10:27Z</time>
      </trkpt>
      <trkpt lat="45.74171" lon="4.57151">
        <ele>394.344</ele>
        <time>2010-04-14T14:10:33Z</time>
      </trkpt>
      <trkpt lat="45.74139" lon="4.57161">
        <ele>392.521</ele>
        <time>2010-04-14T14:10:37Z</time>
      </trkpt>
      <trkpt lat="45.74122" lon="4.57161">
        <ele>391.17</ele>
        <time>2010-04-14T14:10:43Z</time>
      </trkpt>
      <trkpt lat="45.74118" lon="4.57157">
        <ele>390.979</ele>
        <time>2010-04-14T14:10:44Z</time>
      </trkpt>
      <trkpt lat="45.74113" lon="4.57132">
        <ele>390.022</ele>
        <time>2010-04-14T14:10:48Z</time>
      </trkpt>
      <trkpt lat="45.74122" lon="4.57113">
        <ele>388.736</ele>
        <time>2010-04-14T14:10:51Z</time>
      </trkpt>
      <trkpt lat="45.74126" lon="4.57106">
        <ele>388.2</ele>
        <time>2010-04-14T14:10:52Z</time>
      </trkpt>
      <trkpt lat="45.74139" lon="4.57086">
        <ele>386.95</ele>
        <time>2010-04-14T14:10:56Z</time>
      </trkpt>
      <trkpt lat="45.74136" lon="4.57087">
        <ele>387.445</ele>
        <time>2010-04-14T14:11:02Z</time>
      </trkpt>
      <trkpt lat="45.74136" lon="4.57087">
        <ele>387.575</ele>
        <time>2010-04-14T14:11:03Z</time>
      </trkpt>
      <trkpt lat="45.74136" lon="4.57087">
        <ele>387.914</ele>
        <time>2010-04-14T14:11:13Z</time>
      </trkpt>
      <trkpt lat="45.74136" lon="4.57087">
        <ele>387.385</ele>
        <time>2010-04-14T14:11:19Z</time>
      </trkpt>
      <trkpt lat="45.74136" lon="4.57087">
        <ele>388.102</ele>
        <time>2010-04-14T14:11:28Z</time>
      </trkpt>
      <trkpt lat="45.74136" lon="4.57087">
        <ele>387.819</ele>
        <time>2010-04-14T14:12:22Z</time>
      </trkpt>
      <trkpt lat="45.74132" lon="4.57083">
        <ele>389.179</ele>
        <time>2010-04-14T14:12:25Z</time>
      </trkpt>
      <trkpt lat="45.74126" lon="4.57081">
        <ele>390.675</ele>
        <time>2010-04-14T14:12:30Z</time>
      </trkpt>
      <trkpt lat="45.7412" lon="4.57079">
        <ele>391.229</ele>
        <time>2010-04-14T14:12:33Z</time>
      </trkpt>
      <trkpt lat="45.74107" lon="4.57075">
        <ele>392.639</ele>
        <time>2010-04-14T14:12:39Z</time>
      </trkpt>
      <trkpt lat="45.74088" lon="4.57064">
        <ele>393.235</ele>
        <time>2010-04-14T14:12:46Z</time>
      </trkpt>
      <trkpt lat="45.74066" lon="4.57047">
        <ele>393.737</ele>
        <time>2010-04-14T14:12:54Z</time>
      </trkpt>
      <trkpt lat="45.74039" lon="4.57023">
        <ele>394.382</ele>
        <time>2010-04-14T14:13:03Z</time>
      </trkpt>
      <trkpt lat="45.74012" lon="4.56992">
        <ele>396.206</ele>
        <time>2010-04-14T14:13:14Z</time>
      </trkpt>
      <trkpt lat="45.7399" lon="4.56968">
        <ele>397.6</ele>
        <time>2010-04-14T14:13:23Z</time>
      </trkpt>
      <trkpt lat="45.73971" lon="4.56946">
        <ele>399.472</ele>
        <time>2010-04-14T14:13:32Z</time>
      </trkpt>
      <trkpt lat="45.7395" lon="4.56921">
        <ele>401.53</ele>
        <time>2010-04-14T14:13:42Z</time>
      </trkpt>
      <trkpt lat="45.73937" lon="4.569">
        <ele>402.135</ele>
        <time>2010-04-14T14:13:49Z</time>
      </trkpt>
      <trkpt lat="45.73932" lon="4.56892">
        <ele>402.502</ele>
        <time>2010-04-14T14:13:54Z</time>
      </trkpt>
      <trkpt lat="45.73929" lon="4.56886">
        <ele>402.351</ele>
        <time>2010-04-14T14:14:57Z</time>
      </trkpt>
      <trkpt lat="45.73924" lon="4.56872">
        <ele>402.632</ele>
        <time>2010-04-14T14:15:02Z</time>
      </trkpt>
      <trkpt lat="45.73915" lon="4.56846">
        <ele>403.694</ele>
        <time>2010-04-14T14:15:09Z</time>
      </trkpt>
      <trkpt lat="45.73905" lon="4.56818">
        <ele>405.124</ele>
        <time>2010-04-14T14:15:17Z</time>
      </trkpt>
      <trkpt lat="45.73898" lon="4.56797">
        <ele>406.906</ele>
        <time>2010-04-14T14:15:23Z</time>
      </trkpt>
      <trkpt lat="45.73892" lon="4.5678">
        <ele>408.586</ele>
        <time>2010-04-14T14:15:29Z</time>
      </trkpt>
      <trkpt lat="45.73888" lon="4.5677">
        <ele>410.052</ele>
        <time>2010-04-14T14:15:33Z</time>
      </trkpt>
      <trkpt lat="45.73881" lon="4.56754">
        <ele>412.452</ele>
        <time>2010-04-14T14:15:40Z</time>
      </trkpt>
      <trkpt lat="45.73871" lon="4.56735">
        <ele>414.649</ele>
        <time>2010-04-14T14:15:49Z</time>
      </trkpt>
      <trkpt lat="45.73859" lon="4.56717">
        <ele>416.933</ele>
        <time>2010-04-14T14:15:58Z</time>
      </trkpt>
      <trkpt lat="45.73848" lon="4.567">
        <ele>419.141</ele>
        <time>2010-04-14T14:16:07Z</time>
      </trkpt>
      <trkpt lat="45.73839" lon="4.56686">
        <ele>421.069</ele>
        <time>2010-04-14T14:16:15Z</time>
      </trkpt>
      <trkpt lat="45.73828" lon="4.56672">
        <ele>422.793</ele>
        <time>2010-04-14T14:16:23Z</time>
      </trkpt>
      <trkpt lat="45.73809" lon="4.5666">
        <ele>425.446</ele>
        <time>2010-04-14T14:16:35Z</time>
      </trkpt>
      <trkpt lat="45.73797" lon="4.56646">
        <ele>427.28</ele>
        <time>2010-04-14T14:16:44Z</time>
      </trkpt>
      <trkpt lat="45.73784" lon="4.56629">
        <ele>428.893</ele>
        <time>2010-04-14T14:16:53Z</time>
      </trkpt>
      <trkpt lat="45.73771" lon="4.56615">
        <ele>430.454</ele>
        <time>2010-04-14T14:17:02Z</time>
      </trkpt>
      <trkpt lat="45.73756" lon="4.566">
        <ele>432.079</ele>
        <time>2010-04-14T14:17:12Z</time>
      </trkpt>
      <trkpt lat="45.73736" lon="4.56586">
        <ele>434.116</ele>
        <time>2010-04-14T14:17:24Z</time>
      </trkpt>
      <trkpt lat="45.73723" lon="4.56574">
        <ele>435.323</ele>
        <time>2010-04-14T14:17:32Z</time>
      </trkpt>
      <trkpt lat="45.73711" lon="4.5656">
        <ele>436.883</ele>
        <time>2010-04-14T14:17:41Z</time>
      </trkpt>
      <trkpt lat="45.73697" lon="4.56543">
        <ele>438.553</ele>
        <time>2010-04-14T14:17:51Z</time>
      </trkpt>
      <trkpt lat="45.7368" lon="4.56522">
        <ele>440.37</ele>
        <time>2010-04-14T14:18:03Z</time>
      </trkpt>
      <trkpt lat="45.73669" lon="4.56503">
        <ele>442.566</ele>
        <time>2010-04-14T14:18:12Z</time>
      </trkpt>
      <trkpt lat="45.73658" lon="4.56481">
        <ele>444.702</ele>
        <time>2010-04-14T14:18:22Z</time>
      </trkpt>
      <trkpt lat="45.73647" lon="4.56449">
        <ele>445.86</ele>
        <time>2010-04-14T14:18:34Z</time>
      </trkpt>
      <trkpt lat="45.73635" lon="4.56416">
        <ele>447.027</ele>
        <time>2010-04-14T14:18:44Z</time>
      </trkpt>
      <trkpt lat="45.7362" lon="4.56385">
        <ele>447.794</ele>
        <time>2010-04-14T14:18:54Z</time>
      </trkpt>
      <trkpt lat="45.73604" lon="4.5636">
        <ele>449.621</ele>
        <time>2010-04-14T14:19:03Z</time>
      </trkpt>
      <trkpt lat="45.73591" lon="4.5634">
        <ele>451.206</ele>
        <time>2010-04-14T14:19:12Z</time>
      </trkpt>
      <trkpt lat="45.73591" lon="4.5634">
        <ele>452.91</ele>
        <time>2010-04-14T14:19:20Z</time>
      </trkpt>
      <trkpt lat="45.73567" lon="4.56303">
        <ele>454.359</ele>
        <time>2010-04-14T14:19:27Z</time>
      </trkpt>
      <trkpt lat="45.73556" lon="4.5629">
        <ele>455.983</ele>
        <time>2010-04-14T14:19:34Z</time>
      </trkpt>
      <trkpt lat="45.73542" lon="4.5628">
        <ele>457.684</ele>
        <time>2010-04-14T14:19:42Z</time>
      </trkpt>
      <trkpt lat="45.73526" lon="4.56269">
        <ele>459.457</ele>
        <time>2010-04-14T14:19:51Z</time>
      </trkpt>
      <trkpt lat="45.73523" lon="4.56267">
        <ele>460.975</ele>
        <time>2010-04-14T14:20:00Z</time>
      </trkpt>
      <trkpt lat="45.73492" lon="4.56247">
        <ele>461.382</ele>
        <time>2010-04-14T14:20:08Z</time>
      </trkpt>
      <trkpt lat="45.73471" lon="4.56246">
        <ele>461.367</ele>
        <time>2010-04-14T14:20:15Z</time>
      </trkpt>
      <trkpt lat="45.73438" lon="4.56246">
        <ele>461.319</ele>
        <time>2010-04-14T14:20:24Z</time>
      </trkpt>
      <trkpt lat="45.7341" lon="4.5624">
        <ele>462.438</ele>
        <time>2010-04-14T14:20:32Z</time>
      </trkpt>
      <trkpt lat="45.73394" lon="4.56233">
        <ele>464.295</ele>
        <time>2010-04-14T14:20:39Z</time>
      </trkpt>
      <trkpt lat="45.73378" lon="4.56225">
        <ele>466.254</ele>
        <time>2010-04-14T14:20:47Z</time>
      </trkpt>
      <trkpt lat="45.73362" lon="4.56218">
        <ele>468.193</ele>
        <time>2010-04-14T14:20:56Z</time>
      </trkpt>
      <trkpt lat="45.7334" lon="4.56207">
        <ele>470.473</ele>
        <time>2010-04-14T14:21:07Z</time>
      </trkpt>
      <trkpt lat="45.73322" lon="4.56194">
        <ele>471.91</ele>
        <time>2010-04-14T14:21:17Z</time>
      </trkpt>
      <trkpt lat="45.73305" lon="4.56183">
        <ele>473.916</ele>
        <time>2010-04-14T14:21:26Z</time>
      </trkpt>
      <trkpt lat="45.73287" lon="4.56171">
        <ele>475.927</ele>
        <time>2010-04-14T14:21:36Z</time>
      </trkpt>
      <trkpt lat="45.73272" lon="4.56156">
        <ele>477.56</ele>
        <time>2010-04-14T14:21:45Z</time>
      </trkpt>
      <trkpt lat="45.73257" lon="4.56134">
        <ele>479.369</ele>
        <time>2010-04-14T14:21:56Z</time>
      </trkpt>
      <trkpt lat="45.73245" lon="4.56117">
        <ele>480.604</ele>
        <time>2010-04-14T14:22:04Z</time>
      </trkpt>
      <trkpt lat="45.73233" lon="4.56101">
        <ele>482.02</ele>
        <time>2010-04-14T14:22:12Z</time>
      </trkpt>
      <trkpt lat="45.73225" lon="4.5609">
        <ele>483.638</ele>
        <time>2010-04-14T14:22:18Z</time>
      </trkpt>
      <trkpt lat="45.73218" lon="4.5608">
        <ele>485.141</ele>
        <time>2010-04-14T14:22:24Z</time>
      </trkpt>
      <trkpt lat="45.73208" lon="4.56068">
        <ele>487.392</ele>
        <time>2010-04-14T14:22:32Z</time>
      </trkpt>
      <trkpt lat="45.73201" lon="4.56058">
        <ele>488.735</ele>
        <time>2010-04-14T14:22:38Z</time>
      </trkpt>
      <trkpt lat="45.73192" lon="4.56047">
        <ele>490.945</ele>
        <time>2010-04-14T14:22:46Z</time>
      </trkpt>
      <trkpt lat="45.73185" lon="4.56038">
        <ele>492.046</ele>
        <time>2010-04-14T14:22:52Z</time>
      </trkpt>
      <trkpt lat="45.73177" lon="4.56027">
        <ele>493.555</ele>
        <time>2010-04-14T14:22:59Z</time>
      </trkpt>
      <trkpt lat="45.73165" lon="4.56013">
        <ele>495.269</ele>
        <time>2010-04-14T14:23:08Z</time>
      </trkpt>
      <trkpt lat="45.73154" lon="4.56004">
        <ele>497.079</ele>
        <time>2010-04-14T14:23:17Z</time>
      </trkpt>
      <trkpt lat="45.73142" lon="4.55994">
        <ele>499.103</ele>
        <time>2010-04-14T14:23:27Z</time>
      </trkpt>
      <trkpt lat="45.73124" lon="4.5599">
        <ele>501.162</ele>
        <time>2010-04-14T14:23:37Z</time>
      </trkpt>
      <trkpt lat="45.73109" lon="4.55987">
        <ele>503.277</ele>
        <time>2010-04-14T14:23:47Z</time>
      </trkpt>
      <trkpt lat="45.7309" lon="4.55986">
        <ele>504.856</ele>
        <time>2010-04-14T14:23:56Z</time>
      </trkpt>
      <trkpt lat="45.73076" lon="4.55992">
        <ele>505.636</ele>
        <time>2010-04-14T14:24:05Z</time>
      </trkpt>
      <trkpt lat="45.73065" lon="4.55996">
        <ele>506.636</ele>
        <time>2010-04-14T14:24:13Z</time>
      </trkpt>
      <trkpt lat="45.7305" lon="4.5599">
        <ele>508.196</ele>
        <time>2010-04-14T14:24:21Z</time>
      </trkpt>
      <trkpt lat="45.73038" lon="4.5598">
        <ele>509.818</ele>
        <time>2010-04-14T14:24:29Z</time>
      </trkpt>
      <trkpt lat="45.73026" lon="4.55969">
        <ele>511.202</ele>
        <time>2010-04-14T14:24:37Z</time>
      </trkpt>
      <trkpt lat="45.73018" lon="4.55953">
        <ele>512.623</ele>
        <time>2010-04-14T14:24:44Z</time>
      </trkpt>
      <trkpt lat="45.73015" lon="4.55933">
        <ele>514.801</ele>
        <time>2010-04-14T14:24:52Z</time>
      </trkpt>
      <trkpt lat="45.73013" lon="4.55916">
        <ele>516.112</ele>
        <time>2010-04-14T14:25:00Z</time>
      </trkpt>
      <trkpt lat="45.73014" lon="4.55897">
        <ele>517.768</ele>
        <time>2010-04-14T14:25:09Z</time>
      </trkpt>
      <trkpt lat="45.73019" lon="4.5589">
        <ele>518.877</ele>
        <time>2010-04-14T14:25:16Z</time>
      </trkpt>
      <trkpt lat="45.73028" lon="4.55892">
        <ele>520.132</ele>
        <time>2010-04-14T14:25:23Z</time>
      </trkpt>
      <trkpt lat="45.73038" lon="4.55898">
        <ele>521.092</ele>
        <time>2010-04-14T14:25:30Z</time>
      </trkpt>
      <trkpt lat="45.73053" lon="4.55906">
        <ele>522.553</ele>
        <time>2010-04-14T14:25:40Z</time>
      </trkpt>
      <trkpt lat="45.73072" lon="4.55917">
        <ele>524.631</ele>
        <time>2010-04-14T14:25:52Z</time>
      </trkpt>
      <trkpt lat="45.7309" lon="4.55928">
        <ele>526.727</ele>
        <time>2010-04-14T14:26:03Z</time>
      </trkpt>
      <trkpt lat="45.73064" lon="4.55998">
        <ele>528.381</ele>
        <time>2010-04-14T14:26:12Z</time>
      </trkpt>
      <trkpt lat="45.73108" lon="4.55929">
        <ele>529.244</ele>
        <time>2010-04-14T14:26:17Z</time>
      </trkpt>
      <trkpt lat="45.7311" lon="4.55923">
        <ele>529.414</ele>
        <time>2010-04-14T14:26:19Z</time>
      </trkpt>
      <trkpt lat="45.73098" lon="4.55902">
        <ele>531.526</ele>
        <time>2010-04-14T14:26:29Z</time>
      </trkpt>
      <trkpt lat="45.73083" lon="4.55881">
        <ele>533.554</ele>
        <time>2010-04-14T14:26:41Z</time>
      </trkpt>
      <trkpt lat="45.73071" lon="4.55864">
        <ele>535.099</ele>
        <time>2010-04-14T14:26:51Z</time>
      </trkpt>
      <trkpt lat="45.7306" lon="4.55848">
        <ele>536.682</ele>
        <time>2010-04-14T14:27:00Z</time>
      </trkpt>
      <trkpt lat="45.73046" lon="4.55828">
        <ele>539.03</ele>
        <time>2010-04-14T14:27:11Z</time>
      </trkpt>
      <trkpt lat="45.73033" lon="4.55806">
        <ele>541.378</ele>
        <time>2010-04-14T14:27:22Z</time>
      </trkpt>
      <trkpt lat="45.73023" lon="4.55786">
        <ele>543.209</ele>
        <time>2010-04-14T14:27:32Z</time>
      </trkpt>
      <trkpt lat="45.73013" lon="4.55765">
        <ele>545.414</ele>
        <time>2010-04-14T14:27:42Z</time>
      </trkpt>
      <trkpt lat="45.73002" lon="4.5574">
        <ele>547.621</ele>
        <time>2010-04-14T14:27:54Z</time>
      </trkpt>
      <trkpt lat="45.72993" lon="4.55722">
        <ele>549.199</ele>
        <time>2010-04-14T14:28:03Z</time>
      </trkpt>
      <trkpt lat="45.72985" lon="4.55705">
        <ele>550.671</ele>
        <time>2010-04-14T14:28:11Z</time>
      </trkpt>
      <trkpt lat="45.72978" lon="4.55689">
        <ele>552.325</ele>
        <time>2010-04-14T14:28:19Z</time>
      </trkpt>
      <trkpt lat="45.72969" lon="4.5567">
        <ele>554.31</ele>
        <time>2010-04-14T14:28:29Z</time>
      </trkpt>
      <trkpt lat="45.7296" lon="4.55651">
        <ele>555.717</ele>
        <time>2010-04-14T14:28:39Z</time>
      </trkpt>
      <trkpt lat="45.72952" lon="4.55633">
        <ele>557.404</ele>
        <time>2010-04-14T14:28:48Z</time>
      </trkpt>
      <trkpt lat="45.72942" lon="4.55614">
        <ele>559.168</ele>
        <time>2010-04-14T14:28:58Z</time>
      </trkpt>
      <trkpt lat="45.7293" lon="4.55607">
        <ele>560.631</ele>
        <time>2010-04-14T14:29:06Z</time>
      </trkpt>
      <trkpt lat="45.72916" lon="4.55597">
        <ele>562.752</ele>
        <time>2010-04-14T14:29:16Z</time>
      </trkpt>
      <trkpt lat="45.72899" lon="4.55587">
        <ele>564.831</ele>
        <time>2010-04-14T14:29:27Z</time>
      </trkpt>
      <trkpt lat="45.72885" lon="4.55589">
        <ele>566.371</ele>
        <time>2010-04-14T14:29:35Z</time>
      </trkpt>
      <trkpt lat="45.72872" lon="4.55593">
        <ele>567.92</ele>
        <time>2010-04-14T14:29:43Z</time>
      </trkpt>
      <trkpt lat="45.72865" lon="4.55611">
        <ele>569.271</ele>
        <time>2010-04-14T14:29:51Z</time>
      </trkpt>
      <trkpt lat="45.72857" lon="4.55633">
        <ele>571.478</ele>
        <time>2010-04-14T14:30:00Z</time>
      </trkpt>
      <trkpt lat="45.72844" lon="4.5564">
        <ele>573.322</ele>
        <time>2010-04-14T14:30:08Z</time>
      </trkpt>
      <trkpt lat="45.72831" lon="4.55647">
        <ele>574.945</ele>
        <time>2010-04-14T14:30:17Z</time>
      </trkpt>
      <trkpt lat="45.72818" lon="4.55656">
        <ele>576.4</ele>
        <time>2010-04-14T14:30:27Z</time>
      </trkpt>
      <trkpt lat="45.7281" lon="4.55673">
        <ele>578.419</ele>
        <time>2010-04-14T14:30:36Z</time>
      </trkpt>
      <trkpt lat="45.72802" lon="4.5569">
        <ele>579.895</ele>
        <time>2010-04-14T14:30:45Z</time>
      </trkpt>
      <trkpt lat="45.72796" lon="4.55701">
        <ele>581.394</ele>
        <time>2010-04-14T14:30:52Z</time>
      </trkpt>
      <trkpt lat="45.72785" lon="4.55707">
        <ele>583.22</ele>
        <time>2010-04-14T14:31:01Z</time>
      </trkpt>
      <trkpt lat="45.72771" lon="4.55712">
        <ele>585.041</ele>
        <time>2010-04-14T14:31:11Z</time>
      </trkpt>
      <trkpt lat="45.72759" lon="4.55715">
        <ele>585.968</ele>
        <time>2010-04-14T14:31:19Z</time>
      </trkpt>
      <trkpt lat="45.72746" lon="4.55718">
        <ele>587.281</ele>
        <time>2010-04-14T14:31:27Z</time>
      </trkpt>
      <trkpt lat="45.72732" lon="4.55722">
        <ele>589.063</ele>
        <time>2010-04-14T14:31:36Z</time>
      </trkpt>
      <trkpt lat="45.72713" lon="4.55727">
        <ele>591.405</ele>
        <time>2010-04-14T14:31:48Z</time>
      </trkpt>
      <trkpt lat="45.72698" lon="4.55731">
        <ele>593.443</ele>
        <time>2010-04-14T14:31:58Z</time>
      </trkpt>
      <trkpt lat="45.72683" lon="4.55735">
        <ele>595.017</ele>
        <time>2010-04-14T14:32:08Z</time>
      </trkpt>
      <trkpt lat="45.72669" lon="4.55744">
        <ele>596.651</ele>
        <time>2010-04-14T14:32:17Z</time>
      </trkpt>
      <trkpt lat="45.72654" lon="4.55754">
        <ele>598.519</ele>
        <time>2010-04-14T14:32:27Z</time>
      </trkpt>
      <trkpt lat="45.7264" lon="4.55765">
        <ele>600.31</ele>
        <time>2010-04-14T14:32:37Z</time>
      </trkpt>
      <trkpt lat="45.72626" lon="4.55775">
        <ele>601.601</ele>
        <time>2010-04-14T14:32:45Z</time>
      </trkpt>
      <trkpt lat="45.72609" lon="4.55786">
        <ele>603.723</ele>
        <time>2010-04-14T14:32:55Z</time>
      </trkpt>
      <trkpt lat="45.72607" lon="4.55784">
        <ele>605.564</ele>
        <time>2010-04-14T14:33:01Z</time>
      </trkpt>
      <trkpt lat="45.72605" lon="4.5578">
        <ele>605.989</ele>
        <time>2010-04-14T14:33:04Z</time>
      </trkpt>
      <trkpt lat="45.7261" lon="4.55764">
        <ele>607.303</ele>
        <time>2010-04-14T14:33:12Z</time>
      </trkpt>
      <trkpt lat="45.72618" lon="4.5575">
        <ele>608.695</ele>
        <time>2010-04-14T14:33:20Z</time>
      </trkpt>
      <trkpt lat="45.72624" lon="4.55741">
        <ele>609.964</ele>
        <time>2010-04-14T14:33:27Z</time>
      </trkpt>
      <trkpt lat="45.7263" lon="4.55731">
        <ele>611.723</ele>
        <time>2010-04-14T14:33:37Z</time>
      </trkpt>
      <trkpt lat="45.72643" lon="4.55703">
        <ele>613.524</ele>
        <time>2010-04-14T14:33:47Z</time>
      </trkpt>
      <trkpt lat="45.72651" lon="4.55686">
        <ele>615.167</ele>
        <time>2010-04-14T14:33:56Z</time>
      </trkpt>
      <trkpt lat="45.72658" lon="4.5567">
        <ele>616.627</ele>
        <time>2010-04-14T14:34:04Z</time>
      </trkpt>
      <trkpt lat="45.72665" lon="4.55655">
        <ele>617.292</ele>
        <time>2010-04-14T14:34:12Z</time>
      </trkpt>
      <trkpt lat="45.72673" lon="4.55637">
        <ele>619.019</ele>
        <time>2010-04-14T14:34:21Z</time>
      </trkpt>
      <trkpt lat="45.72681" lon="4.55621">
        <ele>620.46</ele>
        <time>2010-04-14T14:34:29Z</time>
      </trkpt>
      <trkpt lat="45.72682" lon="4.55619">
        <ele>622.06</ele>
        <time>2010-04-14T14:34:38Z</time>
      </trkpt>
      <trkpt lat="45.72697" lon="4.55588">
        <ele>623.53</ele>
        <time>2010-04-14T14:34:47Z</time>
      </trkpt>
      <trkpt lat="45.72705" lon="4.55572">
        <ele>624.86</ele>
        <time>2010-04-14T14:34:56Z</time>
      </trkpt>
      <trkpt lat="45.72709" lon="4.55551">
        <ele>626.14</ele>
        <time>2010-04-14T14:35:06Z</time>
      </trkpt>
      <trkpt lat="45.72712" lon="4.55523">
        <ele>628.495</ele>
        <time>2010-04-14T14:35:17Z</time>
      </trkpt>
      <trkpt lat="45.72714" lon="4.55504">
        <ele>630.103</ele>
        <time>2010-04-14T14:35:25Z</time>
      </trkpt>
      <trkpt lat="45.72716" lon="4.55491">
        <ele>632.087</ele>
        <time>2010-04-14T14:35:31Z</time>
      </trkpt>
      <trkpt lat="45.72708" lon="4.55489">
        <ele>632.942</ele>
        <time>2010-04-14T14:35:37Z</time>
      </trkpt>
      <trkpt lat="45.72693" lon="4.55495">
        <ele>634.5</ele>
        <time>2010-04-14T14:35:45Z</time>
      </trkpt>
      <trkpt lat="45.72683" lon="4.55513">
        <ele>636.479</ele>
        <time>2010-04-14T14:35:54Z</time>
      </trkpt>
      <trkpt lat="45.72674" lon="4.55531">
        <ele>637.743</ele>
        <time>2010-04-14T14:36:04Z</time>
      </trkpt>
      <trkpt lat="45.72664" lon="4.55544">
        <ele>639.007</ele>
        <time>2010-04-14T14:36:13Z</time>
      </trkpt>
      <trkpt lat="45.72648" lon="4.55563">
        <ele>641.032</ele>
        <time>2010-04-14T14:36:25Z</time>
      </trkpt>
      <trkpt lat="45.72637" lon="4.55578">
        <ele>642.573</ele>
        <time>2010-04-14T14:36:34Z</time>
      </trkpt>
      <trkpt lat="45.72626" lon="4.55591">
        <ele>644.743</ele>
        <time>2010-04-14T14:36:42Z</time>
      </trkpt>
      <trkpt lat="45.72617" lon="4.55601">
        <ele>645.965</ele>
        <time>2010-04-14T14:36:49Z</time>
      </trkpt>
      <trkpt lat="45.72606" lon="4.55612">
        <ele>647.675</ele>
        <time>2010-04-14T14:36:58Z</time>
      </trkpt>
      <trkpt lat="45.72594" lon="4.55621">
        <ele>649.398</ele>
        <time>2010-04-14T14:37:07Z</time>
      </trkpt>
      <trkpt lat="45.72585" lon="4.55628">
        <ele>650.979</ele>
        <time>2010-04-14T14:37:15Z</time>
      </trkpt>
      <trkpt lat="45.72574" lon="4.55637">
        <ele>652.747</ele>
        <time>2010-04-14T14:37:23Z</time>
      </trkpt>
      <trkpt lat="45.72561" lon="4.55647">
        <ele>653.436</ele>
        <time>2010-04-14T14:37:31Z</time>
      </trkpt>
      <trkpt lat="45.72552" lon="4.55651">
        <ele>655.08</ele>
        <time>2010-04-14T14:37:38Z</time>
      </trkpt>
      <trkpt lat="45.72546" lon="4.55653">
        <ele>655.836</ele>
        <time>2010-04-14T14:37:42Z</time>
      </trkpt>
      <trkpt lat="45.72535" lon="4.55657">
        <ele>657.956</ele>
        <time>2010-04-14T14:37:50Z</time>
      </trkpt>
      <trkpt lat="45.72523" lon="4.55661">
        <ele>659.987</ele>
        <time>2010-04-14T14:37:59Z</time>
      </trkpt>
      <trkpt lat="45.72508" lon="4.55666">
        <ele>662.462</ele>
        <time>2010-04-14T14:38:10Z</time>
      </trkpt>
      <trkpt lat="45.72497" lon="4.55669">
        <ele>663.682</ele>
        <time>2010-04-14T14:38:17Z</time>
      </trkpt>
      <trkpt lat="45.72487" lon="4.55673">
        <ele>665.792</ele>
        <time>2010-04-14T14:38:25Z</time>
      </trkpt>
      <trkpt lat="45.72474" lon="4.55677">
        <ele>667.317</ele>
        <time>2010-04-14T14:38:34Z</time>
      </trkpt>
      <trkpt lat="45.72462" lon="4.55681">
        <ele>669.133</ele>
        <time>2010-04-14T14:38:42Z</time>
      </trkpt>
      <trkpt lat="45.72447" lon="4.55686">
        <ele>671.756</ele>
        <time>2010-04-14T14:38:52Z</time>
      </trkpt>
      <trkpt lat="45.72435" lon="4.5569">
        <ele>673.994</ele>
        <time>2010-04-14T14:39:00Z</time>
      </trkpt>
      <trkpt lat="45.72428" lon="4.55692">
        <ele>675.533</ele>
        <time>2010-04-14T14:39:06Z</time>
      </trkpt>
      <trkpt lat="45.72423" lon="4.55712">
        <ele>676.005</ele>
        <time>2010-04-14T14:39:09Z</time>
      </trkpt>
      <trkpt lat="45.72428" lon="4.55692">
        <ele>677.782</ele>
        <time>2010-04-14T14:39:18Z</time>
      </trkpt>
      <trkpt lat="45.72449" lon="4.55685">
        <ele>678.999</ele>
        <time>2010-04-14T14:39:27Z</time>
      </trkpt>
      <trkpt lat="45.7246" lon="4.55682">
        <ele>679.387</ele>
        <time>2010-04-14T14:39:34Z</time>
      </trkpt>
      <trkpt lat="45.72468" lon="4.55679">
        <ele>679.989</ele>
        <time>2010-04-14T14:39:39Z</time>
      </trkpt>
      <trkpt lat="45.72482" lon="4.55674">
        <ele>681.05</ele>
        <time>2010-04-14T14:39:47Z</time>
      </trkpt>
      <trkpt lat="45.72496" lon="4.5567">
        <ele>682.452</ele>
        <time>2010-04-14T14:39:54Z</time>
      </trkpt>
      <trkpt lat="45.72505" lon="4.55667">
        <ele>683.774</ele>
        <time>2010-04-14T14:40:00Z</time>
      </trkpt>
      <trkpt lat="45.72513" lon="4.55664">
        <ele>684.856</ele>
        <time>2010-04-14T14:40:06Z</time>
      </trkpt>
      <trkpt lat="45.72505" lon="4.55597">
        <ele>686.125</ele>
        <time>2010-04-14T14:40:14Z</time>
      </trkpt>
      <trkpt lat="45.72512" lon="4.55585">
        <ele>687.509</ele>
        <time>2010-04-14T14:40:22Z</time>
      </trkpt>
      <trkpt lat="45.7252" lon="4.55566">
        <ele>689.084</ele>
        <time>2010-04-14T14:40:31Z</time>
      </trkpt>
      <trkpt lat="45.72527" lon="4.5555">
        <ele>690.614</ele>
        <time>2010-04-14T14:40:39Z</time>
      </trkpt>
      <trkpt lat="45.72536" lon="4.5553">
        <ele>691.682</ele>
        <time>2010-04-14T14:40:48Z</time>
      </trkpt>
      <trkpt lat="45.72545" lon="4.5551">
        <ele>693.664</ele>
        <time>2010-04-14T14:40:57Z</time>
      </trkpt>
      <trkpt lat="45.72554" lon="4.5549">
        <ele>695.666</ele>
        <time>2010-04-14T14:41:06Z</time>
      </trkpt>
      <trkpt lat="45.72556" lon="4.55472">
        <ele>697.058</ele>
        <time>2010-04-14T14:41:16Z</time>
      </trkpt>
      <trkpt lat="45.72555" lon="4.5546">
        <ele>698.127</ele>
        <time>2010-04-14T14:41:24Z</time>
      </trkpt>
      <trkpt lat="45.72553" lon="4.55445">
        <ele>699.881</ele>
        <time>2010-04-14T14:41:32Z</time>
      </trkpt>
      <trkpt lat="45.72561" lon="4.55417">
        <ele>700.788</ele>
        <time>2010-04-14T14:41:38Z</time>
      </trkpt>
      <trkpt lat="45.7257" lon="4.55405">
        <ele>702.346</ele>
        <time>2010-04-14T14:41:46Z</time>
      </trkpt>
      <trkpt lat="45.72574" lon="4.55388">
        <ele>703.952</ele>
        <time>2010-04-14T14:41:55Z</time>
      </trkpt>
      <trkpt lat="45.72571" lon="4.55372">
        <ele>705.029</ele>
        <time>2010-04-14T14:42:01Z</time>
      </trkpt>
      <trkpt lat="45.72566" lon="4.55345">
        <ele>706.97</ele>
        <time>2010-04-14T14:42:11Z</time>
      </trkpt>
      <trkpt lat="45.72562" lon="4.55326">
        <ele>708.667</ele>
        <time>2010-04-14T14:42:19Z</time>
      </trkpt>
      <trkpt lat="45.72561" lon="4.55323">
        <ele>709.526</ele>
        <time>2010-04-14T14:42:27Z</time>
      </trkpt>
      <trkpt lat="45.72548" lon="4.55296">
        <ele>711.293</ele>
        <time>2010-04-14T14:42:34Z</time>
      </trkpt>
      <trkpt lat="45.72538" lon="4.55276">
        <ele>712.6</ele>
        <time>2010-04-14T14:42:44Z</time>
      </trkpt>
      <trkpt lat="45.72525" lon="4.55258">
        <ele>714.119</ele>
        <time>2010-04-14T14:42:54Z</time>
      </trkpt>
      <trkpt lat="45.72511" lon="4.55238">
        <ele>715.869</ele>
        <time>2010-04-14T14:43:05Z</time>
      </trkpt>
      <trkpt lat="45.72494" lon="4.55226">
        <ele>717.104</ele>
        <time>2010-04-14T14:43:15Z</time>
      </trkpt>
      <trkpt lat="45.72479" lon="4.55214">
        <ele>718.382</ele>
        <time>2010-04-14T14:43:24Z</time>
      </trkpt>
      <trkpt lat="45.72466" lon="4.55207">
        <ele>719.867</ele>
        <time>2010-04-14T14:43:32Z</time>
      </trkpt>
      <trkpt lat="45.72453" lon="4.552">
        <ele>720.927</ele>
        <time>2010-04-14T14:43:40Z</time>
      </trkpt>
      <trkpt lat="45.72446" lon="4.55197">
        <ele>721.986</ele>
        <time>2010-04-14T14:43:45Z</time>
      </trkpt>
      <trkpt lat="45.72428" lon="4.55188">
        <ele>723.224</ele>
        <time>2010-04-14T14:43:54Z</time>
      </trkpt>
      <trkpt lat="45.72412" lon="4.55178">
        <ele>724.531</ele>
        <time>2010-04-14T14:44:02Z</time>
      </trkpt>
      <trkpt lat="45.72394" lon="4.5516">
        <ele>726.507</ele>
        <time>2010-04-14T14:44:12Z</time>
      </trkpt>
      <trkpt lat="45.72377" lon="4.55148">
        <ele>727.982</ele>
        <time>2010-04-14T14:44:21Z</time>
      </trkpt>
      <trkpt lat="45.72365" lon="4.55141">
        <ele>729.739</ele>
        <time>2010-04-14T14:44:28Z</time>
      </trkpt>
      <trkpt lat="45.7235" lon="4.55134">
        <ele>730.592</ele>
        <time>2010-04-14T14:44:36Z</time>
      </trkpt>
      <trkpt lat="45.72337" lon="4.5513">
        <ele>732</ele>
        <time>2010-04-14T14:44:43Z</time>
      </trkpt>
      <trkpt lat="45.72325" lon="4.55127">
        <ele>732.812</ele>
        <time>2010-04-14T14:44:49Z</time>
      </trkpt>
      <trkpt lat="45.72307" lon="4.55123">
        <ele>734.36</ele>
        <time>2010-04-14T14:44:58Z</time>
      </trkpt>
      <trkpt lat="45.72291" lon="4.55124">
        <ele>735.905</ele>
        <time>2010-04-14T14:45:07Z</time>
      </trkpt>
      <trkpt lat="45.72274" lon="4.55127">
        <ele>737.221</ele>
        <time>2010-04-14T14:45:16Z</time>
      </trkpt>
      <trkpt lat="45.72251" lon="4.5513">
        <ele>738.902</ele>
        <time>2010-04-14T14:45:27Z</time>
      </trkpt>
      <trkpt lat="45.72231" lon="4.5512">
        <ele>741.61</ele>
        <time>2010-04-14T14:45:38Z</time>
      </trkpt>
      <trkpt lat="45.72229" lon="4.55119">
        <ele>741.663</ele>
        <time>2010-04-14T14:45:39Z</time>
      </trkpt>
      <trkpt lat="45.7222" lon="4.55121">
        <ele>742.631</ele>
        <time>2010-04-14T14:45:45Z</time>
      </trkpt>
      <trkpt lat="45.72222" lon="4.5513">
        <ele>742.551</ele>
        <time>2010-04-14T14:45:47Z</time>
      </trkpt>
      <trkpt lat="45.72238" lon="4.55142">
        <ele>743.393</ele>
        <time>2010-04-14T14:45:56Z</time>
      </trkpt>
      <trkpt lat="45.72254" lon="4.55148">
        <ele>744.125</ele>
        <time>2010-04-14T14:46:04Z</time>
      </trkpt>
      <trkpt lat="45.72275" lon="4.55155">
        <ele>745.195</ele>
        <time>2010-04-14T14:46:13Z</time>
      </trkpt>
      <trkpt lat="45.72295" lon="4.55162">
        <ele>746.237</ele>
        <time>2010-04-14T14:46:22Z</time>
      </trkpt>
      <trkpt lat="45.72309" lon="4.5517">
        <ele>747.078</ele>
        <time>2010-04-14T14:46:28Z</time>
      </trkpt>
      <trkpt lat="45.72325" lon="4.55179">
        <ele>747.949</ele>
        <time>2010-04-14T14:46:35Z</time>
      </trkpt>
      <trkpt lat="45.72339" lon="4.55191">
        <ele>748.329</ele>
        <time>2010-04-14T14:46:41Z</time>
      </trkpt>
      <trkpt lat="45.72352" lon="4.55204">
        <ele>749.44</ele>
        <time>2010-04-14T14:46:47Z</time>
      </trkpt>
      <trkpt lat="45.72367" lon="4.55228">
        <ele>750.373</ele>
        <time>2010-04-14T14:46:55Z</time>
      </trkpt>
      <trkpt lat="45.72377" lon="4.55248">
        <ele>751.601</ele>
        <time>2010-04-14T14:47:01Z</time>
      </trkpt>
      <trkpt lat="45.72388" lon="4.55269">
        <ele>751.986</ele>
        <time>2010-04-14T14:47:08Z</time>
      </trkpt>
      <trkpt lat="45.72398" lon="4.55287">
        <ele>752.968</ele>
        <time>2010-04-14T14:47:14Z</time>
      </trkpt>
      <trkpt lat="45.72408" lon="4.55306">
        <ele>753.875</ele>
        <time>2010-04-14T14:47:20Z</time>
      </trkpt>
      <trkpt lat="45.72418" lon="4.55325">
        <ele>755.005</ele>
        <time>2010-04-14T14:47:26Z</time>
      </trkpt>
      <trkpt lat="45.72426" lon="4.55353">
        <ele>755.86</ele>
        <time>2010-04-14T14:47:33Z</time>
      </trkpt>
      <trkpt lat="45.72424" lon="4.55386">
        <ele>756.691</ele>
        <time>2010-04-14T14:47:40Z</time>
      </trkpt>
      <trkpt lat="45.7241" lon="4.55431">
        <ele>758.381</ele>
        <time>2010-04-14T14:47:51Z</time>
      </trkpt>
      <trkpt lat="45.72394" lon="4.55453">
        <ele>759.718</ele>
        <time>2010-04-14T14:47:59Z</time>
      </trkpt>
      <trkpt lat="45.72377" lon="4.55475">
        <ele>760.901</ele>
        <time>2010-04-14T14:48:07Z</time>
      </trkpt>
      <trkpt lat="45.72355" lon="4.55482">
        <ele>762.107</ele>
        <time>2010-04-14T14:48:16Z</time>
      </trkpt>
      <trkpt lat="45.72324" lon="4.55493">
        <ele>763.758</ele>
        <time>2010-04-14T14:48:28Z</time>
      </trkpt>
      <trkpt lat="45.72306" lon="4.55498">
        <ele>764.915</ele>
        <time>2010-04-14T14:48:35Z</time>
      </trkpt>
      <trkpt lat="45.72285" lon="4.55508">
        <ele>765.898</ele>
        <time>2010-04-14T14:48:43Z</time>
      </trkpt>
      <trkpt lat="45.72257" lon="4.55527">
        <ele>767.212</ele>
        <time>2010-04-14T14:48:53Z</time>
      </trkpt>
      <trkpt lat="45.72244" lon="4.55536">
        <ele>767.724</ele>
        <time>2010-04-14T14:48:58Z</time>
      </trkpt>
      <trkpt lat="45.7223" lon="4.55551">
        <ele>768.81</ele>
        <time>2010-04-14T14:49:04Z</time>
      </trkpt>
      <trkpt lat="45.72218" lon="4.5557">
        <ele>769.502</ele>
        <time>2010-04-14T14:49:10Z</time>
      </trkpt>
      <trkpt lat="45.7221" lon="4.55589">
        <ele>770.469</ele>
        <time>2010-04-14T14:49:15Z</time>
      </trkpt>
      <trkpt lat="45.72203" lon="4.55616">
        <ele>771.369</ele>
        <time>2010-04-14T14:49:22Z</time>
      </trkpt>
      <trkpt lat="45.72199" lon="4.55637">
        <ele>772.478</ele>
        <time>2010-04-14T14:49:28Z</time>
      </trkpt>
      <trkpt lat="45.72194" lon="4.55666">
        <ele>773.865</ele>
        <time>2010-04-14T14:49:36Z</time>
      </trkpt>
      <trkpt lat="45.72187" lon="4.55703">
        <ele>775.133</ele>
        <time>2010-04-14T14:49:45Z</time>
      </trkpt>
      <trkpt lat="45.72182" lon="4.55731">
        <ele>776.076</ele>
        <time>2010-04-14T14:49:52Z</time>
      </trkpt>
      <trkpt lat="45.72178" lon="4.55755">
        <ele>776.881</ele>
        <time>2010-04-14T14:49:58Z</time>
      </trkpt>
      <trkpt lat="45.72175" lon="4.5578">
        <ele>777.828</ele>
        <time>2010-04-14T14:50:04Z</time>
      </trkpt>
      <trkpt lat="45.72175" lon="4.55802">
        <ele>778.89</ele>
        <time>2010-04-14T14:50:09Z</time>
      </trkpt>
      <trkpt lat="45.72175" lon="4.55832">
        <ele>779.578</ele>
        <time>2010-04-14T14:50:16Z</time>
      </trkpt>
      <trkpt lat="45.72175" lon="4.55859">
        <ele>780.969</ele>
        <time>2010-04-14T14:50:22Z</time>
      </trkpt>
      <trkpt lat="45.72175" lon="4.55875">
        <ele>781.66</ele>
        <time>2010-04-14T14:50:26Z</time>
      </trkpt>
      <trkpt lat="45.72179" lon="4.55899">
        <ele>782.729</ele>
        <time>2010-04-14T14:50:32Z</time>
      </trkpt>
      <trkpt lat="45.72183" lon="4.55929">
        <ele>783.491</ele>
        <time>2010-04-14T14:50:39Z</time>
      </trkpt>
      <trkpt lat="45.72187" lon="4.55958">
        <ele>784.415</ele>
        <time>2010-04-14T14:50:46Z</time>
      </trkpt>
      <trkpt lat="45.72191" lon="4.5598">
        <ele>784.86</ele>
        <time>2010-04-14T14:50:51Z</time>
      </trkpt>
      <trkpt lat="45.72198" lon="4.5601">
        <ele>786.382</ele>
        <time>2010-04-14T14:50:58Z</time>
      </trkpt>
      <trkpt lat="45.72203" lon="4.56031">
        <ele>787.472</ele>
        <time>2010-04-14T14:51:03Z</time>
      </trkpt>
      <trkpt lat="45.72211" lon="4.56063">
        <ele>788.331</ele>
        <time>2010-04-14T14:51:11Z</time>
      </trkpt>
      <trkpt lat="45.72217" lon="4.56099">
        <ele>789.27</ele>
        <time>2010-04-14T14:51:19Z</time>
      </trkpt>
      <trkpt lat="45.7221" lon="4.56128">
        <ele>790.562</ele>
        <time>2010-04-14T14:51:27Z</time>
      </trkpt>
      <trkpt lat="45.72204" lon="4.5616">
        <ele>792.005</ele>
        <time>2010-04-14T14:51:35Z</time>
      </trkpt>
      <trkpt lat="45.72198" lon="4.56187">
        <ele>793.156</ele>
        <time>2010-04-14T14:51:42Z</time>
      </trkpt>
      <trkpt lat="45.72181" lon="4.56216">
        <ele>794.563</ele>
        <time>2010-04-14T14:51:51Z</time>
      </trkpt>
      <trkpt lat="45.72163" lon="4.5624">
        <ele>795.807</ele>
        <time>2010-04-14T14:51:59Z</time>
      </trkpt>
      <trkpt lat="45.72154" lon="4.56254">
        <ele>796.448</ele>
        <time>2010-04-14T14:52:04Z</time>
      </trkpt>
      <trkpt lat="45.72142" lon="4.5627">
        <ele>796.676</ele>
        <time>2010-04-14T14:52:10Z</time>
      </trkpt>
      <trkpt lat="45.72125" lon="4.56305">
        <ele>796.724</ele>
        <time>2010-04-14T14:52:18Z</time>
      </trkpt>
      <trkpt lat="45.72121" lon="4.56315">
        <ele>799.243</ele>
        <time>2010-04-14T14:52:21Z</time>
      </trkpt>
      <trkpt lat="45.7211" lon="4.56341">
        <ele>800.204</ele>
        <time>2010-04-14T14:52:28Z</time>
      </trkpt>
      <trkpt lat="45.72105" lon="4.56371">
        <ele>801.765</ele>
        <time>2010-04-14T14:52:34Z</time>
      </trkpt>
      <trkpt lat="45.72101" lon="4.56392">
        <ele>802.349</ele>
        <time>2010-04-14T14:52:39Z</time>
      </trkpt>
      <trkpt lat="45.72098" lon="4.56414">
        <ele>803.051</ele>
        <time>2010-04-14T14:52:44Z</time>
      </trkpt>
      <trkpt lat="45.72093" lon="4.56455">
        <ele>804.471</ele>
        <time>2010-04-14T14:52:52Z</time>
      </trkpt>
      <trkpt lat="45.72091" lon="4.56478">
        <ele>805.251</ele>
        <time>2010-04-14T14:52:57Z</time>
      </trkpt>
      <trkpt lat="45.7209" lon="4.56502">
        <ele>806.271</ele>
        <time>2010-04-14T14:53:02Z</time>
      </trkpt>
      <trkpt lat="45.72088" lon="4.56542">
        <ele>807.597</ele>
        <time>2010-04-14T14:53:10Z</time>
      </trkpt>
      <trkpt lat="45.72086" lon="4.56581">
        <ele>809.092</ele>
        <time>2010-04-14T14:53:18Z</time>
      </trkpt>
      <trkpt lat="45.72082" lon="4.56631">
        <ele>811.226</ele>
        <time>2010-04-14T14:53:28Z</time>
      </trkpt>
      <trkpt lat="45.72077" lon="4.56681">
        <ele>813.372</ele>
        <time>2010-04-14T14:53:38Z</time>
      </trkpt>
      <trkpt lat="45.72073" lon="4.5673">
        <ele>814.722</ele>
        <time>2010-04-14T14:53:47Z</time>
      </trkpt>
      <trkpt lat="45.72077" lon="4.56764">
        <ele>816.177</ele>
        <time>2010-04-14T14:53:54Z</time>
      </trkpt>
      <trkpt lat="45.72081" lon="4.56791">
        <ele>817.128</ele>
        <time>2010-04-14T14:54:01Z</time>
      </trkpt>
      <trkpt lat="45.72081" lon="4.56791">
        <ele>817.222</ele>
        <time>2010-04-14T14:54:06Z</time>
      </trkpt>
      <trkpt lat="45.72081" lon="4.56791">
        <ele>817.115</ele>
        <time>2010-04-14T14:55:40Z</time>
      </trkpt>
      <trkpt lat="45.72081" lon="4.56791">
        <ele>817.225</ele>
        <time>2010-04-14T14:55:41Z</time>
      </trkpt>
      <trkpt lat="45.72081" lon="4.56791">
        <ele>817.386</ele>
        <time>2010-04-14T14:55:42Z</time>
      </trkpt>
      <trkpt lat="45.72081" lon="4.56791">
        <ele>817.164</ele>
        <time>2010-04-14T14:55:49Z</time>
      </trkpt>
      <trkpt lat="45.72091" lon="4.5684">
        <ele>817.643</ele>
        <time>2010-04-14T14:55:53Z</time>
      </trkpt>
      <trkpt lat="45.72091" lon="4.56842">
        <ele>817.651</ele>
        <time>2010-04-14T14:55:55Z</time>
      </trkpt>
      <trkpt lat="45.72091" lon="4.56842">
        <ele>818.198</ele>
        <time>2010-04-14T14:56:03Z</time>
      </trkpt>
      <trkpt lat="45.72091" lon="4.56842">
        <ele>817.766</ele>
        <time>2010-04-14T14:56:14Z</time>
      </trkpt>
      <trkpt lat="45.72091" lon="4.56842">
        <ele>817.858</ele>
        <time>2010-04-14T14:56:15Z</time>
      </trkpt>
      <trkpt lat="45.72089" lon="4.56825">
        <ele>817.955</ele>
        <time>2010-04-14T14:56:55Z</time>
      </trkpt>
      <trkpt lat="45.72089" lon="4.56825">
        <ele>817.966</ele>
        <time>2010-04-14T14:56:56Z</time>
      </trkpt>
      <trkpt lat="45.7209" lon="4.56832">
        <ele>817.83</ele>
        <time>2010-04-14T14:59:17Z</time>
      </trkpt>
      <trkpt lat="45.72074" lon="4.56843">
        <ele>817.027</ele>
        <time>2010-04-14T14:59:47Z</time>
      </trkpt>
      <trkpt lat="45.72068" lon="4.56872">
        <ele>815.494</ele>
        <time>2010-04-14T14:59:52Z</time>
      </trkpt>
      <trkpt lat="45.72062" lon="4.569">
        <ele>814.4</ele>
        <time>2010-04-14T14:59:56Z</time>
      </trkpt>
      <trkpt lat="45.72055" lon="4.5696">
        <ele>812.359</ele>
        <time>2010-04-14T15:00:03Z</time>
      </trkpt>
      <trkpt lat="45.72059" lon="4.57001">
        <ele>808.823</ele>
        <time>2010-04-14T15:00:10Z</time>
      </trkpt>
      <trkpt lat="45.72046" lon="4.571">
        <ele>805.621</ele>
        <time>2010-04-14T15:00:16Z</time>
      </trkpt>
      <trkpt lat="45.72038" lon="4.57147">
        <ele>803.153</ele>
        <time>2010-04-14T15:00:20Z</time>
      </trkpt>
      <trkpt lat="45.72014" lon="4.57198">
        <ele>801.725</ele>
        <time>2010-04-14T15:00:25Z</time>
      </trkpt>
      <trkpt lat="45.7198" lon="4.5725">
        <ele>799.318</ele>
        <time>2010-04-14T15:00:31Z</time>
      </trkpt>
      <trkpt lat="45.71969" lon="4.5727">
        <ele>798.533</ele>
        <time>2010-04-14T15:00:33Z</time>
      </trkpt>
      <trkpt lat="45.71953" lon="4.57303">
        <ele>796.841</ele>
        <time>2010-04-14T15:00:36Z</time>
      </trkpt>
      <trkpt lat="45.71943" lon="4.57354">
        <ele>795.225</ele>
        <time>2010-04-14T15:00:40Z</time>
      </trkpt>
      <trkpt lat="45.71944" lon="4.57367">
        <ele>794.715</ele>
        <time>2010-04-14T15:00:41Z</time>
      </trkpt>
      <trkpt lat="45.71948" lon="4.57393">
        <ele>793.528</ele>
        <time>2010-04-14T15:00:43Z</time>
      </trkpt>
      <trkpt lat="45.71955" lon="4.57447">
        <ele>791.828</ele>
        <time>2010-04-14T15:00:47Z</time>
      </trkpt>
      <trkpt lat="45.71956" lon="4.57484">
        <ele>790.435</ele>
        <time>2010-04-14T15:00:50Z</time>
      </trkpt>
      <trkpt lat="45.71948" lon="4.57499">
        <ele>789.007</ele>
        <time>2010-04-14T15:00:52Z</time>
      </trkpt>
      <trkpt lat="45.71934" lon="4.57498">
        <ele>787.451</ele>
        <time>2010-04-14T15:00:54Z</time>
      </trkpt>
      <trkpt lat="45.71927" lon="4.57492">
        <ele>787.25</ele>
        <time>2010-04-14T15:00:55Z</time>
      </trkpt>
      <trkpt lat="45.71886" lon="4.57434">
        <ele>783.961</ele>
        <time>2010-04-14T15:01:02Z</time>
      </trkpt>
      <trkpt lat="45.71873" lon="4.57415">
        <ele>782.866</ele>
        <time>2010-04-14T15:01:04Z</time>
      </trkpt>
      <trkpt lat="45.71866" lon="4.57404">
        <ele>782.096</ele>
        <time>2010-04-14T15:01:05Z</time>
      </trkpt>
      <trkpt lat="45.71823" lon="4.57377">
        <ele>779.597</ele>
        <time>2010-04-14T15:01:10Z</time>
      </trkpt>
      <trkpt lat="45.71804" lon="4.57373">
        <ele>778.865</ele>
        <time>2010-04-14T15:01:12Z</time>
      </trkpt>
      <trkpt lat="45.71774" lon="4.57371">
        <ele>777.382</ele>
        <time>2010-04-14T15:01:15Z</time>
      </trkpt>
      <trkpt lat="45.71715" lon="4.57388">
        <ele>774.634</ele>
        <time>2010-04-14T15:01:21Z</time>
      </trkpt>
      <trkpt lat="45.71669" lon="4.57424">
        <ele>771.49</ele>
        <time>2010-04-14T15:01:26Z</time>
      </trkpt>
      <trkpt lat="45.71621" lon="4.57462">
        <ele>768.471</ele>
        <time>2010-04-14T15:01:31Z</time>
      </trkpt>
      <trkpt lat="45.71573" lon="4.57499">
        <ele>765.725</ele>
        <time>2010-04-14T15:01:36Z</time>
      </trkpt>
      <trkpt lat="45.71539" lon="4.57538">
        <ele>762.876</ele>
        <time>2010-04-14T15:01:40Z</time>
      </trkpt>
      <trkpt lat="45.71521" lon="4.57579">
        <ele>761.497</ele>
        <time>2010-04-14T15:01:43Z</time>
      </trkpt>
      <trkpt lat="45.715" lon="4.57633">
        <ele>758.663</ele>
        <time>2010-04-14T15:01:47Z</time>
      </trkpt>
      <trkpt lat="45.71489" lon="4.57689">
        <ele>756.865</ele>
        <time>2010-04-14T15:01:51Z</time>
      </trkpt>
      <trkpt lat="45.71491" lon="4.57703">
        <ele>756.283</ele>
        <time>2010-04-14T15:01:52Z</time>
      </trkpt>
      <trkpt lat="45.71501" lon="4.57756">
        <ele>754.466</ele>
        <time>2010-04-14T15:01:56Z</time>
      </trkpt>
      <trkpt lat="45.71502" lon="4.57798">
        <ele>753.312</ele>
        <time>2010-04-14T15:02:00Z</time>
      </trkpt>
      <trkpt lat="45.71495" lon="4.57806">
        <ele>751.953</ele>
        <time>2010-04-14T15:02:02Z</time>
      </trkpt>
      <trkpt lat="45.71492" lon="4.57808">
        <ele>751.807</ele>
        <time>2010-04-14T15:02:03Z</time>
      </trkpt>
      <trkpt lat="45.71484" lon="4.578">
        <ele>750.894</ele>
        <time>2010-04-14T15:02:05Z</time>
      </trkpt>
      <trkpt lat="45.71491" lon="4.57758">
        <ele>750.997</ele>
        <time>2010-04-14T15:02:12Z</time>
      </trkpt>
      <trkpt lat="45.71482" lon="4.57695">
        <ele>750.936</ele>
        <time>2010-04-14T15:02:21Z</time>
      </trkpt>
      <trkpt lat="45.71478" lon="4.57673">
        <ele>751.211</ele>
        <time>2010-04-14T15:02:24Z</time>
      </trkpt>
      <trkpt lat="45.71485" lon="4.57621">
        <ele>751.497</ele>
        <time>2010-04-14T15:02:31Z</time>
      </trkpt>
      <trkpt lat="45.715" lon="4.57572">
        <ele>752.295</ele>
        <time>2010-04-14T15:02:39Z</time>
      </trkpt>
      <trkpt lat="45.71517" lon="4.57526">
        <ele>753.489</ele>
        <time>2010-04-14T15:02:48Z</time>
      </trkpt>
      <trkpt lat="45.71542" lon="4.57491">
        <ele>755.15</ele>
        <time>2010-04-14T15:02:57Z</time>
      </trkpt>
      <trkpt lat="45.71571" lon="4.5746">
        <ele>756.642</ele>
        <time>2010-04-14T15:03:07Z</time>
      </trkpt>
      <trkpt lat="45.71596" lon="4.57435">
        <ele>758.081</ele>
        <time>2010-04-14T15:03:16Z</time>
      </trkpt>
      <trkpt lat="45.71626" lon="4.57405">
        <ele>759.302</ele>
        <time>2010-04-14T15:03:27Z</time>
      </trkpt>
      <trkpt lat="45.71653" lon="4.57377">
        <ele>760.121</ele>
        <time>2010-04-14T15:03:37Z</time>
      </trkpt>
      <trkpt lat="45.71678" lon="4.57352">
        <ele>760.866</ele>
        <time>2010-04-14T15:03:46Z</time>
      </trkpt>
      <trkpt lat="45.71705" lon="4.57329">
        <ele>761.685</ele>
        <time>2010-04-14T15:03:55Z</time>
      </trkpt>
      <trkpt lat="45.71732" lon="4.57315">
        <ele>762.787</ele>
        <time>2010-04-14T15:04:03Z</time>
      </trkpt>
      <trkpt lat="45.71763" lon="4.57298">
        <ele>763.919</ele>
        <time>2010-04-14T15:04:13Z</time>
      </trkpt>
      <trkpt lat="45.71791" lon="4.57284">
        <ele>765.357</ele>
        <time>2010-04-14T15:04:22Z</time>
      </trkpt>
      <trkpt lat="45.71812" lon="4.57265">
        <ele>766.369</ele>
        <time>2010-04-14T15:04:30Z</time>
      </trkpt>
      <trkpt lat="45.71831" lon="4.57231">
        <ele>767.436</ele>
        <time>2010-04-14T15:04:39Z</time>
      </trkpt>
      <trkpt lat="45.71858" lon="4.57176">
        <ele>768.741</ele>
        <time>2010-04-14T15:04:53Z</time>
      </trkpt>
      <trkpt lat="45.71874" lon="4.57141">
        <ele>770.318</ele>
        <time>2010-04-14T15:05:02Z</time>
      </trkpt>
      <trkpt lat="45.71877" lon="4.57106">
        <ele>770.484</ele>
        <time>2010-04-14T15:05:10Z</time>
      </trkpt>
      <trkpt lat="45.71869" lon="4.57086">
        <ele>771.089</ele>
        <time>2010-04-14T15:05:15Z</time>
      </trkpt>
      <trkpt lat="45.71852" lon="4.57073">
        <ele>771.433</ele>
        <time>2010-04-14T15:05:21Z</time>
      </trkpt>
      <trkpt lat="45.71832" lon="4.57072">
        <ele>771.665</ele>
        <time>2010-04-14T15:05:27Z</time>
      </trkpt>
      <trkpt lat="45.71812" lon="4.57086">
        <ele>773.266</ele>
        <time>2010-04-14T15:05:34Z</time>
      </trkpt>
      <trkpt lat="45.71786" lon="4.57111">
        <ele>775.503</ele>
        <time>2010-04-14T15:05:44Z</time>
      </trkpt>
      <trkpt lat="45.71768" lon="4.57124">
        <ele>776.702</ele>
        <time>2010-04-14T15:05:51Z</time>
      </trkpt>
      <trkpt lat="45.71741" lon="4.57138">
        <ele>778.525</ele>
        <time>2010-04-14T15:06:01Z</time>
      </trkpt>
      <trkpt lat="45.71719" lon="4.57149">
        <ele>780.056</ele>
        <time>2010-04-14T15:06:09Z</time>
      </trkpt>
      <trkpt lat="45.71699" lon="4.5716">
        <ele>781.098</ele>
        <time>2010-04-14T15:06:16Z</time>
      </trkpt>
      <trkpt lat="45.7168" lon="4.57169">
        <ele>781.753</ele>
        <time>2010-04-14T15:06:23Z</time>
      </trkpt>
      <trkpt lat="45.71655" lon="4.57182">
        <ele>783.698</ele>
        <time>2010-04-14T15:06:32Z</time>
      </trkpt>
      <trkpt lat="45.71634" lon="4.57192">
        <ele>785.183</ele>
        <time>2010-04-14T15:06:40Z</time>
      </trkpt>
      <trkpt lat="45.71616" lon="4.57201">
        <ele>786.642</ele>
        <time>2010-04-14T15:06:48Z</time>
      </trkpt>
      <trkpt lat="45.71591" lon="4.57205">
        <ele>789.263</ele>
        <time>2010-04-14T15:06:58Z</time>
      </trkpt>
      <trkpt lat="45.71571" lon="4.57207">
        <ele>790.486</ele>
        <time>2010-04-14T15:07:06Z</time>
      </trkpt>
      <trkpt lat="45.71553" lon="4.57198">
        <ele>792.047</ele>
        <time>2010-04-14T15:07:14Z</time>
      </trkpt>
      <trkpt lat="45.71541" lon="4.57174">
        <ele>793.158</ele>
        <time>2010-04-14T15:07:22Z</time>
      </trkpt>
      <trkpt lat="45.7153" lon="4.57132">
        <ele>794.814</ele>
        <time>2010-04-14T15:07:34Z</time>
      </trkpt>
      <trkpt lat="45.71524" lon="4.57096">
        <ele>796.851</ele>
        <time>2010-04-14T15:07:44Z</time>
      </trkpt>
      <trkpt lat="45.71516" lon="4.57062">
        <ele>798.345</ele>
        <time>2010-04-14T15:07:54Z</time>
      </trkpt>
      <trkpt lat="45.71504" lon="4.57026">
        <ele>800.307</ele>
        <time>2010-04-14T15:08:05Z</time>
      </trkpt>
      <trkpt lat="45.71492" lon="4.56994">
        <ele>802.218</ele>
        <time>2010-04-14T15:08:15Z</time>
      </trkpt>
      <trkpt lat="45.71482" lon="4.56963">
        <ele>803.381</ele>
        <time>2010-04-14T15:08:24Z</time>
      </trkpt>
      <trkpt lat="45.71471" lon="4.56929">
        <ele>805.036</ele>
        <time>2010-04-14T15:08:34Z</time>
      </trkpt>
      <trkpt lat="45.71465" lon="4.56897">
        <ele>806.481</ele>
        <time>2010-04-14T15:08:43Z</time>
      </trkpt>
      <trkpt lat="45.71465" lon="4.56862">
        <ele>808.499</ele>
        <time>2010-04-14T15:08:52Z</time>
      </trkpt>
      <trkpt lat="45.71467" lon="4.5683">
        <ele>810.91</ele>
        <time>2010-04-14T15:09:05Z</time>
      </trkpt>
      <trkpt lat="45.71478" lon="4.56786">
        <ele>812.53</ele>
        <time>2010-04-14T15:09:14Z</time>
      </trkpt>
      <trkpt lat="45.71486" lon="4.56754">
        <ele>814.013</ele>
        <time>2010-04-14T15:09:23Z</time>
      </trkpt>
      <trkpt lat="45.71488" lon="4.56744">
        <ele>814.242</ele>
        <time>2010-04-14T15:09:33Z</time>
      </trkpt>
      <trkpt lat="45.71487" lon="4.56678">
        <ele>816.087</ele>
        <time>2010-04-14T15:09:44Z</time>
      </trkpt>
      <trkpt lat="45.71483" lon="4.56643">
        <ele>818.261</ele>
        <time>2010-04-14T15:09:53Z</time>
      </trkpt>
      <trkpt lat="45.71481" lon="4.56617">
        <ele>820.067</ele>
        <time>2010-04-14T15:10:00Z</time>
      </trkpt>
      <trkpt lat="45.71477" lon="4.56587">
        <ele>822.099</ele>
        <time>2010-04-14T15:10:08Z</time>
      </trkpt>
      <trkpt lat="45.71474" lon="4.56556">
        <ele>823.168</ele>
        <time>2010-04-14T15:10:16Z</time>
      </trkpt>
      <trkpt lat="45.71471" lon="4.5652">
        <ele>823.968</ele>
        <time>2010-04-14T15:10:25Z</time>
      </trkpt>
      <trkpt lat="45.71466" lon="4.56476">
        <ele>824.668</ele>
        <time>2010-04-14T15:10:36Z</time>
      </trkpt>
      <trkpt lat="45.71463" lon="4.56439">
        <ele>825.939</ele>
        <time>2010-04-14T15:10:45Z</time>
      </trkpt>
      <trkpt lat="45.71467" lon="4.56402">
        <ele>826.657</ele>
        <time>2010-04-14T15:10:54Z</time>
      </trkpt>
      <trkpt lat="45.71472" lon="4.56365">
        <ele>828.209</ele>
        <time>2010-04-14T15:11:03Z</time>
      </trkpt>
      <trkpt lat="45.71478" lon="4.56323">
        <ele>830.023</ele>
        <time>2010-04-14T15:11:13Z</time>
      </trkpt>
      <trkpt lat="45.71484" lon="4.5628">
        <ele>831.568</ele>
        <time>2010-04-14T15:11:23Z</time>
      </trkpt>
      <trkpt lat="45.71488" lon="4.56236">
        <ele>833.107</ele>
        <time>2010-04-14T15:11:33Z</time>
      </trkpt>
      <trkpt lat="45.71481" lon="4.56195">
        <ele>834.464</ele>
        <time>2010-04-14T15:11:43Z</time>
      </trkpt>
      <trkpt lat="45.71474" lon="4.56154">
        <ele>835.971</ele>
        <time>2010-04-14T15:11:53Z</time>
      </trkpt>
      <trkpt lat="45.71463" lon="4.56111">
        <ele>837.399</ele>
        <time>2010-04-14T15:12:04Z</time>
      </trkpt>
      <trkpt lat="45.71456" lon="4.56066">
        <ele>839.336</ele>
        <time>2010-04-14T15:12:15Z</time>
      </trkpt>
      <trkpt lat="45.71452" lon="4.56016">
        <ele>841.138</ele>
        <time>2010-04-14T15:12:27Z</time>
      </trkpt>
      <trkpt lat="45.71447" lon="4.55967">
        <ele>843.19</ele>
        <time>2010-04-14T15:12:39Z</time>
      </trkpt>
      <trkpt lat="45.7144" lon="4.55931">
        <ele>844.739</ele>
        <time>2010-04-14T15:12:48Z</time>
      </trkpt>
      <trkpt lat="45.71429" lon="4.55899">
        <ele>845.791</ele>
        <time>2010-04-14T15:12:57Z</time>
      </trkpt>
      <trkpt lat="45.71416" lon="4.55863">
        <ele>847.096</ele>
        <time>2010-04-14T15:13:06Z</time>
      </trkpt>
      <trkpt lat="45.71398" lon="4.55839">
        <ele>847.928</ele>
        <time>2010-04-14T15:13:14Z</time>
      </trkpt>
      <trkpt lat="45.7138" lon="4.55814">
        <ele>849.909</ele>
        <time>2010-04-14T15:13:23Z</time>
      </trkpt>
      <trkpt lat="45.7136" lon="4.55787">
        <ele>851.409</ele>
        <time>2010-04-14T15:13:33Z</time>
      </trkpt>
      <trkpt lat="45.7134" lon="4.55761">
        <ele>852.745</ele>
        <time>2010-04-14T15:13:42Z</time>
      </trkpt>
      <trkpt lat="45.71321" lon="4.55719">
        <ele>854.003</ele>
        <time>2010-04-14T15:13:53Z</time>
      </trkpt>
      <trkpt lat="45.71302" lon="4.55677">
        <ele>855.448</ele>
        <time>2010-04-14T15:14:04Z</time>
      </trkpt>
      <trkpt lat="45.71285" lon="4.55644">
        <ele>856.466</ele>
        <time>2010-04-14T15:14:13Z</time>
      </trkpt>
      <trkpt lat="45.71265" lon="4.55606">
        <ele>857.896</ele>
        <time>2010-04-14T15:14:23Z</time>
      </trkpt>
      <trkpt lat="45.71241" lon="4.55559">
        <ele>859.265</ele>
        <time>2010-04-14T15:14:35Z</time>
      </trkpt>
      <trkpt lat="45.71216" lon="4.55513">
        <ele>860.893</ele>
        <time>2010-04-14T15:14:47Z</time>
      </trkpt>
      <trkpt lat="45.71192" lon="4.5548">
        <ele>861.932</ele>
        <time>2010-04-14T15:14:57Z</time>
      </trkpt>
      <trkpt lat="45.71168" lon="4.55465">
        <ele>863.474</ele>
        <time>2010-04-14T15:15:05Z</time>
      </trkpt>
      <trkpt lat="45.71162" lon="4.55461">
        <ele>865.271</ele>
        <time>2010-04-14T15:15:14Z</time>
      </trkpt>
      <trkpt lat="45.71102" lon="4.55439">
        <ele>867.375</ele>
        <time>2010-04-14T15:15:26Z</time>
      </trkpt>
      <trkpt lat="45.71081" lon="4.55439">
        <ele>868.782</ele>
        <time>2010-04-14T15:15:37Z</time>
      </trkpt>
      <trkpt lat="45.7103" lon="4.55443">
        <ele>869.001</ele>
        <time>2010-04-14T15:15:45Z</time>
      </trkpt>
      <trkpt lat="45.70992" lon="4.55446">
        <ele>869.224</ele>
        <time>2010-04-14T15:15:53Z</time>
      </trkpt>
      <trkpt lat="45.70943" lon="4.55449">
        <ele>869.496</ele>
        <time>2010-04-14T15:16:02Z</time>
      </trkpt>
      <trkpt lat="45.70876" lon="4.55454">
        <ele>870.232</ele>
        <time>2010-04-14T15:16:14Z</time>
      </trkpt>
      <trkpt lat="45.70837" lon="4.55457">
        <ele>870.925</ele>
        <time>2010-04-14T15:16:21Z</time>
      </trkpt>
      <trkpt lat="45.70786" lon="4.5546">
        <ele>871.728</ele>
        <time>2010-04-14T15:16:30Z</time>
      </trkpt>
      <trkpt lat="45.70735" lon="4.55464">
        <ele>872.104</ele>
        <time>2010-04-14T15:16:39Z</time>
      </trkpt>
      <trkpt lat="45.70695" lon="4.55467">
        <ele>872.205</ele>
        <time>2010-04-14T15:16:46Z</time>
      </trkpt>
      <trkpt lat="45.7066" lon="4.55469">
        <ele>874.355</ele>
        <time>2010-04-14T15:16:53Z</time>
      </trkpt>
      <trkpt lat="45.70612" lon="4.55477">
        <ele>874.592</ele>
        <time>2010-04-14T15:17:01Z</time>
      </trkpt>
      <trkpt lat="45.70583" lon="4.55493">
        <ele>873.461</ele>
        <time>2010-04-14T15:17:06Z</time>
      </trkpt>
      <trkpt lat="45.70557" lon="4.55508">
        <ele>872.156</ele>
        <time>2010-04-14T15:17:10Z</time>
      </trkpt>
      <trkpt lat="45.70557" lon="4.55508">
        <ele>871.614</ele>
        <time>2010-04-14T15:17:12Z</time>
      </trkpt>
      <trkpt lat="45.70514" lon="4.55567">
        <ele>867.704</ele>
        <time>2010-04-14T15:17:17Z</time>
      </trkpt>
      <trkpt lat="45.70502" lon="4.5559">
        <ele>866.631</ele>
        <time>2010-04-14T15:17:19Z</time>
      </trkpt>
      <trkpt lat="45.70472" lon="4.5563">
        <ele>865.184</ele>
        <time>2010-04-14T15:17:23Z</time>
      </trkpt>
      <trkpt lat="45.70399" lon="4.55669">
        <ele>860.806</ele>
        <time>2010-04-14T15:17:30Z</time>
      </trkpt>
      <trkpt lat="45.70376" lon="4.55675">
        <ele>858.822</ele>
        <time>2010-04-14T15:17:32Z</time>
      </trkpt>
      <trkpt lat="45.70328" lon="4.55682">
        <ele>856.47</ele>
        <time>2010-04-14T15:17:36Z</time>
      </trkpt>
      <trkpt lat="45.70251" lon="4.55657">
        <ele>853.916</ele>
        <time>2010-04-14T15:17:43Z</time>
      </trkpt>
      <trkpt lat="45.70217" lon="4.55623">
        <ele>852.327</ele>
        <time>2010-04-14T15:17:47Z</time>
      </trkpt>
      <trkpt lat="45.70206" lon="4.55582">
        <ele>851.363</ele>
        <time>2010-04-14T15:17:50Z</time>
      </trkpt>
      <trkpt lat="45.70193" lon="4.55498">
        <ele>850.76</ele>
        <time>2010-04-14T15:17:56Z</time>
      </trkpt>
      <trkpt lat="45.70185" lon="4.55472">
        <ele>849.743</ele>
        <time>2010-04-14T15:17:58Z</time>
      </trkpt>
      <trkpt lat="45.70174" lon="4.5545">
        <ele>848.674</ele>
        <time>2010-04-14T15:18:00Z</time>
      </trkpt>
      <trkpt lat="45.70139" lon="4.55383">
        <ele>848.287</ele>
        <time>2010-04-14T15:18:06Z</time>
      </trkpt>
      <trkpt lat="45.70118" lon="4.5532">
        <ele>846.526</ele>
        <time>2010-04-14T15:18:11Z</time>
      </trkpt>
      <trkpt lat="45.70115" lon="4.55293">
        <ele>846.112</ele>
        <time>2010-04-14T15:18:13Z</time>
      </trkpt>
      <trkpt lat="45.70119" lon="4.55185">
        <ele>842.812</ele>
        <time>2010-04-14T15:18:21Z</time>
      </trkpt>
      <trkpt lat="45.70119" lon="4.55171">
        <ele>842.683</ele>
        <time>2010-04-14T15:18:22Z</time>
      </trkpt>
      <trkpt lat="45.70116" lon="4.55145">
        <ele>841.528</ele>
        <time>2010-04-14T15:18:24Z</time>
      </trkpt>
      <trkpt lat="45.70099" lon="4.55063">
        <ele>839.389</ele>
        <time>2010-04-14T15:18:30Z</time>
      </trkpt>
      <trkpt lat="45.70061" lon="4.54962">
        <ele>836.743</ele>
        <time>2010-04-14T15:18:38Z</time>
      </trkpt>
      <trkpt lat="45.70052" lon="4.54937">
        <ele>835.992</ele>
        <time>2010-04-14T15:18:40Z</time>
      </trkpt>
      <trkpt lat="45.70007" lon="4.54866">
        <ele>833.935</ele>
        <time>2010-04-14T15:18:47Z</time>
      </trkpt>
      <trkpt lat="45.69993" lon="4.54848">
        <ele>832.764</ele>
        <time>2010-04-14T15:18:49Z</time>
      </trkpt>
      <trkpt lat="45.6995" lon="4.548">
        <ele>830.979</ele>
        <time>2010-04-14T15:18:55Z</time>
      </trkpt>
      <trkpt lat="45.69934" lon="4.54789">
        <ele>830.247</ele>
        <time>2010-04-14T15:18:57Z</time>
      </trkpt>
      <trkpt lat="45.6987" lon="4.54767">
        <ele>826.815</ele>
        <time>2010-04-14T15:19:04Z</time>
      </trkpt>
      <trkpt lat="45.69861" lon="4.54764">
        <ele>826.827</ele>
        <time>2010-04-14T15:19:05Z</time>
      </trkpt>
      <trkpt lat="45.69805" lon="4.54757">
        <ele>825.847</ele>
        <time>2010-04-14T15:19:11Z</time>
      </trkpt>
      <trkpt lat="45.69771" lon="4.5473">
        <ele>824.424</ele>
        <time>2010-04-14T15:19:15Z</time>
      </trkpt>
      <trkpt lat="45.69738" lon="4.54701">
        <ele>825.481</ele>
        <time>2010-04-14T15:19:21Z</time>
      </trkpt>
      <trkpt lat="45.69692" lon="4.54627">
        <ele>825.126</ele>
        <time>2010-04-14T15:19:28Z</time>
      </trkpt>
      <trkpt lat="45.69686" lon="4.54618">
        <ele>824.774</ele>
        <time>2010-04-14T15:19:29Z</time>
      </trkpt>
      <trkpt lat="45.69643" lon="4.54584">
        <ele>824.116</ele>
        <time>2010-04-14T15:19:35Z</time>
      </trkpt>
      <trkpt lat="45.69585" lon="4.54543">
        <ele>822.253</ele>
        <time>2010-04-14T15:19:43Z</time>
      </trkpt>
      <trkpt lat="45.69563" lon="4.54527">
        <ele>821.328</ele>
        <time>2010-04-14T15:19:46Z</time>
      </trkpt>
      <trkpt lat="45.69544" lon="4.54503">
        <ele>819.97</ele>
        <time>2010-04-14T15:19:49Z</time>
      </trkpt>
      <trkpt lat="45.6953" lon="4.54472">
        <ele>818.562</ele>
        <time>2010-04-14T15:19:52Z</time>
      </trkpt>
      <trkpt lat="45.69527" lon="4.5446">
        <ele>818.339</ele>
        <time>2010-04-14T15:19:53Z</time>
      </trkpt>
      <trkpt lat="45.69508" lon="4.54367">
        <ele>815.672</ele>
        <time>2010-04-14T15:20:01Z</time>
      </trkpt>
      <trkpt lat="45.69493" lon="4.54309">
        <ele>813.93</ele>
        <time>2010-04-14T15:20:06Z</time>
      </trkpt>
      <trkpt lat="45.69467" lon="4.54241">
        <ele>811.549</ele>
        <time>2010-04-14T15:20:12Z</time>
      </trkpt>
      <trkpt lat="45.69439" lon="4.54156">
        <ele>810.085</ele>
        <time>2010-04-14T15:20:19Z</time>
      </trkpt>
      <trkpt lat="45.69428" lon="4.5408">
        <ele>808.233</ele>
        <time>2010-04-14T15:20:25Z</time>
      </trkpt>
      <trkpt lat="45.69424" lon="4.5401">
        <ele>805.311</ele>
        <time>2010-04-14T15:20:31Z</time>
      </trkpt>
      <trkpt lat="45.6942" lon="4.53948">
        <ele>803.858</ele>
        <time>2010-04-14T15:20:35Z</time>
      </trkpt>
      <trkpt lat="45.69398" lon="4.53892">
        <ele>801.973</ele>
        <time>2010-04-14T15:20:40Z</time>
      </trkpt>
      <trkpt lat="45.69392" lon="4.53882">
        <ele>801.778</ele>
        <time>2010-04-14T15:20:41Z</time>
      </trkpt>
      <trkpt lat="45.69361" lon="4.53854">
        <ele>800.406</ele>
        <time>2010-04-14T15:20:45Z</time>
      </trkpt>
      <trkpt lat="45.69345" lon="4.53842">
        <ele>799.534</ele>
        <time>2010-04-14T15:20:47Z</time>
      </trkpt>
      <trkpt lat="45.69327" lon="4.53837">
        <ele>798.408</ele>
        <time>2010-04-14T15:20:49Z</time>
      </trkpt>
      <trkpt lat="45.69242" lon="4.53815">
        <ele>794.853</ele>
        <time>2010-04-14T15:20:58Z</time>
      </trkpt>
      <trkpt lat="45.69196" lon="4.53793">
        <ele>793.257</ele>
        <time>2010-04-14T15:21:03Z</time>
      </trkpt>
      <trkpt lat="45.69162" lon="4.53764">
        <ele>791.94</ele>
        <time>2010-04-14T15:21:07Z</time>
      </trkpt>
      <trkpt lat="45.69107" lon="4.53705">
        <ele>789.97</ele>
        <time>2010-04-14T15:21:16Z</time>
      </trkpt>
      <trkpt lat="45.69055" lon="4.53658">
        <ele>789.351</ele>
        <time>2010-04-14T15:21:23Z</time>
      </trkpt>
      <trkpt lat="45.68998" lon="4.53598">
        <ele>789.752</ele>
        <time>2010-04-14T15:21:30Z</time>
      </trkpt>
      <trkpt lat="45.68957" lon="4.53556">
        <ele>790.836</ele>
        <time>2010-04-14T15:21:37Z</time>
      </trkpt>
      <trkpt lat="45.68914" lon="4.53509">
        <ele>792.854</ele>
        <time>2010-04-14T15:21:46Z</time>
      </trkpt>
      <trkpt lat="45.6888" lon="4.53491">
        <ele>793.957</ele>
        <time>2010-04-14T15:21:53Z</time>
      </trkpt>
      <trkpt lat="45.6884" lon="4.53474">
        <ele>795.185</ele>
        <time>2010-04-14T15:22:01Z</time>
      </trkpt>
      <trkpt lat="45.68791" lon="4.53451">
        <ele>796.222</ele>
        <time>2010-04-14T15:22:11Z</time>
      </trkpt>
      <trkpt lat="45.68754" lon="4.53415">
        <ele>797.491</ele>
        <time>2010-04-14T15:22:20Z</time>
      </trkpt>
      <trkpt lat="45.6872" lon="4.53375">
        <ele>798.773</ele>
        <time>2010-04-14T15:22:30Z</time>
      </trkpt>
      <trkpt lat="45.68689" lon="4.53335">
        <ele>800.057</ele>
        <time>2010-04-14T15:22:39Z</time>
      </trkpt>
      <trkpt lat="45.68666" lon="4.53305">
        <ele>800.964</ele>
        <time>2010-04-14T15:22:47Z</time>
      </trkpt>
      <trkpt lat="45.68643" lon="4.53276">
        <ele>802.201</ele>
        <time>2010-04-14T15:22:58Z</time>
      </trkpt>
      <trkpt lat="45.68613" lon="4.53234">
        <ele>801.059</ele>
        <time>2010-04-14T15:23:05Z</time>
      </trkpt>
      <trkpt lat="45.686" lon="4.53216">
        <ele>799.978</ele>
        <time>2010-04-14T15:23:11Z</time>
      </trkpt>
      <trkpt lat="45.68571" lon="4.53156">
        <ele>798.186</ele>
        <time>2010-04-14T15:23:17Z</time>
      </trkpt>
      <trkpt lat="45.68546" lon="4.53094">
        <ele>797.274</ele>
        <time>2010-04-14T15:23:24Z</time>
      </trkpt>
      <trkpt lat="45.6853" lon="4.53064">
        <ele>796.531</ele>
        <time>2010-04-14T15:23:29Z</time>
      </trkpt>
      <trkpt lat="45.68522" lon="4.53053">
        <ele>796.657</ele>
        <time>2010-04-14T15:23:32Z</time>
      </trkpt>
      <trkpt lat="45.68514" lon="4.53049">
        <ele>795.961</ele>
        <time>2010-04-14T15:23:36Z</time>
      </trkpt>
      <trkpt lat="45.68514" lon="4.53049">
        <ele>795.534</ele>
        <time>2010-04-14T15:23:38Z</time>
      </trkpt>
      <trkpt lat="45.68465" lon="4.53096">
        <ele>793.958</ele>
        <time>2010-04-14T15:23:45Z</time>
      </trkpt>
      <trkpt lat="45.68421" lon="4.53105">
        <ele>791.312</ele>
        <time>2010-04-14T15:23:51Z</time>
      </trkpt>
      <trkpt lat="45.68405" lon="4.53111">
        <ele>790.844</ele>
        <time>2010-04-14T15:23:53Z</time>
      </trkpt>
      <trkpt lat="45.68376" lon="4.53132">
        <ele>789.09</ele>
        <time>2010-04-14T15:23:57Z</time>
      </trkpt>
      <trkpt lat="45.6837" lon="4.53141">
        <ele>788.491</ele>
        <time>2010-04-14T15:23:58Z</time>
      </trkpt>
      <trkpt lat="45.68342" lon="4.53194">
        <ele>786.503</ele>
        <time>2010-04-14T15:24:03Z</time>
      </trkpt>
      <trkpt lat="45.68338" lon="4.53206">
        <ele>785.637</ele>
        <time>2010-04-14T15:24:04Z</time>
      </trkpt>
      <trkpt lat="45.68314" lon="4.53236">
        <ele>784.323</ele>
        <time>2010-04-14T15:24:07Z</time>
      </trkpt>
      <trkpt lat="45.68313" lon="4.53238">
        <ele>783.238</ele>
        <time>2010-04-14T15:24:09Z</time>
      </trkpt>
      <trkpt lat="45.6823" lon="4.53261">
        <ele>779.874</ele>
        <time>2010-04-14T15:24:15Z</time>
      </trkpt>
      <trkpt lat="45.68144" lon="4.53288">
        <ele>777.358</ele>
        <time>2010-04-14T15:24:23Z</time>
      </trkpt>
      <trkpt lat="45.68133" lon="4.53292">
        <ele>777.112</ele>
        <time>2010-04-14T15:24:24Z</time>
      </trkpt>
      <trkpt lat="45.68092" lon="4.53297">
        <ele>776.157</ele>
        <time>2010-04-14T15:24:28Z</time>
      </trkpt>
      <trkpt lat="45.68054" lon="4.53309">
        <ele>774.607</ele>
        <time>2010-04-14T15:24:32Z</time>
      </trkpt>
      <trkpt lat="45.68039" lon="4.53345">
        <ele>773.019</ele>
        <time>2010-04-14T15:24:35Z</time>
      </trkpt>
      <trkpt lat="45.68031" lon="4.53381">
        <ele>771.274</ele>
        <time>2010-04-14T15:24:38Z</time>
      </trkpt>
      <trkpt lat="45.68039" lon="4.53421">
        <ele>769.674</ele>
        <time>2010-04-14T15:24:41Z</time>
      </trkpt>
      <trkpt lat="45.68045" lon="4.53434">
        <ele>768.614</ele>
        <time>2010-04-14T15:24:42Z</time>
      </trkpt>
      <trkpt lat="45.68069" lon="4.53498">
        <ele>765.622</ele>
        <time>2010-04-14T15:24:47Z</time>
      </trkpt>
      <trkpt lat="45.68064" lon="4.53541">
        <ele>764.47</ele>
        <time>2010-04-14T15:24:50Z</time>
      </trkpt>
      <trkpt lat="45.68052" lon="4.53565">
        <ele>763.17</ele>
        <time>2010-04-14T15:24:52Z</time>
      </trkpt>
      <trkpt lat="45.68014" lon="4.53643">
        <ele>759.538</ele>
        <time>2010-04-14T15:24:58Z</time>
      </trkpt>
      <trkpt lat="45.67989" lon="4.5372">
        <ele>755.763</ele>
        <time>2010-04-14T15:25:03Z</time>
      </trkpt>
      <trkpt lat="45.67971" lon="4.53806">
        <ele>752.379</ele>
        <time>2010-04-14T15:25:08Z</time>
      </trkpt>
      <trkpt lat="45.67952" lon="4.53872">
        <ele>749.719</ele>
        <time>2010-04-14T15:25:12Z</time>
      </trkpt>
      <trkpt lat="45.67929" lon="4.53913">
        <ele>748.305</ele>
        <time>2010-04-14T15:25:15Z</time>
      </trkpt>
      <trkpt lat="45.67867" lon="4.54023">
        <ele>742.11</ele>
        <time>2010-04-14T15:25:23Z</time>
      </trkpt>
      <trkpt lat="45.67844" lon="4.54064">
        <ele>740.152</ele>
        <time>2010-04-14T15:25:26Z</time>
      </trkpt>
      <trkpt lat="45.67828" lon="4.54111">
        <ele>738.131</ele>
        <time>2010-04-14T15:25:29Z</time>
      </trkpt>
      <trkpt lat="45.67823" lon="4.54127">
        <ele>737.686</ele>
        <time>2010-04-14T15:25:30Z</time>
      </trkpt>
      <trkpt lat="45.67819" lon="4.54139">
        <ele>735.867</ele>
        <time>2010-04-14T15:25:33Z</time>
      </trkpt>
      <trkpt lat="45.67822" lon="4.54189">
        <ele>734.707</ele>
        <time>2010-04-14T15:25:35Z</time>
      </trkpt>
      <trkpt lat="45.67829" lon="4.54198">
        <ele>734.338</ele>
        <time>2010-04-14T15:25:36Z</time>
      </trkpt>
      <trkpt lat="45.67836" lon="4.54207">
        <ele>732.261</ele>
        <time>2010-04-14T15:25:38Z</time>
      </trkpt>
      <trkpt lat="45.67867" lon="4.54251">
        <ele>730.509</ele>
        <time>2010-04-14T15:25:41Z</time>
      </trkpt>
      <trkpt lat="45.6788" lon="4.54295">
        <ele>728.548</ele>
        <time>2010-04-14T15:25:44Z</time>
      </trkpt>
      <trkpt lat="45.67903" lon="4.54341">
        <ele>725.373</ele>
        <time>2010-04-14T15:25:48Z</time>
      </trkpt>
      <trkpt lat="45.67912" lon="4.54348">
        <ele>724.671</ele>
        <time>2010-04-14T15:25:49Z</time>
      </trkpt>
      <trkpt lat="45.6794" lon="4.54369">
        <ele>723.08</ele>
        <time>2010-04-14T15:25:52Z</time>
      </trkpt>
      <trkpt lat="45.67983" lon="4.54408">
        <ele>720.238</ele>
        <time>2010-04-14T15:25:57Z</time>
      </trkpt>
      <trkpt lat="45.68008" lon="4.54432">
        <ele>719.033</ele>
        <time>2010-04-14T15:26:00Z</time>
      </trkpt>
      <trkpt lat="45.68027" lon="4.54456">
        <ele>716.661</ele>
        <time>2010-04-14T15:26:03Z</time>
      </trkpt>
      <trkpt lat="45.68029" lon="4.54467">
        <ele>716.535</ele>
        <time>2010-04-14T15:26:04Z</time>
      </trkpt>
      <trkpt lat="45.68019" lon="4.54488">
        <ele>715.885</ele>
        <time>2010-04-14T15:26:06Z</time>
      </trkpt>
      <trkpt lat="45.67998" lon="4.54514">
        <ele>714.062</ele>
        <time>2010-04-14T15:26:09Z</time>
      </trkpt>
      <trkpt lat="45.67942" lon="4.54528">
        <ele>710.594</ele>
        <time>2010-04-14T15:26:14Z</time>
      </trkpt>
      <trkpt lat="45.67883" lon="4.54547">
        <ele>706.941</ele>
        <time>2010-04-14T15:26:19Z</time>
      </trkpt>
      <trkpt lat="45.6781" lon="4.54572">
        <ele>702.767</ele>
        <time>2010-04-14T15:26:25Z</time>
      </trkpt>
      <trkpt lat="45.67736" lon="4.54584">
        <ele>699.152</ele>
        <time>2010-04-14T15:26:31Z</time>
      </trkpt>
      <trkpt lat="45.67633" lon="4.54609">
        <ele>692.172</ele>
        <time>2010-04-14T15:26:39Z</time>
      </trkpt>
      <trkpt lat="45.67572" lon="4.54643">
        <ele>689.402</ele>
        <time>2010-04-14T15:26:44Z</time>
      </trkpt>
      <trkpt lat="45.6748" lon="4.54707">
        <ele>683.22</ele>
        <time>2010-04-14T15:26:52Z</time>
      </trkpt>
      <trkpt lat="45.67435" lon="4.54744">
        <ele>680.307</ele>
        <time>2010-04-14T15:26:56Z</time>
      </trkpt>
      <trkpt lat="45.67389" lon="4.54776">
        <ele>677.235</ele>
        <time>2010-04-14T15:27:00Z</time>
      </trkpt>
      <trkpt lat="45.6738" lon="4.54787">
        <ele>676.939</ele>
        <time>2010-04-14T15:27:01Z</time>
      </trkpt>
      <trkpt lat="45.67351" lon="4.54824">
        <ele>675.747</ele>
        <time>2010-04-14T15:27:05Z</time>
      </trkpt>
      <trkpt lat="45.67351" lon="4.54858">
        <ele>672.992</ele>
        <time>2010-04-14T15:27:08Z</time>
      </trkpt>
      <trkpt lat="45.6736" lon="4.54876">
        <ele>672.078</ele>
        <time>2010-04-14T15:27:10Z</time>
      </trkpt>
      <trkpt lat="45.67364" lon="4.54886">
        <ele>671.721</ele>
        <time>2010-04-14T15:27:11Z</time>
      </trkpt>
      <trkpt lat="45.67408" lon="4.5494">
        <ele>667.06</ele>
        <time>2010-04-14T15:27:17Z</time>
      </trkpt>
      <trkpt lat="45.67422" lon="4.54963">
        <ele>665.753</ele>
        <time>2010-04-14T15:27:19Z</time>
      </trkpt>
      <trkpt lat="45.67432" lon="4.54988">
        <ele>664.933</ele>
        <time>2010-04-14T15:27:21Z</time>
      </trkpt>
      <trkpt lat="45.6745" lon="4.55043">
        <ele>662.787</ele>
        <time>2010-04-14T15:27:25Z</time>
      </trkpt>
      <trkpt lat="45.6745" lon="4.5506">
        <ele>662.18</ele>
        <time>2010-04-14T15:27:26Z</time>
      </trkpt>
      <trkpt lat="45.67447" lon="4.55105">
        <ele>660.782</ele>
        <time>2010-04-14T15:27:29Z</time>
      </trkpt>
      <trkpt lat="45.67446" lon="4.5512">
        <ele>659.95</ele>
        <time>2010-04-14T15:27:30Z</time>
      </trkpt>
      <trkpt lat="45.6743" lon="4.55175">
        <ele>657.939</ele>
        <time>2010-04-14T15:27:34Z</time>
      </trkpt>
      <trkpt lat="45.67415" lon="4.5519">
        <ele>658.56</ele>
        <time>2010-04-14T15:27:36Z</time>
      </trkpt>
      <trkpt lat="45.67387" lon="4.55186">
        <ele>659.86</ele>
        <time>2010-04-14T15:27:39Z</time>
      </trkpt>
      <trkpt lat="45.67372" lon="4.55173">
        <ele>660.748</ele>
        <time>2010-04-14T15:27:41Z</time>
      </trkpt>
      <trkpt lat="45.67346" lon="4.55129">
        <ele>662.506</ele>
        <time>2010-04-14T15:27:47Z</time>
      </trkpt>
      <trkpt lat="45.67335" lon="4.55115">
        <ele>663.153</ele>
        <time>2010-04-14T15:27:50Z</time>
      </trkpt>
      <trkpt lat="45.67317" lon="4.551">
        <ele>664.138</ele>
        <time>2010-04-14T15:27:55Z</time>
      </trkpt>
      <trkpt lat="45.67288" lon="4.551">
        <ele>664.952</ele>
        <time>2010-04-14T15:28:03Z</time>
      </trkpt>
      <trkpt lat="45.67261" lon="4.5511">
        <ele>666.109</ele>
        <time>2010-04-14T15:28:10Z</time>
      </trkpt>
      <trkpt lat="45.67249" lon="4.55115">
        <ele>666.3</ele>
        <time>2010-04-14T15:28:13Z</time>
      </trkpt>
      <trkpt lat="45.67208" lon="4.55137">
        <ele>667.882</ele>
        <time>2010-04-14T15:28:24Z</time>
      </trkpt>
      <trkpt lat="45.67178" lon="4.55151">
        <ele>669.292</ele>
        <time>2010-04-14T15:28:32Z</time>
      </trkpt>
      <trkpt lat="45.67147" lon="4.55165">
        <ele>670.824</ele>
        <time>2010-04-14T15:28:41Z</time>
      </trkpt>
      <trkpt lat="45.67108" lon="4.55184">
        <ele>672.187</ele>
        <time>2010-04-14T15:28:52Z</time>
      </trkpt>
      <trkpt lat="45.67063" lon="4.55208">
        <ele>674.81</ele>
        <time>2010-04-14T15:29:05Z</time>
      </trkpt>
      <trkpt lat="45.67028" lon="4.55227">
        <ele>676.175</ele>
        <time>2010-04-14T15:29:15Z</time>
      </trkpt>
      <trkpt lat="45.67001" lon="4.55245">
        <ele>677.456</ele>
        <time>2010-04-14T15:29:23Z</time>
      </trkpt>
      <trkpt lat="45.66967" lon="4.55282">
        <ele>678.721</ele>
        <time>2010-04-14T15:29:34Z</time>
      </trkpt>
      <trkpt lat="45.66947" lon="4.55315">
        <ele>679.904</ele>
        <time>2010-04-14T15:29:42Z</time>
      </trkpt>
      <trkpt lat="45.66932" lon="4.55361">
        <ele>678.948</ele>
        <time>2010-04-14T15:29:50Z</time>
      </trkpt>
      <trkpt lat="45.66906" lon="4.55434">
        <ele>679.287</ele>
        <time>2010-04-14T15:30:01Z</time>
      </trkpt>
      <trkpt lat="45.66878" lon="4.5551">
        <ele>679.271</ele>
        <time>2010-04-14T15:30:12Z</time>
      </trkpt>
      <trkpt lat="45.66852" lon="4.55581">
        <ele>677.754</ele>
        <time>2010-04-14T15:30:22Z</time>
      </trkpt>
      <trkpt lat="45.66822" lon="4.55662">
        <ele>676.582</ele>
        <time>2010-04-14T15:30:32Z</time>
      </trkpt>
      <trkpt lat="45.66794" lon="4.55727">
        <ele>675.836</ele>
        <time>2010-04-14T15:30:40Z</time>
      </trkpt>
      <trkpt lat="45.66768" lon="4.55774">
        <ele>676.115</ele>
        <time>2010-04-14T15:30:47Z</time>
      </trkpt>
      <trkpt lat="45.66722" lon="4.55837">
        <ele>676.145</ele>
        <time>2010-04-14T15:30:58Z</time>
      </trkpt>
      <trkpt lat="45.66703" lon="4.55862">
        <ele>677.994</ele>
        <time>2010-04-14T15:31:03Z</time>
      </trkpt>
      <trkpt lat="45.66684" lon="4.55888">
        <ele>679.838</ele>
        <time>2010-04-14T15:31:10Z</time>
      </trkpt>
      <trkpt lat="45.6666" lon="4.5592">
        <ele>681.943</ele>
        <time>2010-04-14T15:31:20Z</time>
      </trkpt>
      <trkpt lat="45.66639" lon="4.55949">
        <ele>683.602</ele>
        <time>2010-04-14T15:31:29Z</time>
      </trkpt>
      <trkpt lat="45.66618" lon="4.55979">
        <ele>685.179</ele>
        <time>2010-04-14T15:31:39Z</time>
      </trkpt>
      <trkpt lat="45.66602" lon="4.56004">
        <ele>686.625</ele>
        <time>2010-04-14T15:31:47Z</time>
      </trkpt>
      <trkpt lat="45.66578" lon="4.5603">
        <ele>687.604</ele>
        <time>2010-04-14T15:31:57Z</time>
      </trkpt>
      <trkpt lat="45.66564" lon="4.5604">
        <ele>688.863</ele>
        <time>2010-04-14T15:32:02Z</time>
      </trkpt>
      <trkpt lat="45.66548" lon="4.56026">
        <ele>690.405</ele>
        <time>2010-04-14T15:32:07Z</time>
      </trkpt>
      <trkpt lat="45.6654" lon="4.56">
        <ele>691.937</ele>
        <time>2010-04-14T15:32:13Z</time>
      </trkpt>
      <trkpt lat="45.6654" lon="4.5597">
        <ele>692.96</ele>
        <time>2010-04-14T15:32:20Z</time>
      </trkpt>
      <trkpt lat="45.66531" lon="4.5594">
        <ele>694.2</ele>
        <time>2010-04-14T15:32:28Z</time>
      </trkpt>
      <trkpt lat="45.66516" lon="4.55912">
        <ele>695.417</ele>
        <time>2010-04-14T15:32:37Z</time>
      </trkpt>
      <trkpt lat="45.6651" lon="4.55884">
        <ele>696.845</ele>
        <time>2010-04-14T15:32:44Z</time>
      </trkpt>
      <trkpt lat="45.66515" lon="4.55856">
        <ele>697.767</ele>
        <time>2010-04-14T15:32:51Z</time>
      </trkpt>
      <trkpt lat="45.66524" lon="4.55835">
        <ele>698.903</ele>
        <time>2010-04-14T15:32:57Z</time>
      </trkpt>
      <trkpt lat="45.66536" lon="4.55804">
        <ele>700.763</ele>
        <time>2010-04-14T15:33:06Z</time>
      </trkpt>
      <trkpt lat="45.66536" lon="4.55777">
        <ele>701.853</ele>
        <time>2010-04-14T15:33:13Z</time>
      </trkpt>
      <trkpt lat="45.66532" lon="4.5575">
        <ele>702.857</ele>
        <time>2010-04-14T15:33:20Z</time>
      </trkpt>
      <trkpt lat="45.66521" lon="4.55722">
        <ele>703.937</ele>
        <time>2010-04-14T15:33:28Z</time>
      </trkpt>
      <trkpt lat="45.665" lon="4.557">
        <ele>705.229</ele>
        <time>2010-04-14T15:33:37Z</time>
      </trkpt>
      <trkpt lat="45.66478" lon="4.55679">
        <ele>706.823</ele>
        <time>2010-04-14T15:33:46Z</time>
      </trkpt>
      <trkpt lat="45.66447" lon="4.55654">
        <ele>709.279</ele>
        <time>2010-04-14T15:33:58Z</time>
      </trkpt>
      <trkpt lat="45.66425" lon="4.55636">
        <ele>710.81</ele>
        <time>2010-04-14T15:34:07Z</time>
      </trkpt>
      <trkpt lat="45.6642" lon="4.55632">
        <ele>712.37</ele>
        <time>2010-04-14T15:34:14Z</time>
      </trkpt>
      <trkpt lat="45.66394" lon="4.55648">
        <ele>713.45</ele>
        <time>2010-04-14T15:34:20Z</time>
      </trkpt>
      <trkpt lat="45.66385" lon="4.55675">
        <ele>714.37</ele>
        <time>2010-04-14T15:34:27Z</time>
      </trkpt>
      <trkpt lat="45.66378" lon="4.55704">
        <ele>714.986</ele>
        <time>2010-04-14T15:34:34Z</time>
      </trkpt>
      <trkpt lat="45.6637" lon="4.55724">
        <ele>715.622</ele>
        <time>2010-04-14T15:34:39Z</time>
      </trkpt>
      <trkpt lat="45.66369" lon="4.55727">
        <ele>715.912</ele>
        <time>2010-04-14T15:34:43Z</time>
      </trkpt>
      <trkpt lat="45.66359" lon="4.55768">
        <ele>716.599</ele>
        <time>2010-04-14T15:34:49Z</time>
      </trkpt>
      <trkpt lat="45.6635" lon="4.55814">
        <ele>717.927</ele>
        <time>2010-04-14T15:34:59Z</time>
      </trkpt>
      <trkpt lat="45.66333" lon="4.55863">
        <ele>719.704</ele>
        <time>2010-04-14T15:35:11Z</time>
      </trkpt>
      <trkpt lat="45.66317" lon="4.55904">
        <ele>721.005</ele>
        <time>2010-04-14T15:35:21Z</time>
      </trkpt>
      <trkpt lat="45.66303" lon="4.55934">
        <ele>722.295</ele>
        <time>2010-04-14T15:35:29Z</time>
      </trkpt>
      <trkpt lat="45.66287" lon="4.55967">
        <ele>723.826</ele>
        <time>2010-04-14T15:35:38Z</time>
      </trkpt>
      <trkpt lat="45.66269" lon="4.55997">
        <ele>725.134</ele>
        <time>2010-04-14T15:35:47Z</time>
      </trkpt>
      <trkpt lat="45.66252" lon="4.56024">
        <ele>726.67</ele>
        <time>2010-04-14T15:35:55Z</time>
      </trkpt>
      <trkpt lat="45.66228" lon="4.56044">
        <ele>728.283</ele>
        <time>2010-04-14T15:36:04Z</time>
      </trkpt>
      <trkpt lat="45.66195" lon="4.56049">
        <ele>730.091</ele>
        <time>2010-04-14T15:36:14Z</time>
      </trkpt>
      <trkpt lat="45.6618" lon="4.56044">
        <ele>730.924</ele>
        <time>2010-04-14T15:36:20Z</time>
      </trkpt>
      <trkpt lat="45.66148" lon="4.56017">
        <ele>732.221</ele>
        <time>2010-04-14T15:36:30Z</time>
      </trkpt>
      <trkpt lat="45.66128" lon="4.56001">
        <ele>733.706</ele>
        <time>2010-04-14T15:36:37Z</time>
      </trkpt>
      <trkpt lat="45.66106" lon="4.55989">
        <ele>734.522</ele>
        <time>2010-04-14T15:36:44Z</time>
      </trkpt>
      <trkpt lat="45.6608" lon="4.55971">
        <ele>735.8</ele>
        <time>2010-04-14T15:36:53Z</time>
      </trkpt>
      <trkpt lat="45.66072" lon="4.55965">
        <ele>736.599</ele>
        <time>2010-04-14T15:36:56Z</time>
      </trkpt>
      <trkpt lat="45.66064" lon="4.55972">
        <ele>738.072</ele>
        <time>2010-04-14T15:37:01Z</time>
      </trkpt>
      <trkpt lat="45.66062" lon="4.55976">
        <ele>738.29</ele>
        <time>2010-04-14T15:37:02Z</time>
      </trkpt>
      <trkpt lat="45.66051" lon="4.56001">
        <ele>740.153</ele>
        <time>2010-04-14T15:37:09Z</time>
      </trkpt>
      <trkpt lat="45.66051" lon="4.56001">
        <ele>740.459</ele>
        <time>2010-04-14T15:37:15Z</time>
      </trkpt>
      <trkpt lat="45.66047" lon="4.56041">
        <ele>740.282</ele>
        <time>2010-04-14T15:37:17Z</time>
      </trkpt>
      <trkpt lat="45.6605" lon="4.56065">
        <ele>740.351</ele>
        <time>2010-04-14T15:37:21Z</time>
      </trkpt>
      <trkpt lat="45.66058" lon="4.56102">
        <ele>741.33</ele>
        <time>2010-04-14T15:37:28Z</time>
      </trkpt>
      <trkpt lat="45.66063" lon="4.5613">
        <ele>741.305</ele>
        <time>2010-04-14T15:37:33Z</time>
      </trkpt>
      <trkpt lat="45.66069" lon="4.56157">
        <ele>741.675</ele>
        <time>2010-04-14T15:37:38Z</time>
      </trkpt>
      <trkpt lat="45.66078" lon="4.56202">
        <ele>741.272</ele>
        <time>2010-04-14T15:37:45Z</time>
      </trkpt>
      <trkpt lat="45.66082" lon="4.56251">
        <ele>740.897</ele>
        <time>2010-04-14T15:37:52Z</time>
      </trkpt>
      <trkpt lat="45.66087" lon="4.56309">
        <ele>739.917</ele>
        <time>2010-04-14T15:38:00Z</time>
      </trkpt>
      <trkpt lat="45.66089" lon="4.56334">
        <ele>739.042</ele>
        <time>2010-04-14T15:38:05Z</time>
      </trkpt>
      <trkpt lat="45.66084" lon="4.56343">
        <ele>738.87</ele>
        <time>2010-04-14T15:38:09Z</time>
      </trkpt>
      <trkpt lat="45.66061" lon="4.56355">
        <ele>739.715</ele>
        <time>2010-04-14T15:38:16Z</time>
      </trkpt>
      <trkpt lat="45.66032" lon="4.5637">
        <ele>739.173</ele>
        <time>2010-04-14T15:38:23Z</time>
      </trkpt>
      <trkpt lat="45.66024" lon="4.56375">
        <ele>738.703</ele>
        <time>2010-04-14T15:38:25Z</time>
      </trkpt>
      <trkpt lat="45.65994" lon="4.56389">
        <ele>737.276</ele>
        <time>2010-04-14T15:38:31Z</time>
      </trkpt>
      <trkpt lat="45.65965" lon="4.56396">
        <ele>734.79</ele>
        <time>2010-04-14T15:38:37Z</time>
      </trkpt>
      <trkpt lat="45.65924" lon="4.56396">
        <ele>732.3</ele>
        <time>2010-04-14T15:38:42Z</time>
      </trkpt>
      <trkpt lat="45.6591" lon="4.56396">
        <ele>731.632</ele>
        <time>2010-04-14T15:38:46Z</time>
      </trkpt>
      <trkpt lat="45.65906" lon="4.56396">
        <ele>731.337</ele>
        <time>2010-04-14T15:38:51Z</time>
      </trkpt>
      <trkpt lat="45.65903" lon="4.56396">
        <ele>731.207</ele>
        <time>2010-04-14T15:38:56Z</time>
      </trkpt>
      <trkpt lat="45.65902" lon="4.56396">
        <ele>731.232</ele>
        <time>2010-04-14T15:38:59Z</time>
      </trkpt>
      <trkpt lat="45.65898" lon="4.56396">
        <ele>730.982</ele>
        <time>2010-04-14T15:39:10Z</time>
      </trkpt>
      <trkpt lat="45.65897" lon="4.56396">
        <ele>730.693</ele>
        <time>2010-04-14T15:39:12Z</time>
      </trkpt>
      <trkpt lat="45.65897" lon="4.56396">
        <ele>730.402</ele>
        <time>2010-04-14T15:39:15Z</time>
      </trkpt>
      <trkpt lat="45.6588" lon="4.56403">
        <ele>730.366</ele>
        <time>2010-04-14T15:39:16Z</time>
      </trkpt>
      <trkpt lat="45.65874" lon="4.5645">
        <ele>729.593</ele>
        <time>2010-04-14T15:39:23Z</time>
      </trkpt>
      <trkpt lat="45.65869" lon="4.56473">
        <ele>730.24</ele>
        <time>2010-04-14T15:39:26Z</time>
      </trkpt>
      <trkpt lat="45.65864" lon="4.56484">
        <ele>730.939</ele>
        <time>2010-04-14T15:39:28Z</time>
      </trkpt>
      <trkpt lat="45.65844" lon="4.56523">
        <ele>731.382</ele>
        <time>2010-04-14T15:39:35Z</time>
      </trkpt>
      <trkpt lat="45.65825" lon="4.5656">
        <ele>732.176</ele>
        <time>2010-04-14T15:39:42Z</time>
      </trkpt>
      <trkpt lat="45.65819" lon="4.56572">
        <ele>732.365</ele>
        <time>2010-04-14T15:39:49Z</time>
      </trkpt>
      <trkpt lat="45.65779" lon="4.56625">
        <ele>733.513</ele>
        <time>2010-04-14T15:39:56Z</time>
      </trkpt>
      <trkpt lat="45.65771" lon="4.5663">
        <ele>733.341</ele>
        <time>2010-04-14T15:39:58Z</time>
      </trkpt>
      <trkpt lat="45.65755" lon="4.56637">
        <ele>734.67</ele>
        <time>2010-04-14T15:40:02Z</time>
      </trkpt>
      <trkpt lat="45.65746" lon="4.56639">
        <ele>735.067</ele>
        <time>2010-04-14T15:40:04Z</time>
      </trkpt>
      <trkpt lat="45.65742" lon="4.56641">
        <ele>735.856</ele>
        <time>2010-04-14T15:40:09Z</time>
      </trkpt>
      <trkpt lat="45.65695" lon="4.56624">
        <ele>736.929</ele>
        <time>2010-04-14T15:40:17Z</time>
      </trkpt>
      <trkpt lat="45.65676" lon="4.56622">
        <ele>737.429</ele>
        <time>2010-04-14T15:40:22Z</time>
      </trkpt>
      <trkpt lat="45.65659" lon="4.56636">
        <ele>738.515</ele>
        <time>2010-04-14T15:40:27Z</time>
      </trkpt>
      <trkpt lat="45.65653" lon="4.56644">
        <ele>738.854</ele>
        <time>2010-04-14T15:40:29Z</time>
      </trkpt>
      <trkpt lat="45.65637" lon="4.56681">
        <ele>739.562</ele>
        <time>2010-04-14T15:40:37Z</time>
      </trkpt>
      <trkpt lat="45.65622" lon="4.56715">
        <ele>740.782</ele>
        <time>2010-04-14T15:40:44Z</time>
      </trkpt>
      <trkpt lat="45.65607" lon="4.56749">
        <ele>741.906</ele>
        <time>2010-04-14T15:40:51Z</time>
      </trkpt>
      <trkpt lat="45.65603" lon="4.56759">
        <ele>741.964</ele>
        <time>2010-04-14T15:40:53Z</time>
      </trkpt>
      <trkpt lat="45.65604" lon="4.56799">
        <ele>742.96</ele>
        <time>2010-04-14T15:41:00Z</time>
      </trkpt>
      <trkpt lat="45.65616" lon="4.56845">
        <ele>744.248</ele>
        <time>2010-04-14T15:41:09Z</time>
      </trkpt>
      <trkpt lat="45.65621" lon="4.56877">
        <ele>744.957</ele>
        <time>2010-04-14T15:41:15Z</time>
      </trkpt>
      <trkpt lat="45.65612" lon="4.56901">
        <ele>745.905</ele>
        <time>2010-04-14T15:41:20Z</time>
      </trkpt>
      <trkpt lat="45.65605" lon="4.56915">
        <ele>746.159</ele>
        <time>2010-04-14T15:41:25Z</time>
      </trkpt>
      <trkpt lat="45.65579" lon="4.5691">
        <ele>747.078</ele>
        <time>2010-04-14T15:41:30Z</time>
      </trkpt>
      <trkpt lat="45.65561" lon="4.56907">
        <ele>748.136</ele>
        <time>2010-04-14T15:41:35Z</time>
      </trkpt>
      <trkpt lat="45.65534" lon="4.56907">
        <ele>749.414</ele>
        <time>2010-04-14T15:41:44Z</time>
      </trkpt>
      <trkpt lat="45.65506" lon="4.56907">
        <ele>751.061</ele>
        <time>2010-04-14T15:41:53Z</time>
      </trkpt>
      <trkpt lat="45.65472" lon="4.56907">
        <ele>752.79</ele>
        <time>2010-04-14T15:42:04Z</time>
      </trkpt>
      <trkpt lat="45.65455" lon="4.56907">
        <ele>754.023</ele>
        <time>2010-04-14T15:42:13Z</time>
      </trkpt>
      <trkpt lat="45.65419" lon="4.56911">
        <ele>755.617</ele>
        <time>2010-04-14T15:42:21Z</time>
      </trkpt>
      <trkpt lat="45.65393" lon="4.56913">
        <ele>756.718</ele>
        <time>2010-04-14T15:42:29Z</time>
      </trkpt>
      <trkpt lat="45.65368" lon="4.56917">
        <ele>757.833</ele>
        <time>2010-04-14T15:42:37Z</time>
      </trkpt>
      <trkpt lat="45.65347" lon="4.56931">
        <ele>759.023</ele>
        <time>2010-04-14T15:42:44Z</time>
      </trkpt>
      <trkpt lat="45.65336" lon="4.56948">
        <ele>759.569</ele>
        <time>2010-04-14T15:42:49Z</time>
      </trkpt>
      <trkpt lat="45.65316" lon="4.5698">
        <ele>760.876</ele>
        <time>2010-04-14T15:42:58Z</time>
      </trkpt>
      <trkpt lat="45.65293" lon="4.56998">
        <ele>762.459</ele>
        <time>2010-04-14T15:43:06Z</time>
      </trkpt>
      <trkpt lat="45.65259" lon="4.57019">
        <ele>763.87</ele>
        <time>2010-04-14T15:43:17Z</time>
      </trkpt>
      <trkpt lat="45.65254" lon="4.57041">
        <ele>765.03</ele>
        <time>2010-04-14T15:43:22Z</time>
      </trkpt>
      <trkpt lat="45.65259" lon="4.57063">
        <ele>765.86</ele>
        <time>2010-04-14T15:43:27Z</time>
      </trkpt>
      <trkpt lat="45.65281" lon="4.5709">
        <ele>767.116</ele>
        <time>2010-04-14T15:43:36Z</time>
      </trkpt>
      <trkpt lat="45.65295" lon="4.57108">
        <ele>768.139</ele>
        <time>2010-04-14T15:43:42Z</time>
      </trkpt>
      <trkpt lat="45.65309" lon="4.57131">
        <ele>769.226</ele>
        <time>2010-04-14T15:43:49Z</time>
      </trkpt>
      <trkpt lat="45.65318" lon="4.57162">
        <ele>770.492</ele>
        <time>2010-04-14T15:43:57Z</time>
      </trkpt>
      <trkpt lat="45.65323" lon="4.57199">
        <ele>771.371</ele>
        <time>2010-04-14T15:44:06Z</time>
      </trkpt>
      <trkpt lat="45.65323" lon="4.57236">
        <ele>772.821</ele>
        <time>2010-04-14T15:44:15Z</time>
      </trkpt>
      <trkpt lat="45.65317" lon="4.57272">
        <ele>774.463</ele>
        <time>2010-04-14T15:44:24Z</time>
      </trkpt>
      <trkpt lat="45.65312" lon="4.57299">
        <ele>775.629</ele>
        <time>2010-04-14T15:44:31Z</time>
      </trkpt>
      <trkpt lat="45.65301" lon="4.57324">
        <ele>776.224</ele>
        <time>2010-04-14T15:44:38Z</time>
      </trkpt>
      <trkpt lat="45.65284" lon="4.57361">
        <ele>777.937</ele>
        <time>2010-04-14T15:44:48Z</time>
      </trkpt>
      <trkpt lat="45.65267" lon="4.57397">
        <ele>779.244</ele>
        <time>2010-04-14T15:44:58Z</time>
      </trkpt>
      <trkpt lat="45.65255" lon="4.57429">
        <ele>780.417</ele>
        <time>2010-04-14T15:45:06Z</time>
      </trkpt>
      <trkpt lat="45.65244" lon="4.57467">
        <ele>782.111</ele>
        <time>2010-04-14T15:45:15Z</time>
      </trkpt>
      <trkpt lat="45.65228" lon="4.57518">
        <ele>783.683</ele>
        <time>2010-04-14T15:45:27Z</time>
      </trkpt>
      <trkpt lat="45.65215" lon="4.5756">
        <ele>785.375</ele>
        <time>2010-04-14T15:45:37Z</time>
      </trkpt>
      <trkpt lat="45.652" lon="4.57591">
        <ele>786.57</ele>
        <time>2010-04-14T15:45:45Z</time>
      </trkpt>
      <trkpt lat="45.65183" lon="4.57605">
        <ele>787.721</ele>
        <time>2010-04-14T15:45:51Z</time>
      </trkpt>
      <trkpt lat="45.65158" lon="4.57614">
        <ele>789.217</ele>
        <time>2010-04-14T15:45:59Z</time>
      </trkpt>
      <trkpt lat="45.65137" lon="4.57604">
        <ele>790.104</ele>
        <time>2010-04-14T15:46:06Z</time>
      </trkpt>
      <trkpt lat="45.65119" lon="4.57585">
        <ele>791.557</ele>
        <time>2010-04-14T15:46:13Z</time>
      </trkpt>
      <trkpt lat="45.65094" lon="4.57556">
        <ele>793.091</ele>
        <time>2010-04-14T15:46:23Z</time>
      </trkpt>
      <trkpt lat="45.65086" lon="4.57546">
        <ele>794.972</ele>
        <time>2010-04-14T15:46:33Z</time>
      </trkpt>
      <trkpt lat="45.6505" lon="4.57501">
        <ele>796.297</ele>
        <time>2010-04-14T15:46:42Z</time>
      </trkpt>
      <trkpt lat="45.65047" lon="4.57499">
        <ele>797.391</ele>
        <time>2010-04-14T15:46:48Z</time>
      </trkpt>
      <trkpt lat="45.65013" lon="4.57499">
        <ele>798.211</ele>
        <time>2010-04-14T15:46:55Z</time>
      </trkpt>
      <trkpt lat="45.65001" lon="4.57519">
        <ele>798.554</ele>
        <time>2010-04-14T15:47:01Z</time>
      </trkpt>
      <trkpt lat="45.64989" lon="4.57552">
        <ele>799.321</ele>
        <time>2010-04-14T15:47:09Z</time>
      </trkpt>
      <trkpt lat="45.6498" lon="4.57585">
        <ele>800.838</ele>
        <time>2010-04-14T15:47:17Z</time>
      </trkpt>
      <trkpt lat="45.64971" lon="4.5762">
        <ele>801.798</ele>
        <time>2010-04-14T15:47:25Z</time>
      </trkpt>
      <trkpt lat="45.64958" lon="4.57656">
        <ele>803.074</ele>
        <time>2010-04-14T15:47:33Z</time>
      </trkpt>
      <trkpt lat="45.64943" lon="4.57698">
        <ele>805.018</ele>
        <time>2010-04-14T15:47:43Z</time>
      </trkpt>
      <trkpt lat="45.64928" lon="4.57741">
        <ele>806.386</ele>
        <time>2010-04-14T15:47:53Z</time>
      </trkpt>
      <trkpt lat="45.64917" lon="4.57784">
        <ele>808.319</ele>
        <time>2010-04-14T15:48:03Z</time>
      </trkpt>
      <trkpt lat="45.64913" lon="4.57829">
        <ele>809.788</ele>
        <time>2010-04-14T15:48:13Z</time>
      </trkpt>
      <trkpt lat="45.64909" lon="4.5787">
        <ele>810.866</ele>
        <time>2010-04-14T15:48:22Z</time>
      </trkpt>
      <trkpt lat="45.64903" lon="4.57921">
        <ele>812.448</ele>
        <time>2010-04-14T15:48:33Z</time>
      </trkpt>
      <trkpt lat="45.64895" lon="4.57958">
        <ele>814.08</ele>
        <time>2010-04-14T15:48:41Z</time>
      </trkpt>
      <trkpt lat="45.64882" lon="4.5798">
        <ele>815.261</ele>
        <time>2010-04-14T15:48:47Z</time>
      </trkpt>
      <trkpt lat="45.6486" lon="4.58018">
        <ele>817</ele>
        <time>2010-04-14T15:48:57Z</time>
      </trkpt>
      <trkpt lat="45.64831" lon="4.58068">
        <ele>819.503</ele>
        <time>2010-04-14T15:49:10Z</time>
      </trkpt>
      <trkpt lat="45.64809" lon="4.58103">
        <ele>819.629</ele>
        <time>2010-04-14T15:49:19Z</time>
      </trkpt>
      <trkpt lat="45.64797" lon="4.58123">
        <ele>819.774</ele>
        <time>2010-04-14T15:49:24Z</time>
      </trkpt>
      <trkpt lat="45.64762" lon="4.58169">
        <ele>819.773</ele>
        <time>2010-04-14T15:49:35Z</time>
      </trkpt>
      <trkpt lat="45.64743" lon="4.58187">
        <ele>819.837</ele>
        <time>2010-04-14T15:49:40Z</time>
      </trkpt>
      <trkpt lat="45.64702" lon="4.58218">
        <ele>820.072</ele>
        <time>2010-04-14T15:49:50Z</time>
      </trkpt>
      <trkpt lat="45.64662" lon="4.58242">
        <ele>820.602</ele>
        <time>2010-04-14T15:49:59Z</time>
      </trkpt>
      <trkpt lat="45.64625" lon="4.58269">
        <ele>821.385</ele>
        <time>2010-04-14T15:50:08Z</time>
      </trkpt>
      <trkpt lat="45.64587" lon="4.58303">
        <ele>821.96</ele>
        <time>2010-04-14T15:50:18Z</time>
      </trkpt>
      <trkpt lat="45.64547" lon="4.58342">
        <ele>823.499</ele>
        <time>2010-04-14T15:50:29Z</time>
      </trkpt>
      <trkpt lat="45.64512" lon="4.58378">
        <ele>824.554</ele>
        <time>2010-04-14T15:50:39Z</time>
      </trkpt>
      <trkpt lat="45.6448" lon="4.58417">
        <ele>825.964</ele>
        <time>2010-04-14T15:50:49Z</time>
      </trkpt>
      <trkpt lat="45.64453" lon="4.58451">
        <ele>827.567</ele>
        <time>2010-04-14T15:50:58Z</time>
      </trkpt>
      <trkpt lat="45.6445" lon="4.58455">
        <ele>827.851</ele>
        <time>2010-04-14T15:50:59Z</time>
      </trkpt>
      <trkpt lat="45.64416" lon="4.58496">
        <ele>828.854</ele>
        <time>2010-04-14T15:51:11Z</time>
      </trkpt>
      <trkpt lat="45.64383" lon="4.58537">
        <ele>830.536</ele>
        <time>2010-04-14T15:51:23Z</time>
      </trkpt>
      <trkpt lat="45.64362" lon="4.58562">
        <ele>831.692</ele>
        <time>2010-04-14T15:51:31Z</time>
      </trkpt>
      <trkpt lat="45.64345" lon="4.58567">
        <ele>832.044</ele>
        <time>2010-04-14T15:51:36Z</time>
      </trkpt>
      <trkpt lat="45.6433" lon="4.58553">
        <ele>832.44</ele>
        <time>2010-04-14T15:51:41Z</time>
      </trkpt>
      <trkpt lat="45.64313" lon="4.58504">
        <ele>833.801</ele>
        <time>2010-04-14T15:51:51Z</time>
      </trkpt>
      <trkpt lat="45.64294" lon="4.58452">
        <ele>834.895</ele>
        <time>2010-04-14T15:52:02Z</time>
      </trkpt>
      <trkpt lat="45.64274" lon="4.5839">
        <ele>836.076</ele>
        <time>2010-04-14T15:52:14Z</time>
      </trkpt>
      <trkpt lat="45.64271" lon="4.58354">
        <ele>836.914</ele>
        <time>2010-04-14T15:52:20Z</time>
      </trkpt>
      <trkpt lat="45.64278" lon="4.58309">
        <ele>838.057</ele>
        <time>2010-04-14T15:52:28Z</time>
      </trkpt>
      <trkpt lat="45.64283" lon="4.58266">
        <ele>838.999</ele>
        <time>2010-04-14T15:52:35Z</time>
      </trkpt>
      <trkpt lat="45.64283" lon="4.582">
        <ele>840.336</ele>
        <time>2010-04-14T15:52:45Z</time>
      </trkpt>
      <trkpt lat="45.64281" lon="4.58131">
        <ele>841.528</ele>
        <time>2010-04-14T15:52:56Z</time>
      </trkpt>
      <trkpt lat="45.64274" lon="4.58076">
        <ele>842.819</ele>
        <time>2010-04-14T15:53:05Z</time>
      </trkpt>
      <trkpt lat="45.6427" lon="4.58044">
        <ele>843.82</ele>
        <time>2010-04-14T15:53:13Z</time>
      </trkpt>
      <trkpt lat="45.6424" lon="4.57993">
        <ele>844.957</ele>
        <time>2010-04-14T15:53:21Z</time>
      </trkpt>
      <trkpt lat="45.64211" lon="4.57952">
        <ele>845.867</ele>
        <time>2010-04-14T15:53:30Z</time>
      </trkpt>
      <trkpt lat="45.64168" lon="4.5789">
        <ele>847.184</ele>
        <time>2010-04-14T15:53:43Z</time>
      </trkpt>
      <trkpt lat="45.64139" lon="4.57849">
        <ele>848.531</ele>
        <time>2010-04-14T15:53:52Z</time>
      </trkpt>
      <trkpt lat="45.64117" lon="4.57828">
        <ele>849.144</ele>
        <time>2010-04-14T15:53:58Z</time>
      </trkpt>
      <trkpt lat="45.64108" lon="4.57826">
        <ele>849.483</ele>
        <time>2010-04-14T15:54:00Z</time>
      </trkpt>
      <trkpt lat="45.64065" lon="4.57838">
        <ele>849.857</ele>
        <time>2010-04-14T15:54:09Z</time>
      </trkpt>
      <trkpt lat="45.64021" lon="4.57851">
        <ele>851.436</ele>
        <time>2010-04-14T15:54:18Z</time>
      </trkpt>
      <trkpt lat="45.63974" lon="4.57846">
        <ele>852.51</ele>
        <time>2010-04-14T15:54:28Z</time>
      </trkpt>
      <trkpt lat="45.6393" lon="4.57841">
        <ele>853.753</ele>
        <time>2010-04-14T15:54:37Z</time>
      </trkpt>
      <trkpt lat="45.63901" lon="4.57838">
        <ele>854.506</ele>
        <time>2010-04-14T15:54:46Z</time>
      </trkpt>
      <trkpt lat="45.63842" lon="4.57828">
        <ele>856.349</ele>
        <time>2010-04-14T15:54:56Z</time>
      </trkpt>
      <trkpt lat="45.63828" lon="4.57825">
        <ele>856.311</ele>
        <time>2010-04-14T15:54:59Z</time>
      </trkpt>
      <trkpt lat="45.63815" lon="4.5783">
        <ele>857.005</ele>
        <time>2010-04-14T15:55:03Z</time>
      </trkpt>
      <trkpt lat="45.63778" lon="4.5786">
        <ele>857.871</ele>
        <time>2010-04-14T15:55:11Z</time>
      </trkpt>
      <trkpt lat="45.63758" lon="4.57899">
        <ele>858.358</ele>
        <time>2010-04-14T15:55:18Z</time>
      </trkpt>
      <trkpt lat="45.63742" lon="4.57958">
        <ele>859.667</ele>
        <time>2010-04-14T15:55:27Z</time>
      </trkpt>
      <trkpt lat="45.6374" lon="4.58012">
        <ele>860.925</ele>
        <time>2010-04-14T15:55:35Z</time>
      </trkpt>
      <trkpt lat="45.63736" lon="4.58099">
        <ele>861.808</ele>
        <time>2010-04-14T15:55:47Z</time>
      </trkpt>
      <trkpt lat="45.63734" lon="4.58162">
        <ele>862.753</ele>
        <time>2010-04-14T15:55:56Z</time>
      </trkpt>
      <trkpt lat="45.63727" lon="4.58225">
        <ele>864.015</ele>
        <time>2010-04-14T15:56:05Z</time>
      </trkpt>
      <trkpt lat="45.63721" lon="4.58282">
        <ele>864.734</ele>
        <time>2010-04-14T15:56:13Z</time>
      </trkpt>
      <trkpt lat="45.63713" lon="4.58353">
        <ele>866.173</ele>
        <time>2010-04-14T15:56:23Z</time>
      </trkpt>
      <trkpt lat="45.63704" lon="4.58386">
        <ele>866.905</ele>
        <time>2010-04-14T15:56:28Z</time>
      </trkpt>
      <trkpt lat="45.63694" lon="4.58411">
        <ele>866.706</ele>
        <time>2010-04-14T15:56:32Z</time>
      </trkpt>
      <trkpt lat="45.63671" lon="4.58436">
        <ele>866.947</ele>
        <time>2010-04-14T15:56:38Z</time>
      </trkpt>
      <trkpt lat="45.63631" lon="4.58462">
        <ele>868.213</ele>
        <time>2010-04-14T15:56:47Z</time>
      </trkpt>
      <trkpt lat="45.63599" lon="4.58484">
        <ele>869.199</ele>
        <time>2010-04-14T15:56:54Z</time>
      </trkpt>
      <trkpt lat="45.63566" lon="4.58516">
        <ele>870.061</ele>
        <time>2010-04-14T15:57:02Z</time>
      </trkpt>
      <trkpt lat="45.63555" lon="4.58529">
        <ele>870.591</ele>
        <time>2010-04-14T15:57:05Z</time>
      </trkpt>
      <trkpt lat="45.63538" lon="4.5856">
        <ele>871.42</ele>
        <time>2010-04-14T15:57:11Z</time>
      </trkpt>
      <trkpt lat="45.63536" lon="4.58566">
        <ele>871.594</ele>
        <time>2010-04-14T15:57:12Z</time>
      </trkpt>
      <trkpt lat="45.63533" lon="4.58607">
        <ele>872.081</ele>
        <time>2010-04-14T15:57:18Z</time>
      </trkpt>
      <trkpt lat="45.63535" lon="4.58659">
        <ele>872.794</ele>
        <time>2010-04-14T15:57:26Z</time>
      </trkpt>
      <trkpt lat="45.6354" lon="4.58712">
        <ele>873.537</ele>
        <time>2010-04-14T15:57:34Z</time>
      </trkpt>
      <trkpt lat="45.63548" lon="4.58756">
        <ele>873.192</ele>
        <time>2010-04-14T15:57:40Z</time>
      </trkpt>
      <trkpt lat="45.63555" lon="4.58793">
        <ele>872.483</ele>
        <time>2010-04-14T15:57:45Z</time>
      </trkpt>
      <trkpt lat="45.63558" lon="4.588">
        <ele>872.403</ele>
        <time>2010-04-14T15:57:46Z</time>
      </trkpt>
      <trkpt lat="45.63574" lon="4.58852">
        <ele>872.181</ele>
        <time>2010-04-14T15:57:54Z</time>
      </trkpt>
      <trkpt lat="45.63577" lon="4.58877">
        <ele>871.896</ele>
        <time>2010-04-14T15:57:57Z</time>
      </trkpt>
      <trkpt lat="45.6358" lon="4.58902">
        <ele>871.792</ele>
        <time>2010-04-14T15:58:00Z</time>
      </trkpt>
      <trkpt lat="45.63583" lon="4.58935">
        <ele>871.215</ele>
        <time>2010-04-14T15:58:04Z</time>
      </trkpt>
      <trkpt lat="45.63579" lon="4.5899">
        <ele>870.725</ele>
        <time>2010-04-14T15:58:11Z</time>
      </trkpt>
      <trkpt lat="45.63563" lon="4.59056">
        <ele>870.281</ele>
        <time>2010-04-14T15:58:20Z</time>
      </trkpt>
      <trkpt lat="45.6354" lon="4.59102">
        <ele>869.783</ele>
        <time>2010-04-14T15:58:27Z</time>
      </trkpt>
      <trkpt lat="45.63521" lon="4.59131">
        <ele>869.887</ele>
        <time>2010-04-14T15:58:32Z</time>
      </trkpt>
      <trkpt lat="45.63506" lon="4.59165">
        <ele>869.595</ele>
        <time>2010-04-14T15:58:37Z</time>
      </trkpt>
      <trkpt lat="45.63506" lon="4.59181">
        <ele>869.906</ele>
        <time>2010-04-14T15:58:39Z</time>
      </trkpt>
      <trkpt lat="45.6351" lon="4.5924">
        <ele>868.857</ele>
        <time>2010-04-14T15:58:46Z</time>
      </trkpt>
      <trkpt lat="45.63511" lon="4.59241">
        <ele>867.592</ele>
        <time>2010-04-14T15:58:49Z</time>
      </trkpt>
      <trkpt lat="45.63511" lon="4.59333">
        <ele>864.868</ele>
        <time>2010-04-14T15:58:56Z</time>
      </trkpt>
      <trkpt lat="45.63507" lon="4.59418">
        <ele>862.078</ele>
        <time>2010-04-14T15:59:04Z</time>
      </trkpt>
      <trkpt lat="45.63504" lon="4.59451">
        <ele>860.999</ele>
        <time>2010-04-14T15:59:07Z</time>
      </trkpt>
      <trkpt lat="45.63493" lon="4.5949">
        <ele>860.09</ele>
        <time>2010-04-14T15:59:12Z</time>
      </trkpt>
      <trkpt lat="45.63464" lon="4.59529">
        <ele>860.967</ele>
        <time>2010-04-14T15:59:16Z</time>
      </trkpt>
      <trkpt lat="45.63444" lon="4.59536">
        <ele>861.608</ele>
        <time>2010-04-14T15:59:19Z</time>
      </trkpt>
      <trkpt lat="45.63426" lon="4.59543">
        <ele>863.009</ele>
        <time>2010-04-14T15:59:22Z</time>
      </trkpt>
      <trkpt lat="45.63384" lon="4.59558">
        <ele>864.796</ele>
        <time>2010-04-14T15:59:30Z</time>
      </trkpt>
      <trkpt lat="45.63329" lon="4.59578">
        <ele>867.305</ele>
        <time>2010-04-14T15:59:42Z</time>
      </trkpt>
      <trkpt lat="45.63289" lon="4.59592">
        <ele>869.454</ele>
        <time>2010-04-14T15:59:51Z</time>
      </trkpt>
      <trkpt lat="45.63251" lon="4.59604">
        <ele>871.645</ele>
        <time>2010-04-14T16:00:00Z</time>
      </trkpt>
      <trkpt lat="45.63228" lon="4.5961">
        <ele>872.84</ele>
        <time>2010-04-14T16:00:07Z</time>
      </trkpt>
      <trkpt lat="45.632" lon="4.59611">
        <ele>873.17</ele>
        <time>2010-04-14T16:00:16Z</time>
      </trkpt>
      <trkpt lat="45.63176" lon="4.59596">
        <ele>872.685</ele>
        <time>2010-04-14T16:00:23Z</time>
      </trkpt>
      <trkpt lat="45.63173" lon="4.59591">
        <ele>872.672</ele>
        <time>2010-04-14T16:00:24Z</time>
      </trkpt>
      <trkpt lat="45.63149" lon="4.59553">
        <ele>872.782</ele>
        <time>2010-04-14T16:00:32Z</time>
      </trkpt>
      <trkpt lat="45.63143" lon="4.59542">
        <ele>871.431</ele>
        <time>2010-04-14T16:00:34Z</time>
      </trkpt>
      <trkpt lat="45.63121" lon="4.5952">
        <ele>870.814</ele>
        <time>2010-04-14T16:00:39Z</time>
      </trkpt>
      <trkpt lat="45.631" lon="4.59516">
        <ele>869.386</ele>
        <time>2010-04-14T16:00:43Z</time>
      </trkpt>
      <trkpt lat="45.63081" lon="4.59534">
        <ele>868.999</ele>
        <time>2010-04-14T16:00:47Z</time>
      </trkpt>
      <trkpt lat="45.63078" lon="4.59542">
        <ele>868.912</ele>
        <time>2010-04-14T16:00:48Z</time>
      </trkpt>
      <trkpt lat="45.63051" lon="4.59622">
        <ele>866.282</ele>
        <time>2010-04-14T16:00:57Z</time>
      </trkpt>
      <trkpt lat="45.63025" lon="4.59703">
        <ele>864.049</ele>
        <time>2010-04-14T16:01:05Z</time>
      </trkpt>
      <trkpt lat="45.63011" lon="4.59755">
        <ele>863.221</ele>
        <time>2010-04-14T16:01:10Z</time>
      </trkpt>
      <trkpt lat="45.63008" lon="4.59798">
        <ele>861.617</ele>
        <time>2010-04-14T16:01:14Z</time>
      </trkpt>
      <trkpt lat="45.63013" lon="4.59842">
        <ele>860.047</ele>
        <time>2010-04-14T16:01:20Z</time>
      </trkpt>
      <trkpt lat="45.63021" lon="4.59895">
        <ele>858.514</ele>
        <time>2010-04-14T16:01:25Z</time>
      </trkpt>
      <trkpt lat="45.63021" lon="4.59904">
        <ele>857.96</ele>
        <time>2010-04-14T16:01:26Z</time>
      </trkpt>
      <trkpt lat="45.63014" lon="4.59953">
        <ele>854.518</ele>
        <time>2010-04-14T16:01:31Z</time>
      </trkpt>
      <trkpt lat="45.62996" lon="4.59996">
        <ele>850.998</ele>
        <time>2010-04-14T16:01:35Z</time>
      </trkpt>
      <trkpt lat="45.62996" lon="4.59997">
        <ele>849.508</ele>
        <time>2010-04-14T16:01:38Z</time>
      </trkpt>
      <trkpt lat="45.62996" lon="4.59997">
        <ele>849.662</ele>
        <time>2010-04-14T16:01:39Z</time>
      </trkpt>
      <trkpt lat="45.62983" lon="4.60035">
        <ele>847.322</ele>
        <time>2010-04-14T16:01:44Z</time>
      </trkpt>
      <trkpt lat="45.62954" lon="4.60044">
        <ele>847.113</ele>
        <time>2010-04-14T16:01:47Z</time>
      </trkpt>
      <trkpt lat="45.62948" lon="4.60059">
        <ele>846.838</ele>
        <time>2010-04-14T16:01:50Z</time>
      </trkpt>
      <trkpt lat="45.62939" lon="4.60086">
        <ele>846.567</ele>
        <time>2010-04-14T16:01:54Z</time>
      </trkpt>
      <trkpt lat="45.62924" lon="4.60128">
        <ele>844.587</ele>
        <time>2010-04-14T16:02:00Z</time>
      </trkpt>
      <trkpt lat="45.62923" lon="4.60134">
        <ele>844.505</ele>
        <time>2010-04-14T16:02:04Z</time>
      </trkpt>
      <trkpt lat="45.62923" lon="4.60134">
        <ele>844.405</ele>
        <time>2010-04-14T16:02:08Z</time>
      </trkpt>
      <trkpt lat="45.62923" lon="4.60134">
        <ele>843.75</ele>
        <time>2010-04-14T16:04:55Z</time>
      </trkpt>
      <trkpt lat="45.62905" lon="4.60177">
        <ele>842.315</ele>
        <time>2010-04-14T16:05:13Z</time>
      </trkpt>
      <trkpt lat="45.62905" lon="4.60177">
        <ele>839.97</ele>
        <time>2010-04-14T16:05:18Z</time>
      </trkpt>
      <trkpt lat="45.62903" lon="4.60233">
        <ele>839.227</ele>
        <time>2010-04-14T16:05:20Z</time>
      </trkpt>
      <trkpt lat="45.62901" lon="4.60276">
        <ele>835.866</ele>
        <time>2010-04-14T16:05:25Z</time>
      </trkpt>
      <trkpt lat="45.62887" lon="4.60342">
        <ele>831.076</ele>
        <time>2010-04-14T16:05:30Z</time>
      </trkpt>
      <trkpt lat="45.62873" lon="4.60395">
        <ele>827.289</ele>
        <time>2010-04-14T16:05:34Z</time>
      </trkpt>
      <trkpt lat="45.62852" lon="4.6045">
        <ele>823.163</ele>
        <time>2010-04-14T16:05:38Z</time>
      </trkpt>
      <trkpt lat="45.62825" lon="4.60502">
        <ele>819.119</ele>
        <time>2010-04-14T16:05:42Z</time>
      </trkpt>
      <trkpt lat="45.62804" lon="4.60505">
        <ele>817.11</ele>
        <time>2010-04-14T16:05:44Z</time>
      </trkpt>
      <trkpt lat="45.62755" lon="4.60521">
        <ele>812.698</ele>
        <time>2010-04-14T16:05:49Z</time>
      </trkpt>
      <trkpt lat="45.62732" lon="4.60547">
        <ele>809.486</ele>
        <time>2010-04-14T16:05:52Z</time>
      </trkpt>
      <trkpt lat="45.62722" lon="4.6057">
        <ele>807.15</ele>
        <time>2010-04-14T16:05:54Z</time>
      </trkpt>
      <trkpt lat="45.62699" lon="4.60633">
        <ele>803.181</ele>
        <time>2010-04-14T16:05:58Z</time>
      </trkpt>
      <trkpt lat="45.62691" lon="4.60702">
        <ele>798.496</ele>
        <time>2010-04-14T16:06:02Z</time>
      </trkpt>
      <trkpt lat="45.62692" lon="4.60717">
        <ele>797.432</ele>
        <time>2010-04-14T16:06:03Z</time>
      </trkpt>
      <trkpt lat="45.62696" lon="4.60784">
        <ele>793.425</ele>
        <time>2010-04-14T16:06:07Z</time>
      </trkpt>
      <trkpt lat="45.62711" lon="4.60868">
        <ele>787.902</ele>
        <time>2010-04-14T16:06:12Z</time>
      </trkpt>
      <trkpt lat="45.62717" lon="4.6093">
        <ele>784.626</ele>
        <time>2010-04-14T16:06:16Z</time>
      </trkpt>
      <trkpt lat="45.62712" lon="4.60939">
        <ele>783.755</ele>
        <time>2010-04-14T16:06:17Z</time>
      </trkpt>
      <trkpt lat="45.62692" lon="4.60965">
        <ele>781.446</ele>
        <time>2010-04-14T16:06:20Z</time>
      </trkpt>
      <trkpt lat="45.62658" lon="4.60998">
        <ele>777.308</ele>
        <time>2010-04-14T16:06:24Z</time>
      </trkpt>
      <trkpt lat="45.62591" lon="4.6103">
        <ele>770.596</ele>
        <time>2010-04-14T16:06:30Z</time>
      </trkpt>
      <trkpt lat="45.62529" lon="4.6106">
        <ele>764.582</ele>
        <time>2010-04-14T16:06:35Z</time>
      </trkpt>
      <trkpt lat="45.62516" lon="4.61065">
        <ele>764.292</ele>
        <time>2010-04-14T16:06:36Z</time>
      </trkpt>
      <trkpt lat="45.62481" lon="4.61081">
        <ele>760.482</ele>
        <time>2010-04-14T16:06:39Z</time>
      </trkpt>
      <trkpt lat="45.62403" lon="4.61079">
        <ele>752.625</ele>
        <time>2010-04-14T16:06:45Z</time>
      </trkpt>
      <trkpt lat="45.62336" lon="4.61078">
        <ele>746.854</ele>
        <time>2010-04-14T16:06:50Z</time>
      </trkpt>
      <trkpt lat="45.62285" lon="4.61055">
        <ele>742.023</ele>
        <time>2010-04-14T16:06:54Z</time>
      </trkpt>
      <trkpt lat="45.62234" lon="4.6104">
        <ele>737.526</ele>
        <time>2010-04-14T16:06:58Z</time>
      </trkpt>
      <trkpt lat="45.62175" lon="4.61031">
        <ele>734.379</ele>
        <time>2010-04-14T16:07:03Z</time>
      </trkpt>
      <trkpt lat="45.62166" lon="4.61033">
        <ele>734.032</ele>
        <time>2010-04-14T16:07:04Z</time>
      </trkpt>
      <trkpt lat="45.6215" lon="4.61035">
        <ele>732.229</ele>
        <time>2010-04-14T16:07:07Z</time>
      </trkpt>
      <trkpt lat="45.6215" lon="4.61038">
        <ele>732.277</ele>
        <time>2010-04-14T16:07:08Z</time>
      </trkpt>
      <trkpt lat="45.62152" lon="4.61057">
        <ele>730.77</ele>
        <time>2010-04-14T16:07:11Z</time>
      </trkpt>
      <trkpt lat="45.62165" lon="4.61051">
        <ele>729.093</ele>
        <time>2010-04-14T16:07:14Z</time>
      </trkpt>
      <trkpt lat="45.62173" lon="4.61053">
        <ele>728.295</ele>
        <time>2010-04-14T16:07:15Z</time>
      </trkpt>
      <trkpt lat="45.62186" lon="4.61063">
        <ele>727.219</ele>
        <time>2010-04-14T16:07:17Z</time>
      </trkpt>
      <trkpt lat="45.62206" lon="4.61078">
        <ele>722.59</ele>
        <time>2010-04-14T16:07:21Z</time>
      </trkpt>
      <trkpt lat="45.62219" lon="4.61088">
        <ele>720.636</ele>
        <time>2010-04-14T16:07:23Z</time>
      </trkpt>
      <trkpt lat="45.62311" lon="4.61153">
        <ele>712.732</ele>
        <time>2010-04-14T16:07:30Z</time>
      </trkpt>
      <trkpt lat="45.62323" lon="4.61163">
        <ele>711.342</ele>
        <time>2010-04-14T16:07:31Z</time>
      </trkpt>
      <trkpt lat="45.62404" lon="4.61226">
        <ele>704.219</ele>
        <time>2010-04-14T16:07:37Z</time>
      </trkpt>
      <trkpt lat="45.62416" lon="4.61235">
        <ele>702.786</ele>
        <time>2010-04-14T16:07:38Z</time>
      </trkpt>
      <trkpt lat="45.6244" lon="4.61252">
        <ele>701.618</ele>
        <time>2010-04-14T16:07:40Z</time>
      </trkpt>
      <trkpt lat="45.6245" lon="4.61259">
        <ele>700.451</ele>
        <time>2010-04-14T16:07:41Z</time>
      </trkpt>
      <trkpt lat="45.62498" lon="4.61289">
        <ele>695.367</ele>
        <time>2010-04-14T16:07:45Z</time>
      </trkpt>
      <trkpt lat="45.62523" lon="4.61302">
        <ele>692.943</ele>
        <time>2010-04-14T16:07:47Z</time>
      </trkpt>
      <trkpt lat="45.62588" lon="4.61308">
        <ele>689.238</ele>
        <time>2010-04-14T16:07:52Z</time>
      </trkpt>
      <trkpt lat="45.6262" lon="4.61318">
        <ele>685.897</ele>
        <time>2010-04-14T16:07:55Z</time>
      </trkpt>
      <trkpt lat="45.62629" lon="4.61329">
        <ele>685.179</ele>
        <time>2010-04-14T16:07:56Z</time>
      </trkpt>
      <trkpt lat="45.62645" lon="4.61349">
        <ele>682.732</ele>
        <time>2010-04-14T16:07:58Z</time>
      </trkpt>
      <trkpt lat="45.62682" lon="4.61382">
        <ele>679.13</ele>
        <time>2010-04-14T16:08:02Z</time>
      </trkpt>
      <trkpt lat="45.62704" lon="4.61392">
        <ele>677.998</ele>
        <time>2010-04-14T16:08:04Z</time>
      </trkpt>
      <trkpt lat="45.62714" lon="4.6139">
        <ele>677.279</ele>
        <time>2010-04-14T16:08:05Z</time>
      </trkpt>
      <trkpt lat="45.62742" lon="4.61387">
        <ele>676.195</ele>
        <time>2010-04-14T16:08:09Z</time>
      </trkpt>
      <trkpt lat="45.62755" lon="4.61396">
        <ele>674.408</ele>
        <time>2010-04-14T16:08:12Z</time>
      </trkpt>
      <trkpt lat="45.6275" lon="4.61413">
        <ele>673.482</ele>
        <time>2010-04-14T16:08:15Z</time>
      </trkpt>
      <trkpt lat="45.62716" lon="4.61426">
        <ele>669.88</ele>
        <time>2010-04-14T16:08:20Z</time>
      </trkpt>
      <trkpt lat="45.62695" lon="4.61434">
        <ele>666.713</ele>
        <time>2010-04-14T16:08:24Z</time>
      </trkpt>
      <trkpt lat="45.62658" lon="4.6143">
        <ele>664.767</ele>
        <time>2010-04-14T16:08:26Z</time>
      </trkpt>
      <trkpt lat="45.62631" lon="4.61404">
        <ele>662.662</ele>
        <time>2010-04-14T16:08:29Z</time>
      </trkpt>
      <trkpt lat="45.62622" lon="4.61396">
        <ele>661.932</ele>
        <time>2010-04-14T16:08:30Z</time>
      </trkpt>
      <trkpt lat="45.62584" lon="4.61392">
        <ele>657.141</ele>
        <time>2010-04-14T16:08:34Z</time>
      </trkpt>
      <trkpt lat="45.62576" lon="4.61396">
        <ele>656.002</ele>
        <time>2010-04-14T16:08:35Z</time>
      </trkpt>
      <trkpt lat="45.62507" lon="4.61442">
        <ele>649.481</ele>
        <time>2010-04-14T16:08:42Z</time>
      </trkpt>
      <trkpt lat="45.62462" lon="4.61471">
        <ele>644.926</ele>
        <time>2010-04-14T16:08:46Z</time>
      </trkpt>
      <trkpt lat="45.62436" lon="4.61482">
        <ele>643.085</ele>
        <time>2010-04-14T16:08:48Z</time>
      </trkpt>
      <trkpt lat="45.62385" lon="4.61489">
        <ele>640.045</ele>
        <time>2010-04-14T16:08:52Z</time>
      </trkpt>
      <trkpt lat="45.62373" lon="4.61488">
        <ele>639.852</ele>
        <time>2010-04-14T16:08:53Z</time>
      </trkpt>
      <trkpt lat="45.62324" lon="4.61483">
        <ele>637.809</ele>
        <time>2010-04-14T16:08:57Z</time>
      </trkpt>
      <trkpt lat="45.62217" lon="4.61474">
        <ele>631.371</ele>
        <time>2010-04-14T16:09:06Z</time>
      </trkpt>
      <trkpt lat="45.62181" lon="4.61467">
        <ele>629.847</ele>
        <time>2010-04-14T16:09:09Z</time>
      </trkpt>
      <trkpt lat="45.62135" lon="4.61456">
        <ele>627.928</ele>
        <time>2010-04-14T16:09:13Z</time>
      </trkpt>
      <trkpt lat="45.62081" lon="4.61443">
        <ele>624.802</ele>
        <time>2010-04-14T16:09:18Z</time>
      </trkpt>
      <trkpt lat="45.62036" lon="4.61449">
        <ele>621.725</ele>
        <time>2010-04-14T16:09:22Z</time>
      </trkpt>
      <trkpt lat="45.62012" lon="4.61479">
        <ele>619.931</ele>
        <time>2010-04-14T16:09:25Z</time>
      </trkpt>
      <trkpt lat="45.61996" lon="4.61518">
        <ele>617.596</ele>
        <time>2010-04-14T16:09:28Z</time>
      </trkpt>
      <trkpt lat="45.61988" lon="4.61547">
        <ele>616.593</ele>
        <time>2010-04-14T16:09:30Z</time>
      </trkpt>
      <trkpt lat="45.61965" lon="4.61657">
        <ele>610.636</ele>
        <time>2010-04-14T16:09:37Z</time>
      </trkpt>
      <trkpt lat="45.61956" lon="4.61794">
        <ele>603.197</ele>
        <time>2010-04-14T16:09:45Z</time>
      </trkpt>
      <trkpt lat="45.61947" lon="4.6192">
        <ele>594.133</ele>
        <time>2010-04-14T16:09:52Z</time>
      </trkpt>
      <trkpt lat="45.6194" lon="4.62031">
        <ele>588.857</ele>
        <time>2010-04-14T16:09:58Z</time>
      </trkpt>
      <trkpt lat="45.61936" lon="4.62116">
        <ele>585.843</ele>
        <time>2010-04-14T16:10:03Z</time>
      </trkpt>
      <trkpt lat="45.61938" lon="4.6221">
        <ele>581.699</ele>
        <time>2010-04-14T16:10:09Z</time>
      </trkpt>
      <trkpt lat="45.61943" lon="4.62332">
        <ele>576.869</ele>
        <time>2010-04-14T16:10:17Z</time>
      </trkpt>
      <trkpt lat="45.61947" lon="4.62453">
        <ele>575.115</ele>
        <time>2010-04-14T16:10:25Z</time>
      </trkpt>
      <trkpt lat="45.61953" lon="4.62519">
        <ele>575.427</ele>
        <time>2010-04-14T16:10:30Z</time>
      </trkpt>
      <trkpt lat="45.61966" lon="4.62612">
        <ele>575.217</ele>
        <time>2010-04-14T16:10:38Z</time>
      </trkpt>
      <trkpt lat="45.61974" lon="4.62677">
        <ele>575.86</ele>
        <time>2010-04-14T16:10:44Z</time>
      </trkpt>
      <trkpt lat="45.61968" lon="4.62744">
        <ele>577.707</ele>
        <time>2010-04-14T16:10:51Z</time>
      </trkpt>
      <trkpt lat="45.61967" lon="4.62753">
        <ele>578.005</ele>
        <time>2010-04-14T16:10:52Z</time>
      </trkpt>
      <trkpt lat="45.61965" lon="4.62768">
        <ele>578.946</ele>
        <time>2010-04-14T16:10:54Z</time>
      </trkpt>
      <trkpt lat="45.6196" lon="4.62796">
        <ele>581.001</ele>
        <time>2010-04-14T16:10:58Z</time>
      </trkpt>
      <trkpt lat="45.61956" lon="4.62822">
        <ele>581.962</ele>
        <time>2010-04-14T16:11:02Z</time>
      </trkpt>
      <trkpt lat="45.61949" lon="4.6286">
        <ele>583.318</ele>
        <time>2010-04-14T16:11:09Z</time>
      </trkpt>
      <trkpt lat="45.61948" lon="4.62889">
        <ele>582.482</ele>
        <time>2010-04-14T16:11:15Z</time>
      </trkpt>
      <trkpt lat="45.61948" lon="4.62931">
        <ele>580.8</ele>
        <time>2010-04-14T16:11:21Z</time>
      </trkpt>
      <trkpt lat="45.61948" lon="4.62977">
        <ele>577.404</ele>
        <time>2010-04-14T16:11:26Z</time>
      </trkpt>
      <trkpt lat="45.61958" lon="4.63022">
        <ele>574.569</ele>
        <time>2010-04-14T16:11:30Z</time>
      </trkpt>
      <trkpt lat="45.6198" lon="4.63078">
        <ele>570.514</ele>
        <time>2010-04-14T16:11:35Z</time>
      </trkpt>
      <trkpt lat="45.6199" lon="4.63102">
        <ele>568.159</ele>
        <time>2010-04-14T16:11:37Z</time>
      </trkpt>
      <trkpt lat="45.62002" lon="4.63157">
        <ele>564.451</ele>
        <time>2010-04-14T16:11:41Z</time>
      </trkpt>
      <trkpt lat="45.62003" lon="4.63172">
        <ele>564.191</ele>
        <time>2010-04-14T16:11:42Z</time>
      </trkpt>
      <trkpt lat="45.61997" lon="4.63266">
        <ele>558.368</ele>
        <time>2010-04-14T16:11:48Z</time>
      </trkpt>
      <trkpt lat="45.61975" lon="4.63349">
        <ele>551.295</ele>
        <time>2010-04-14T16:11:54Z</time>
      </trkpt>
      <trkpt lat="45.61966" lon="4.63378">
        <ele>548.168</ele>
        <time>2010-04-14T16:11:58Z</time>
      </trkpt>
      <trkpt lat="45.61947" lon="4.63466">
        <ele>543.131</ele>
        <time>2010-04-14T16:12:03Z</time>
      </trkpt>
      <trkpt lat="45.61944" lon="4.6351">
        <ele>540.406</ele>
        <time>2010-04-14T16:12:07Z</time>
      </trkpt>
      <trkpt lat="45.61955" lon="4.63564">
        <ele>536.408</ele>
        <time>2010-04-14T16:12:12Z</time>
      </trkpt>
      <trkpt lat="45.61969" lon="4.63611">
        <ele>532.602</ele>
        <time>2010-04-14T16:12:17Z</time>
      </trkpt>
      <trkpt lat="45.61982" lon="4.63658">
        <ele>528.006</ele>
        <time>2010-04-14T16:12:21Z</time>
      </trkpt>
      <trkpt lat="45.61986" lon="4.63671">
        <ele>527.81</ele>
        <time>2010-04-14T16:12:22Z</time>
      </trkpt>
      <trkpt lat="45.6201" lon="4.63723">
        <ele>522.427</ele>
        <time>2010-04-14T16:12:27Z</time>
      </trkpt>
      <trkpt lat="45.62027" lon="4.63759">
        <ele>518.716</ele>
        <time>2010-04-14T16:12:32Z</time>
      </trkpt>
      <trkpt lat="45.6203" lon="4.63765">
        <ele>518.453</ele>
        <time>2010-04-14T16:12:33Z</time>
      </trkpt>
      <trkpt lat="45.6203" lon="4.63765">
        <ele>514.807</ele>
        <time>2010-04-14T16:12:38Z</time>
      </trkpt>
      <trkpt lat="45.62043" lon="4.63803">
        <ele>513.713</ele>
        <time>2010-04-14T16:12:40Z</time>
      </trkpt>
      <trkpt lat="45.6204" lon="4.63831">
        <ele>510.604</ele>
        <time>2010-04-14T16:12:45Z</time>
      </trkpt>
      <trkpt lat="45.62039" lon="4.63837">
        <ele>510.353</ele>
        <time>2010-04-14T16:12:48Z</time>
      </trkpt>
      <trkpt lat="45.62039" lon="4.63842">
        <ele>509.272</ele>
        <time>2010-04-14T16:12:53Z</time>
      </trkpt>
      <trkpt lat="45.62059" lon="4.63873">
        <ele>508.293</ele>
        <time>2010-04-14T16:12:59Z</time>
      </trkpt>
      <trkpt lat="45.62077" lon="4.63901">
        <ele>507.497</ele>
        <time>2010-04-14T16:13:05Z</time>
      </trkpt>
      <trkpt lat="45.62079" lon="4.63905">
        <ele>507.361</ele>
        <time>2010-04-14T16:13:06Z</time>
      </trkpt>
      <trkpt lat="45.62086" lon="4.63919">
        <ele>507.348</ele>
        <time>2010-04-14T16:13:10Z</time>
      </trkpt>
      <trkpt lat="45.62086" lon="4.63919">
        <ele>507.728</ele>
        <time>2010-04-14T16:13:12Z</time>
      </trkpt>
      <trkpt lat="45.62117" lon="4.63922">
        <ele>508.071</ele>
        <time>2010-04-14T16:13:16Z</time>
      </trkpt>
      <trkpt lat="45.62149" lon="4.63923">
        <ele>508.818</ele>
        <time>2010-04-14T16:13:23Z</time>
      </trkpt>
      <trkpt lat="45.62171" lon="4.63922">
        <ele>509.059</ele>
        <time>2010-04-14T16:13:28Z</time>
      </trkpt>
      <trkpt lat="45.62207" lon="4.63921">
        <ele>509.26</ele>
        <time>2010-04-14T16:13:36Z</time>
      </trkpt>
      <trkpt lat="45.62243" lon="4.6392">
        <ele>509.657</ele>
        <time>2010-04-14T16:13:44Z</time>
      </trkpt>
      <trkpt lat="45.62278" lon="4.63921">
        <ele>509.918</ele>
        <time>2010-04-14T16:13:52Z</time>
      </trkpt>
      <trkpt lat="45.62304" lon="4.63924">
        <ele>511.571</ele>
        <time>2010-04-14T16:13:58Z</time>
      </trkpt>
      <trkpt lat="45.62315" lon="4.63927">
        <ele>512.264</ele>
        <time>2010-04-14T16:14:01Z</time>
      </trkpt>
      <trkpt lat="45.62335" lon="4.63932">
        <ele>510.721</ele>
        <time>2010-04-14T16:14:06Z</time>
      </trkpt>
      <trkpt lat="45.62356" lon="4.63936">
        <ele>507.434</ele>
        <time>2010-04-14T16:14:12Z</time>
      </trkpt>
      <trkpt lat="45.6241" lon="4.6394">
        <ele>504.083</ele>
        <time>2010-04-14T16:14:18Z</time>
      </trkpt>
      <trkpt lat="45.62459" lon="4.63948">
        <ele>498.572</ele>
        <time>2010-04-14T16:14:25Z</time>
      </trkpt>
      <trkpt lat="45.62497" lon="4.63955">
        <ele>493.549</ele>
        <time>2010-04-14T16:14:30Z</time>
      </trkpt>
      <trkpt lat="45.62538" lon="4.63981">
        <ele>488.827</ele>
        <time>2010-04-14T16:14:35Z</time>
      </trkpt>
      <trkpt lat="45.62566" lon="4.64004">
        <ele>486.209</ele>
        <time>2010-04-14T16:14:39Z</time>
      </trkpt>
      <trkpt lat="45.6258" lon="4.64015">
        <ele>484.228</ele>
        <time>2010-04-14T16:14:41Z</time>
      </trkpt>
      <trkpt lat="45.62588" lon="4.64019">
        <ele>483.349</ele>
        <time>2010-04-14T16:14:42Z</time>
      </trkpt>
      <trkpt lat="45.62617" lon="4.64028">
        <ele>478.639</ele>
        <time>2010-04-14T16:14:46Z</time>
      </trkpt>
      <trkpt lat="45.62668" lon="4.6405">
        <ele>470.95</ele>
        <time>2010-04-14T16:14:52Z</time>
      </trkpt>
      <trkpt lat="45.62686" lon="4.6406">
        <ele>469.017</ele>
        <time>2010-04-14T16:14:54Z</time>
      </trkpt>
      <trkpt lat="45.62731" lon="4.64078">
        <ele>465.181</ele>
        <time>2010-04-14T16:14:59Z</time>
      </trkpt>
      <trkpt lat="45.62753" lon="4.64078">
        <ele>463.465</ele>
        <time>2010-04-14T16:15:02Z</time>
      </trkpt>
      <trkpt lat="45.62765" lon="4.64073">
        <ele>462.237</ele>
        <time>2010-04-14T16:15:05Z</time>
      </trkpt>
      <trkpt lat="45.62771" lon="4.64054">
        <ele>458.882</ele>
        <time>2010-04-14T16:15:09Z</time>
      </trkpt>
      <trkpt lat="45.62772" lon="4.64047">
        <ele>457.932</ele>
        <time>2010-04-14T16:15:10Z</time>
      </trkpt>
      <trkpt lat="45.62772" lon="4.6403">
        <ele>455.871</ele>
        <time>2010-04-14T16:15:12Z</time>
      </trkpt>
      <trkpt lat="45.62763" lon="4.63987">
        <ele>452.397</ele>
        <time>2010-04-14T16:15:16Z</time>
      </trkpt>
      <trkpt lat="45.62747" lon="4.63968">
        <ele>449.888</ele>
        <time>2010-04-14T16:15:19Z</time>
      </trkpt>
      <trkpt lat="45.62739" lon="4.63951">
        <ele>447.96</ele>
        <time>2010-04-14T16:15:22Z</time>
      </trkpt>
      <trkpt lat="45.62738" lon="4.63941">
        <ele>445.259</ele>
        <time>2010-04-14T16:15:25Z</time>
      </trkpt>
      <trkpt lat="45.62745" lon="4.63939">
        <ele>442.786</ele>
        <time>2010-04-14T16:15:27Z</time>
      </trkpt>
      <trkpt lat="45.6278" lon="4.63945">
        <ele>438.542</ele>
        <time>2010-04-14T16:15:31Z</time>
      </trkpt>
      <trkpt lat="45.62789" lon="4.63951">
        <ele>437.34</ele>
        <time>2010-04-14T16:15:32Z</time>
      </trkpt>
      <trkpt lat="45.62841" lon="4.63992">
        <ele>432.047</ele>
        <time>2010-04-14T16:15:38Z</time>
      </trkpt>
      <trkpt lat="45.62888" lon="4.64015">
        <ele>427.393</ele>
        <time>2010-04-14T16:15:43Z</time>
      </trkpt>
      <trkpt lat="45.62923" lon="4.64029">
        <ele>423.707</ele>
        <time>2010-04-14T16:15:47Z</time>
      </trkpt>
      <trkpt lat="45.62953" lon="4.6406">
        <ele>423.13</ele>
        <time>2010-04-14T16:15:51Z</time>
      </trkpt>
      <trkpt lat="45.62981" lon="4.64111">
        <ele>424.392</ele>
        <time>2010-04-14T16:15:57Z</time>
      </trkpt>
      <trkpt lat="45.63005" lon="4.64155">
        <ele>425.087</ele>
        <time>2010-04-14T16:16:04Z</time>
      </trkpt>
      <trkpt lat="45.63027" lon="4.64204">
        <ele>424.482</ele>
        <time>2010-04-14T16:16:12Z</time>
      </trkpt>
      <trkpt lat="45.63034" lon="4.6424">
        <ele>422.819</ele>
        <time>2010-04-14T16:16:17Z</time>
      </trkpt>
      <trkpt lat="45.63059" lon="4.64266">
        <ele>424.525</ele>
        <time>2010-04-14T16:16:22Z</time>
      </trkpt>
      <trkpt lat="45.63074" lon="4.6429">
        <ele>425.346</ele>
        <time>2010-04-14T16:16:28Z</time>
      </trkpt>
      <trkpt lat="45.63088" lon="4.64312">
        <ele>426.461</ele>
        <time>2010-04-14T16:16:36Z</time>
      </trkpt>
      <trkpt lat="45.63105" lon="4.64341">
        <ele>428.744</ele>
        <time>2010-04-14T16:16:45Z</time>
      </trkpt>
      <trkpt lat="45.63121" lon="4.64355">
        <ele>429.639</ele>
        <time>2010-04-14T16:16:52Z</time>
      </trkpt>
      <trkpt lat="45.63139" lon="4.64355">
        <ele>431.097</ele>
        <time>2010-04-14T16:16:59Z</time>
      </trkpt>
      <trkpt lat="45.63158" lon="4.64352">
        <ele>432.641</ele>
        <time>2010-04-14T16:17:06Z</time>
      </trkpt>
      <trkpt lat="45.63179" lon="4.64349">
        <ele>434.162</ele>
        <time>2010-04-14T16:17:14Z</time>
      </trkpt>
      <trkpt lat="45.63205" lon="4.64346">
        <ele>435.91</ele>
        <time>2010-04-14T16:17:24Z</time>
      </trkpt>
      <trkpt lat="45.6323" lon="4.64342">
        <ele>437.598</ele>
        <time>2010-04-14T16:17:34Z</time>
      </trkpt>
      <trkpt lat="45.63258" lon="4.64338">
        <ele>439.446</ele>
        <time>2010-04-14T16:17:45Z</time>
      </trkpt>
      <trkpt lat="45.63281" lon="4.64335">
        <ele>440.821</ele>
        <time>2010-04-14T16:17:54Z</time>
      </trkpt>
      <trkpt lat="45.63306" lon="4.64331">
        <ele>442.733</ele>
        <time>2010-04-14T16:18:04Z</time>
      </trkpt>
      <trkpt lat="45.63328" lon="4.64326">
        <ele>444.232</ele>
        <time>2010-04-14T16:18:13Z</time>
      </trkpt>
      <trkpt lat="45.63349" lon="4.64319">
        <ele>445.77</ele>
        <time>2010-04-14T16:18:22Z</time>
      </trkpt>
      <trkpt lat="45.63375" lon="4.64311">
        <ele>447.551</ele>
        <time>2010-04-14T16:18:33Z</time>
      </trkpt>
      <trkpt lat="45.63394" lon="4.64297">
        <ele>449.268</ele>
        <time>2010-04-14T16:18:42Z</time>
      </trkpt>
      <trkpt lat="45.63397" lon="4.64282">
        <ele>450.2</ele>
        <time>2010-04-14T16:18:48Z</time>
      </trkpt>
      <trkpt lat="45.63396" lon="4.64267">
        <ele>451.29</ele>
        <time>2010-04-14T16:18:54Z</time>
      </trkpt>
      <trkpt lat="45.63386" lon="4.6425">
        <ele>452.134</ele>
        <time>2010-04-14T16:19:01Z</time>
      </trkpt>
      <trkpt lat="45.6337" lon="4.64241">
        <ele>452.95</ele>
        <time>2010-04-14T16:19:09Z</time>
      </trkpt>
      <trkpt lat="45.6334" lon="4.64245">
        <ele>454.562</ele>
        <time>2010-04-14T16:19:20Z</time>
      </trkpt>
      <trkpt lat="45.63319" lon="4.64236">
        <ele>455.642</ele>
        <time>2010-04-14T16:19:28Z</time>
      </trkpt>
      <trkpt lat="45.63304" lon="4.64217">
        <ele>457.452</ele>
        <time>2010-04-14T16:19:36Z</time>
      </trkpt>
      <trkpt lat="45.63292" lon="4.64195">
        <ele>458.391</ele>
        <time>2010-04-14T16:19:44Z</time>
      </trkpt>
      <trkpt lat="45.63292" lon="4.64194">
        <ele>460.212</ele>
        <time>2010-04-14T16:19:53Z</time>
      </trkpt>
      <trkpt lat="45.63267" lon="4.64141">
        <ele>461.283</ele>
        <time>2010-04-14T16:20:01Z</time>
      </trkpt>
      <trkpt lat="45.63266" lon="4.64138">
        <ele>462.924</ele>
        <time>2010-04-14T16:20:09Z</time>
      </trkpt>
      <trkpt lat="45.63253" lon="4.64086">
        <ele>464.898</ele>
        <time>2010-04-14T16:20:18Z</time>
      </trkpt>
      <trkpt lat="45.63253" lon="4.64064">
        <ele>466.595</ele>
        <time>2010-04-14T16:20:25Z</time>
      </trkpt>
      <trkpt lat="45.63253" lon="4.64061">
        <ele>467.847</ele>
        <time>2010-04-14T16:20:32Z</time>
      </trkpt>
      <trkpt lat="45.63264" lon="4.6402">
        <ele>469.922</ele>
        <time>2010-04-14T16:20:40Z</time>
      </trkpt>
      <trkpt lat="45.63271" lon="4.64001">
        <ele>471.653</ele>
        <time>2010-04-14T16:20:47Z</time>
      </trkpt>
      <trkpt lat="45.63278" lon="4.63982">
        <ele>473.313</ele>
        <time>2010-04-14T16:20:55Z</time>
      </trkpt>
      <trkpt lat="45.63292" lon="4.63958">
        <ele>475.776</ele>
        <time>2010-04-14T16:21:07Z</time>
      </trkpt>
      <trkpt lat="45.63306" lon="4.63927">
        <ele>478.177</ele>
        <time>2010-04-14T16:21:19Z</time>
      </trkpt>
      <trkpt lat="45.63315" lon="4.63908">
        <ele>479.717</ele>
        <time>2010-04-14T16:21:27Z</time>
      </trkpt>
      <trkpt lat="45.63317" lon="4.63903">
        <ele>479.977</ele>
        <time>2010-04-14T16:21:29Z</time>
      </trkpt>
      <trkpt lat="45.63334" lon="4.63914">
        <ele>480.515</ele>
        <time>2010-04-14T16:21:34Z</time>
      </trkpt>
      <trkpt lat="45.63339" lon="4.63932">
        <ele>479.884</ele>
        <time>2010-04-14T16:21:42Z</time>
      </trkpt>
      <trkpt lat="45.63339" lon="4.63932">
        <ele>479.422</ele>
        <time>2010-04-14T16:21:44Z</time>
      </trkpt>
      <trkpt lat="45.63339" lon="4.63932">
        <ele>478.276</ele>
        <time>2010-04-14T16:21:46Z</time>
      </trkpt>
      <trkpt lat="45.63356" lon="4.63971">
        <ele>478.859</ele>
        <time>2010-04-14T16:21:49Z</time>
      </trkpt>
      <trkpt lat="45.63386" lon="4.63958">
        <ele>480.41</ele>
        <time>2010-04-14T16:21:57Z</time>
      </trkpt>
      <trkpt lat="45.63403" lon="4.63951">
        <ele>480.958</ele>
        <time>2010-04-14T16:22:03Z</time>
      </trkpt>
      <trkpt lat="45.63425" lon="4.63946">
        <ele>482.017</ele>
        <time>2010-04-14T16:22:10Z</time>
      </trkpt>
      <trkpt lat="45.63444" lon="4.63953">
        <ele>482.746</ele>
        <time>2010-04-14T16:22:16Z</time>
      </trkpt>
      <trkpt lat="45.63467" lon="4.63965">
        <ele>483.705</ele>
        <time>2010-04-14T16:22:24Z</time>
      </trkpt>
      <trkpt lat="45.63493" lon="4.63981">
        <ele>484.437</ele>
        <time>2010-04-14T16:22:33Z</time>
      </trkpt>
      <trkpt lat="45.63511" lon="4.63992">
        <ele>483.925</ele>
        <time>2010-04-14T16:22:40Z</time>
      </trkpt>
      <trkpt lat="45.63511" lon="4.63992">
        <ele>482.481</ele>
        <time>2010-04-14T16:22:44Z</time>
      </trkpt>
      <trkpt lat="45.63558" lon="4.64034">
        <ele>480.61</ele>
        <time>2010-04-14T16:22:50Z</time>
      </trkpt>
      <trkpt lat="45.63573" lon="4.64047">
        <ele>480.254</ele>
        <time>2010-04-14T16:22:53Z</time>
      </trkpt>
      <trkpt lat="45.63605" lon="4.64061">
        <ele>477.846</ele>
        <time>2010-04-14T16:23:00Z</time>
      </trkpt>
      <trkpt lat="45.6366" lon="4.64082">
        <ele>476.279</ele>
        <time>2010-04-14T16:23:07Z</time>
      </trkpt>
      <trkpt lat="45.63687" lon="4.64094">
        <ele>475.155</ele>
        <time>2010-04-14T16:23:11Z</time>
      </trkpt>
      <trkpt lat="45.63712" lon="4.64112">
        <ele>475.04</ele>
        <time>2010-04-14T16:23:15Z</time>
      </trkpt>
      <trkpt lat="45.63722" lon="4.64131">
        <ele>476.224</ele>
        <time>2010-04-14T16:23:18Z</time>
      </trkpt>
      <trkpt lat="45.63738" lon="4.64172">
        <ele>478.866</ele>
        <time>2010-04-14T16:23:26Z</time>
      </trkpt>
      <trkpt lat="45.63745" lon="4.64191">
        <ele>479.696</ele>
        <time>2010-04-14T16:23:30Z</time>
      </trkpt>
      <trkpt lat="45.63752" lon="4.64209">
        <ele>480.518</ele>
        <time>2010-04-14T16:23:34Z</time>
      </trkpt>
      <trkpt lat="45.63766" lon="4.64232">
        <ele>481.815</ele>
        <time>2010-04-14T16:23:40Z</time>
      </trkpt>
      <trkpt lat="45.63786" lon="4.6426">
        <ele>482.367</ele>
        <time>2010-04-14T16:23:49Z</time>
      </trkpt>
      <trkpt lat="45.63802" lon="4.64281">
        <ele>483.609</ele>
        <time>2010-04-14T16:23:56Z</time>
      </trkpt>
      <trkpt lat="45.63824" lon="4.64311">
        <ele>484.6</ele>
        <time>2010-04-14T16:24:06Z</time>
      </trkpt>
      <trkpt lat="45.6384" lon="4.64332">
        <ele>484.322</ele>
        <time>2010-04-14T16:24:13Z</time>
      </trkpt>
      <trkpt lat="45.63858" lon="4.64355">
        <ele>483.745</ele>
        <time>2010-04-14T16:24:20Z</time>
      </trkpt>
      <trkpt lat="45.63867" lon="4.64367">
        <ele>482.86</ele>
        <time>2010-04-14T16:24:23Z</time>
      </trkpt>
      <trkpt lat="45.63885" lon="4.64382">
        <ele>482.142</ele>
        <time>2010-04-14T16:24:28Z</time>
      </trkpt>
      <trkpt lat="45.63894" lon="4.64375">
        <ele>481.288</ele>
        <time>2010-04-14T16:24:31Z</time>
      </trkpt>
      <trkpt lat="45.63901" lon="4.64359">
        <ele>480.776</ele>
        <time>2010-04-14T16:24:34Z</time>
      </trkpt>
      <trkpt lat="45.63902" lon="4.64351">
        <ele>480.16</ele>
        <time>2010-04-14T16:24:35Z</time>
      </trkpt>
      <trkpt lat="45.63903" lon="4.64334">
        <ele>479.483</ele>
        <time>2010-04-14T16:24:37Z</time>
      </trkpt>
      <trkpt lat="45.63904" lon="4.64316">
        <ele>478.892</ele>
        <time>2010-04-14T16:24:39Z</time>
      </trkpt>
      <trkpt lat="45.63908" lon="4.64239">
        <ele>476.675</ele>
        <time>2010-04-14T16:24:47Z</time>
      </trkpt>
      <trkpt lat="45.6391" lon="4.64219">
        <ele>476.198</ele>
        <time>2010-04-14T16:24:49Z</time>
      </trkpt>
      <trkpt lat="45.63916" lon="4.64189">
        <ele>475.211</ele>
        <time>2010-04-14T16:24:52Z</time>
      </trkpt>
      <trkpt lat="45.63924" lon="4.64165">
        <ele>475.047</ele>
        <time>2010-04-14T16:24:55Z</time>
      </trkpt>
      <trkpt lat="45.6394" lon="4.64159">
        <ele>475.026</ele>
        <time>2010-04-14T16:24:57Z</time>
      </trkpt>
      <trkpt lat="45.6395" lon="4.64174">
        <ele>475.629</ele>
        <time>2010-04-14T16:25:00Z</time>
      </trkpt>
      <trkpt lat="45.63957" lon="4.64208">
        <ele>477.227</ele>
        <time>2010-04-14T16:25:07Z</time>
      </trkpt>
      <trkpt lat="45.63967" lon="4.64248">
        <ele>478.322</ele>
        <time>2010-04-14T16:25:16Z</time>
      </trkpt>
      <trkpt lat="45.63975" lon="4.64273">
        <ele>479.055</ele>
        <time>2010-04-14T16:25:22Z</time>
      </trkpt>
      <trkpt lat="45.63986" lon="4.64296">
        <ele>479.667</ele>
        <time>2010-04-14T16:25:29Z</time>
      </trkpt>
      <trkpt lat="45.63995" lon="4.64314">
        <ele>480.972</ele>
        <time>2010-04-14T16:25:34Z</time>
      </trkpt>
      <trkpt lat="45.64007" lon="4.64314">
        <ele>482.451</ele>
        <time>2010-04-14T16:25:39Z</time>
      </trkpt>
      <trkpt lat="45.64023" lon="4.64308">
        <ele>483.723</ele>
        <time>2010-04-14T16:25:45Z</time>
      </trkpt>
      <trkpt lat="45.64044" lon="4.64298">
        <ele>485.343</ele>
        <time>2010-04-14T16:25:53Z</time>
      </trkpt>
      <trkpt lat="45.64062" lon="4.64288">
        <ele>487.126</ele>
        <time>2010-04-14T16:26:01Z</time>
      </trkpt>
      <trkpt lat="45.64076" lon="4.6428">
        <ele>487.855</ele>
        <time>2010-04-14T16:26:08Z</time>
      </trkpt>
      <trkpt lat="45.64092" lon="4.6428">
        <ele>488.374</ele>
        <time>2010-04-14T16:26:14Z</time>
      </trkpt>
      <trkpt lat="45.64107" lon="4.64286">
        <ele>488.999</ele>
        <time>2010-04-14T16:26:19Z</time>
      </trkpt>
      <trkpt lat="45.64114" lon="4.64313">
        <ele>489.613</ele>
        <time>2010-04-14T16:26:25Z</time>
      </trkpt>
      <trkpt lat="45.64113" lon="4.6434">
        <ele>491.169</ele>
        <time>2010-04-14T16:26:32Z</time>
      </trkpt>
      <trkpt lat="45.64107" lon="4.64372">
        <ele>492.453</ele>
        <time>2010-04-14T16:26:41Z</time>
      </trkpt>
      <trkpt lat="45.64103" lon="4.64412">
        <ele>494.285</ele>
        <time>2010-04-14T16:26:52Z</time>
      </trkpt>
      <trkpt lat="45.64106" lon="4.64444">
        <ele>495.554</ele>
        <time>2010-04-14T16:27:01Z</time>
      </trkpt>
      <trkpt lat="45.64117" lon="4.64473">
        <ele>496.963</ele>
        <time>2010-04-14T16:27:10Z</time>
      </trkpt>
      <trkpt lat="45.64135" lon="4.64497">
        <ele>498.593</ele>
        <time>2010-04-14T16:27:20Z</time>
      </trkpt>
      <trkpt lat="45.64155" lon="4.64515">
        <ele>500.389</ele>
        <time>2010-04-14T16:27:29Z</time>
      </trkpt>
      <trkpt lat="45.64179" lon="4.64531">
        <ele>502.136</ele>
        <time>2010-04-14T16:27:39Z</time>
      </trkpt>
      <trkpt lat="45.64201" lon="4.64546">
        <ele>503.797</ele>
        <time>2010-04-14T16:27:48Z</time>
      </trkpt>
      <trkpt lat="45.64219" lon="4.64559">
        <ele>505.304</ele>
        <time>2010-04-14T16:27:58Z</time>
      </trkpt>
      <trkpt lat="45.64248" lon="4.64579">
        <ele>507.071</ele>
        <time>2010-04-14T16:28:07Z</time>
      </trkpt>
      <trkpt lat="45.64269" lon="4.64594">
        <ele>508.666</ele>
        <time>2010-04-14T16:28:16Z</time>
      </trkpt>
      <trkpt lat="45.64288" lon="4.64615">
        <ele>510.279</ele>
        <time>2010-04-14T16:28:24Z</time>
      </trkpt>
      <trkpt lat="45.64296" lon="4.6464">
        <ele>511.799</ele>
        <time>2010-04-14T16:28:31Z</time>
      </trkpt>
      <trkpt lat="45.64309" lon="4.64662">
        <ele>513.168</ele>
        <time>2010-04-14T16:28:39Z</time>
      </trkpt>
      <trkpt lat="45.64327" lon="4.6468">
        <ele>514.204</ele>
        <time>2010-04-14T16:28:47Z</time>
      </trkpt>
      <trkpt lat="45.64347" lon="4.647">
        <ele>514.125</ele>
        <time>2010-04-14T16:28:56Z</time>
      </trkpt>
      <trkpt lat="45.64371" lon="4.64722">
        <ele>513.277</ele>
        <time>2010-04-14T16:29:05Z</time>
      </trkpt>
      <trkpt lat="45.64394" lon="4.6474">
        <ele>512.666</ele>
        <time>2010-04-14T16:29:12Z</time>
      </trkpt>
      <trkpt lat="45.64426" lon="4.64752">
        <ele>510.789</ele>
        <time>2010-04-14T16:29:19Z</time>
      </trkpt>
      <trkpt lat="45.64436" lon="4.64755">
        <ele>509.745</ele>
        <time>2010-04-14T16:29:21Z</time>
      </trkpt>
      <trkpt lat="45.64469" lon="4.64748">
        <ele>509.631</ele>
        <time>2010-04-14T16:29:28Z</time>
      </trkpt>
      <trkpt lat="45.64502" lon="4.64739">
        <ele>507.686</ele>
        <time>2010-04-14T16:29:34Z</time>
      </trkpt>
      <trkpt lat="45.64508" lon="4.64738">
        <ele>507.615</ele>
        <time>2010-04-14T16:29:35Z</time>
      </trkpt>
      <trkpt lat="45.64514" lon="4.64736">
        <ele>507.28</ele>
        <time>2010-04-14T16:29:36Z</time>
      </trkpt>
      <trkpt lat="45.64547" lon="4.64716">
        <ele>505.547</ele>
        <time>2010-04-14T16:29:42Z</time>
      </trkpt>
      <trkpt lat="45.64564" lon="4.64692">
        <ele>505.179</ele>
        <time>2010-04-14T16:29:46Z</time>
      </trkpt>
      <trkpt lat="45.64572" lon="4.64681">
        <ele>504.801</ele>
        <time>2010-04-14T16:29:48Z</time>
      </trkpt>
      <trkpt lat="45.64584" lon="4.64665">
        <ele>505.043</ele>
        <time>2010-04-14T16:29:51Z</time>
      </trkpt>
      <trkpt lat="45.64598" lon="4.64639">
        <ele>504.959</ele>
        <time>2010-04-14T16:29:55Z</time>
      </trkpt>
      <trkpt lat="45.64603" lon="4.64618">
        <ele>504.974</ele>
        <time>2010-04-14T16:29:58Z</time>
      </trkpt>
      <trkpt lat="45.64612" lon="4.6458">
        <ele>504.529</ele>
        <time>2010-04-14T16:30:03Z</time>
      </trkpt>
      <trkpt lat="45.64622" lon="4.64574">
        <ele>505.08</ele>
        <time>2010-04-14T16:30:05Z</time>
      </trkpt>
      <trkpt lat="45.64638" lon="4.64579">
        <ele>505.969</ele>
        <time>2010-04-14T16:30:08Z</time>
      </trkpt>
      <trkpt lat="45.64663" lon="4.64604">
        <ele>507.554</ele>
        <time>2010-04-14T16:30:15Z</time>
      </trkpt>
      <trkpt lat="45.64684" lon="4.64609">
        <ele>508.645</ele>
        <time>2010-04-14T16:30:21Z</time>
      </trkpt>
      <trkpt lat="45.64716" lon="4.64606">
        <ele>510.089</ele>
        <time>2010-04-14T16:30:30Z</time>
      </trkpt>
      <trkpt lat="45.64733" lon="4.64614">
        <ele>510.502</ele>
        <time>2010-04-14T16:30:35Z</time>
      </trkpt>
      <trkpt lat="45.64742" lon="4.64633">
        <ele>511.654</ele>
        <time>2010-04-14T16:30:40Z</time>
      </trkpt>
      <trkpt lat="45.64742" lon="4.64656">
        <ele>512.831</ele>
        <time>2010-04-14T16:30:45Z</time>
      </trkpt>
      <trkpt lat="45.64735" lon="4.64682">
        <ele>514.093</ele>
        <time>2010-04-14T16:30:51Z</time>
      </trkpt>
      <trkpt lat="45.64711" lon="4.64706">
        <ele>515.958</ele>
        <time>2010-04-14T16:31:00Z</time>
      </trkpt>
      <trkpt lat="45.64686" lon="4.64727">
        <ele>518.186</ele>
        <time>2010-04-14T16:31:10Z</time>
      </trkpt>
      <trkpt lat="45.64686" lon="4.64728">
        <ele>518.292</ele>
        <time>2010-04-14T16:31:11Z</time>
      </trkpt>
      <trkpt lat="45.64686" lon="4.64739">
        <ele>517.876</ele>
        <time>2010-04-14T16:31:15Z</time>
      </trkpt>
      <trkpt lat="45.64685" lon="4.64742">
        <ele>518.259</ele>
        <time>2010-04-14T16:31:18Z</time>
      </trkpt>
      <trkpt lat="45.64714" lon="4.64722">
        <ele>519.697</ele>
        <time>2010-04-14T16:31:28Z</time>
      </trkpt>
      <trkpt lat="45.64736" lon="4.64724">
        <ele>520.799</ele>
        <time>2010-04-14T16:31:35Z</time>
      </trkpt>
      <trkpt lat="45.64766" lon="4.64727">
        <ele>522</ele>
        <time>2010-04-14T16:31:45Z</time>
      </trkpt>
      <trkpt lat="45.64792" lon="4.64733">
        <ele>523.763</ele>
        <time>2010-04-14T16:31:54Z</time>
      </trkpt>
      <trkpt lat="45.6482" lon="4.64741">
        <ele>525.282</ele>
        <time>2010-04-14T16:32:04Z</time>
      </trkpt>
      <trkpt lat="45.64849" lon="4.64748">
        <ele>527.476</ele>
        <time>2010-04-14T16:32:15Z</time>
      </trkpt>
      <trkpt lat="45.64879" lon="4.64748">
        <ele>529.148</ele>
        <time>2010-04-14T16:32:26Z</time>
      </trkpt>
      <trkpt lat="45.64896" lon="4.64744">
        <ele>530.167</ele>
        <time>2010-04-14T16:32:32Z</time>
      </trkpt>
      <trkpt lat="45.64903" lon="4.64736">
        <ele>530.974</ele>
        <time>2010-04-14T16:32:37Z</time>
      </trkpt>
      <trkpt lat="45.64905" lon="4.64713">
        <ele>531.69</ele>
        <time>2010-04-14T16:32:43Z</time>
      </trkpt>
      <trkpt lat="45.64896" lon="4.64686">
        <ele>532.548</ele>
        <time>2010-04-14T16:32:50Z</time>
      </trkpt>
      <trkpt lat="45.64882" lon="4.64662">
        <ele>533.471</ele>
        <time>2010-04-14T16:32:57Z</time>
      </trkpt>
      <trkpt lat="45.64862" lon="4.64632">
        <ele>534.85</ele>
        <time>2010-04-14T16:33:06Z</time>
      </trkpt>
      <trkpt lat="45.64859" lon="4.64609">
        <ele>535.972</ele>
        <time>2010-04-14T16:33:11Z</time>
      </trkpt>
      <trkpt lat="45.64869" lon="4.64581">
        <ele>537.445</ele>
        <time>2010-04-14T16:33:18Z</time>
      </trkpt>
      <trkpt lat="45.64881" lon="4.64558">
        <ele>538.597</ele>
        <time>2010-04-14T16:33:24Z</time>
      </trkpt>
      <trkpt lat="45.64907" lon="4.64542">
        <ele>539.907</ele>
        <time>2010-04-14T16:33:33Z</time>
      </trkpt>
      <trkpt lat="45.6493" lon="4.64528">
        <ele>541.604</ele>
        <time>2010-04-14T16:33:41Z</time>
      </trkpt>
      <trkpt lat="45.64958" lon="4.64511">
        <ele>542.932</ele>
        <time>2010-04-14T16:33:51Z</time>
      </trkpt>
      <trkpt lat="45.64988" lon="4.64494">
        <ele>544.383</ele>
        <time>2010-04-14T16:34:01Z</time>
      </trkpt>
      <trkpt lat="45.65006" lon="4.64486">
        <ele>545.215</ele>
        <time>2010-04-14T16:34:07Z</time>
      </trkpt>
      <trkpt lat="45.6503" lon="4.64474">
        <ele>546.664</ele>
        <time>2010-04-14T16:34:15Z</time>
      </trkpt>
      <trkpt lat="45.6505" lon="4.64465">
        <ele>547.927</ele>
        <time>2010-04-14T16:34:22Z</time>
      </trkpt>
      <trkpt lat="45.65062" lon="4.64468">
        <ele>548.43</ele>
        <time>2010-04-14T16:34:26Z</time>
      </trkpt>
      <trkpt lat="45.65076" lon="4.64505">
        <ele>549.161</ele>
        <time>2010-04-14T16:34:35Z</time>
      </trkpt>
      <trkpt lat="45.65099" lon="4.64547">
        <ele>550.31</ele>
        <time>2010-04-14T16:34:45Z</time>
      </trkpt>
      <trkpt lat="45.65125" lon="4.64595">
        <ele>549.264</ele>
        <time>2010-04-14T16:34:55Z</time>
      </trkpt>
      <trkpt lat="45.65152" lon="4.64658">
        <ele>549.723</ele>
        <time>2010-04-14T16:35:07Z</time>
      </trkpt>
      <trkpt lat="45.65171" lon="4.64714">
        <ele>550.649</ele>
        <time>2010-04-14T16:35:17Z</time>
      </trkpt>
      <trkpt lat="45.65178" lon="4.64754">
        <ele>551.394</ele>
        <time>2010-04-14T16:35:24Z</time>
      </trkpt>
      <trkpt lat="45.6518" lon="4.64765">
        <ele>551.798</ele>
        <time>2010-04-14T16:35:29Z</time>
      </trkpt>
      <trkpt lat="45.65229" lon="4.6482">
        <ele>551.94</ele>
        <time>2010-04-14T16:35:39Z</time>
      </trkpt>
      <trkpt lat="45.65261" lon="4.64856">
        <ele>553.07</ele>
        <time>2010-04-14T16:35:48Z</time>
      </trkpt>
      <trkpt lat="45.65295" lon="4.64895">
        <ele>554.159</ele>
        <time>2010-04-14T16:35:57Z</time>
      </trkpt>
      <trkpt lat="45.6532" lon="4.64924">
        <ele>556.399</ele>
        <time>2010-04-14T16:36:04Z</time>
      </trkpt>
      <trkpt lat="45.65351" lon="4.64959">
        <ele>557.328</ele>
        <time>2010-04-14T16:36:13Z</time>
      </trkpt>
      <trkpt lat="45.65373" lon="4.64984">
        <ele>557.29</ele>
        <time>2010-04-14T16:36:21Z</time>
      </trkpt>
      <trkpt lat="45.65377" lon="4.64989">
        <ele>558.097</ele>
        <time>2010-04-14T16:36:24Z</time>
      </trkpt>
      <trkpt lat="45.65379" lon="4.64991">
        <ele>557.053</ele>
        <time>2010-04-14T16:37:47Z</time>
      </trkpt>
      <trkpt lat="45.65391" lon="4.65007">
        <ele>555.296</ele>
        <time>2010-04-14T16:37:52Z</time>
      </trkpt>
      <trkpt lat="45.65412" lon="4.65036">
        <ele>553.276</ele>
        <time>2010-04-14T16:37:58Z</time>
      </trkpt>
      <trkpt lat="45.65421" lon="4.65048">
        <ele>552.403</ele>
        <time>2010-04-14T16:38:00Z</time>
      </trkpt>
      <trkpt lat="45.65453" lon="4.6509">
        <ele>548.655</ele>
        <time>2010-04-14T16:38:06Z</time>
      </trkpt>
      <trkpt lat="45.65491" lon="4.65138">
        <ele>544.873</ele>
        <time>2010-04-14T16:38:12Z</time>
      </trkpt>
      <trkpt lat="45.65543" lon="4.65202">
        <ele>538.602</ele>
        <time>2010-04-14T16:38:19Z</time>
      </trkpt>
      <trkpt lat="45.65586" lon="4.65243">
        <ele>533.733</ele>
        <time>2010-04-14T16:38:24Z</time>
      </trkpt>
      <trkpt lat="45.65604" lon="4.65259">
        <ele>532.444</ele>
        <time>2010-04-14T16:38:26Z</time>
      </trkpt>
      <trkpt lat="45.65622" lon="4.65274">
        <ele>531.623</ele>
        <time>2010-04-14T16:38:28Z</time>
      </trkpt>
      <trkpt lat="45.6565" lon="4.65311">
        <ele>528.484</ele>
        <time>2010-04-14T16:38:32Z</time>
      </trkpt>
      <trkpt lat="45.65652" lon="4.65323">
        <ele>528.494</ele>
        <time>2010-04-14T16:38:33Z</time>
      </trkpt>
      <trkpt lat="45.65654" lon="4.65337">
        <ele>528.024</ele>
        <time>2010-04-14T16:38:34Z</time>
      </trkpt>
      <trkpt lat="45.65656" lon="4.65365">
        <ele>527.163</ele>
        <time>2010-04-14T16:38:36Z</time>
      </trkpt>
      <trkpt lat="45.65662" lon="4.65441">
        <ele>526.987</ele>
        <time>2010-04-14T16:38:42Z</time>
      </trkpt>
      <trkpt lat="45.65669" lon="4.65509">
        <ele>526.193</ele>
        <time>2010-04-14T16:38:48Z</time>
      </trkpt>
      <trkpt lat="45.65693" lon="4.65584">
        <ele>523.412</ele>
        <time>2010-04-14T16:38:55Z</time>
      </trkpt>
      <trkpt lat="45.65698" lon="4.65594">
        <ele>522.706</ele>
        <time>2010-04-14T16:38:56Z</time>
      </trkpt>
      <trkpt lat="45.65712" lon="4.65619">
        <ele>521.085</ele>
        <time>2010-04-14T16:39:00Z</time>
      </trkpt>
      <trkpt lat="45.65742" lon="4.65649">
        <ele>519.298</ele>
        <time>2010-04-14T16:39:03Z</time>
      </trkpt>
      <trkpt lat="45.65758" lon="4.65659">
        <ele>518.446</ele>
        <time>2010-04-14T16:39:05Z</time>
      </trkpt>
      <trkpt lat="45.65819" lon="4.65694">
        <ele>512.892</ele>
        <time>2010-04-14T16:39:12Z</time>
      </trkpt>
      <trkpt lat="45.6588" lon="4.65741">
        <ele>508.043</ele>
        <time>2010-04-14T16:39:19Z</time>
      </trkpt>
      <trkpt lat="45.65926" lon="4.65793">
        <ele>505.949</ele>
        <time>2010-04-14T16:39:25Z</time>
      </trkpt>
      <trkpt lat="45.65932" lon="4.65803">
        <ele>505.618</ele>
        <time>2010-04-14T16:39:26Z</time>
      </trkpt>
      <trkpt lat="45.65959" lon="4.65856">
        <ele>504.578</ele>
        <time>2010-04-14T16:39:31Z</time>
      </trkpt>
      <trkpt lat="45.65985" lon="4.65924">
        <ele>502.261</ele>
        <time>2010-04-14T16:39:37Z</time>
      </trkpt>
      <trkpt lat="45.66015" lon="4.66006">
        <ele>500.158</ele>
        <time>2010-04-14T16:39:44Z</time>
      </trkpt>
      <trkpt lat="45.66035" lon="4.66075">
        <ele>499.463</ele>
        <time>2010-04-14T16:39:50Z</time>
      </trkpt>
      <trkpt lat="45.66039" lon="4.66097">
        <ele>498.764</ele>
        <time>2010-04-14T16:39:52Z</time>
      </trkpt>
      <trkpt lat="45.66058" lon="4.66191">
        <ele>496.842</ele>
        <time>2010-04-14T16:40:00Z</time>
      </trkpt>
      <trkpt lat="45.66062" lon="4.66215">
        <ele>495.692</ele>
        <time>2010-04-14T16:40:02Z</time>
      </trkpt>
      <trkpt lat="45.66069" lon="4.66307">
        <ele>488.81</ele>
        <time>2010-04-14T16:40:09Z</time>
      </trkpt>
      <trkpt lat="45.6607" lon="4.66352">
        <ele>487.137</ele>
        <time>2010-04-14T16:40:12Z</time>
      </trkpt>
      <trkpt lat="45.66071" lon="4.66392">
        <ele>486.256</ele>
        <time>2010-04-14T16:40:15Z</time>
      </trkpt>
      <trkpt lat="45.66072" lon="4.66476">
        <ele>482.979</ele>
        <time>2010-04-14T16:40:22Z</time>
      </trkpt>
      <trkpt lat="45.66071" lon="4.66501">
        <ele>482.298</ele>
        <time>2010-04-14T16:40:24Z</time>
      </trkpt>
      <trkpt lat="45.66055" lon="4.66556">
        <ele>478.715</ele>
        <time>2010-04-14T16:40:29Z</time>
      </trkpt>
      <trkpt lat="45.66011" lon="4.66604">
        <ele>475.459</ele>
        <time>2010-04-14T16:40:35Z</time>
      </trkpt>
      <trkpt lat="45.65994" lon="4.66618">
        <ele>475.188</ele>
        <time>2010-04-14T16:40:37Z</time>
      </trkpt>
      <trkpt lat="45.65978" lon="4.66637">
        <ele>473.574</ele>
        <time>2010-04-14T16:40:40Z</time>
      </trkpt>
      <trkpt lat="45.65978" lon="4.66654">
        <ele>472.348</ele>
        <time>2010-04-14T16:40:42Z</time>
      </trkpt>
      <trkpt lat="45.65992" lon="4.66663">
        <ele>471.226</ele>
        <time>2010-04-14T16:40:45Z</time>
      </trkpt>
      <trkpt lat="45.66005" lon="4.66664">
        <ele>471.102</ele>
        <time>2010-04-14T16:40:47Z</time>
      </trkpt>
      <trkpt lat="45.66061" lon="4.66648">
        <ele>467.264</ele>
        <time>2010-04-14T16:40:54Z</time>
      </trkpt>
      <trkpt lat="45.66087" lon="4.66646">
        <ele>466.041</ele>
        <time>2010-04-14T16:40:57Z</time>
      </trkpt>
      <trkpt lat="45.66105" lon="4.66644">
        <ele>464.73</ele>
        <time>2010-04-14T16:40:59Z</time>
      </trkpt>
      <trkpt lat="45.66132" lon="4.66642">
        <ele>463.008</ele>
        <time>2010-04-14T16:41:02Z</time>
      </trkpt>
      <trkpt lat="45.66159" lon="4.66647">
        <ele>461.207</ele>
        <time>2010-04-14T16:41:05Z</time>
      </trkpt>
      <trkpt lat="45.66188" lon="4.6667">
        <ele>458.215</ele>
        <time>2010-04-14T16:41:09Z</time>
      </trkpt>
      <trkpt lat="45.66222" lon="4.66709">
        <ele>454.261</ele>
        <time>2010-04-14T16:41:13Z</time>
      </trkpt>
      <trkpt lat="45.6625" lon="4.66746">
        <ele>451.138</ele>
        <time>2010-04-14T16:41:17Z</time>
      </trkpt>
      <trkpt lat="45.66261" lon="4.66756">
        <ele>448.075</ele>
        <time>2010-04-14T16:41:21Z</time>
      </trkpt>
      <trkpt lat="45.66298" lon="4.66774">
        <ele>447.136</ele>
        <time>2010-04-14T16:41:22Z</time>
      </trkpt>
      <trkpt lat="45.66362" lon="4.66789">
        <ele>443.085</ele>
        <time>2010-04-14T16:41:28Z</time>
      </trkpt>
      <trkpt lat="45.66438" lon="4.66801">
        <ele>438.143</ele>
        <time>2010-04-14T16:41:35Z</time>
      </trkpt>
      <trkpt lat="45.66489" lon="4.66816">
        <ele>435.585</ele>
        <time>2010-04-14T16:41:42Z</time>
      </trkpt>
      <trkpt lat="45.66548" lon="4.66836">
        <ele>435.717</ele>
        <time>2010-04-14T16:41:46Z</time>
      </trkpt>
      <trkpt lat="45.66592" lon="4.66868">
        <ele>436.023</ele>
        <time>2010-04-14T16:41:52Z</time>
      </trkpt>
      <trkpt lat="45.66643" lon="4.66919">
        <ele>436.479</ele>
        <time>2010-04-14T16:42:02Z</time>
      </trkpt>
      <trkpt lat="45.66673" lon="4.66959">
        <ele>433.532</ele>
        <time>2010-04-14T16:42:07Z</time>
      </trkpt>
      <trkpt lat="45.66688" lon="4.66988">
        <ele>431.755</ele>
        <time>2010-04-14T16:42:10Z</time>
      </trkpt>
      <trkpt lat="45.66703" lon="4.67033">
        <ele>429.036</ele>
        <time>2010-04-14T16:42:14Z</time>
      </trkpt>
      <trkpt lat="45.66703" lon="4.67046">
        <ele>428.454</ele>
        <time>2010-04-14T16:42:15Z</time>
      </trkpt>
      <trkpt lat="45.66691" lon="4.67162">
        <ele>427.042</ele>
        <time>2010-04-14T16:42:24Z</time>
      </trkpt>
      <trkpt lat="45.66688" lon="4.67186">
        <ele>426.975</ele>
        <time>2010-04-14T16:42:26Z</time>
      </trkpt>
      <trkpt lat="45.66687" lon="4.67234">
        <ele>425.315</ele>
        <time>2010-04-14T16:42:30Z</time>
      </trkpt>
      <trkpt lat="45.66697" lon="4.67268">
        <ele>423.158</ele>
        <time>2010-04-14T16:42:33Z</time>
      </trkpt>
      <trkpt lat="45.66708" lon="4.67304">
        <ele>422.327</ele>
        <time>2010-04-14T16:42:36Z</time>
      </trkpt>
      <trkpt lat="45.6672" lon="4.67338">
        <ele>420.788</ele>
        <time>2010-04-14T16:42:39Z</time>
      </trkpt>
      <trkpt lat="45.66733" lon="4.6737">
        <ele>417.887</ele>
        <time>2010-04-14T16:42:44Z</time>
      </trkpt>
      <trkpt lat="45.6679" lon="4.6749">
        <ele>414.368</ele>
        <time>2010-04-14T16:42:52Z</time>
      </trkpt>
      <trkpt lat="45.66834" lon="4.67582">
        <ele>411.658</ele>
        <time>2010-04-14T16:43:00Z</time>
      </trkpt>
      <trkpt lat="45.66881" lon="4.6767">
        <ele>407.344</ele>
        <time>2010-04-14T16:43:08Z</time>
      </trkpt>
      <trkpt lat="45.66892" lon="4.67692">
        <ele>406.539</ele>
        <time>2010-04-14T16:43:10Z</time>
      </trkpt>
      <trkpt lat="45.66921" lon="4.67747">
        <ele>404.883</ele>
        <time>2010-04-14T16:43:15Z</time>
      </trkpt>
      <trkpt lat="45.6694" lon="4.67807">
        <ele>403.393</ele>
        <time>2010-04-14T16:43:20Z</time>
      </trkpt>
      <trkpt lat="45.66953" lon="4.67902">
        <ele>399.355</ele>
        <time>2010-04-14T16:43:27Z</time>
      </trkpt>
      <trkpt lat="45.66963" lon="4.67944">
        <ele>397.616</ele>
        <time>2010-04-14T16:43:30Z</time>
      </trkpt>
      <trkpt lat="45.66974" lon="4.67988">
        <ele>394.426</ele>
        <time>2010-04-14T16:43:37Z</time>
      </trkpt>
      <trkpt lat="45.67001" lon="4.68103">
        <ele>390.319</ele>
        <time>2010-04-14T16:43:42Z</time>
      </trkpt>
      <trkpt lat="45.67002" lon="4.68118">
        <ele>390.08</ele>
        <time>2010-04-14T16:43:43Z</time>
      </trkpt>
      <trkpt lat="45.67005" lon="4.68147">
        <ele>388.842</ele>
        <time>2010-04-14T16:43:45Z</time>
      </trkpt>
      <trkpt lat="45.67016" lon="4.68217">
        <ele>386.723</ele>
        <time>2010-04-14T16:43:50Z</time>
      </trkpt>
      <trkpt lat="45.6704" lon="4.68278">
        <ele>385.49</ele>
        <time>2010-04-14T16:43:55Z</time>
      </trkpt>
      <trkpt lat="45.67075" lon="4.68341">
        <ele>383.56</ele>
        <time>2010-04-14T16:44:01Z</time>
      </trkpt>
      <trkpt lat="45.67095" lon="4.6837">
        <ele>383.124</ele>
        <time>2010-04-14T16:44:04Z</time>
      </trkpt>
      <trkpt lat="45.67128" lon="4.68404">
        <ele>384.559</ele>
        <time>2010-04-14T16:44:09Z</time>
      </trkpt>
      <trkpt lat="45.67176" lon="4.68441">
        <ele>384.311</ele>
        <time>2010-04-14T16:44:16Z</time>
      </trkpt>
      <trkpt lat="45.67194" lon="4.68455">
        <ele>383.821</ele>
        <time>2010-04-14T16:44:19Z</time>
      </trkpt>
      <trkpt lat="45.67226" lon="4.68478">
        <ele>383.55</ele>
        <time>2010-04-14T16:44:24Z</time>
      </trkpt>
      <trkpt lat="45.67243" lon="4.68498">
        <ele>382.492</ele>
        <time>2010-04-14T16:44:27Z</time>
      </trkpt>
      <trkpt lat="45.67267" lon="4.68517">
        <ele>381.569</ele>
        <time>2010-04-14T16:44:31Z</time>
      </trkpt>
      <trkpt lat="45.67296" lon="4.68532">
        <ele>380.016</ele>
        <time>2010-04-14T16:44:35Z</time>
      </trkpt>
      <trkpt lat="45.67319" lon="4.68559">
        <ele>379.058</ele>
        <time>2010-04-14T16:44:39Z</time>
      </trkpt>
      <trkpt lat="45.67323" lon="4.68569">
        <ele>379.366</ele>
        <time>2010-04-14T16:44:40Z</time>
      </trkpt>
      <trkpt lat="45.67355" lon="4.68649">
        <ele>378.084</ele>
        <time>2010-04-14T16:44:48Z</time>
      </trkpt>
      <trkpt lat="45.67388" lon="4.68732">
        <ele>378.027</ele>
        <time>2010-04-14T16:44:57Z</time>
      </trkpt>
      <trkpt lat="45.67415" lon="4.68802">
        <ele>378.793</ele>
        <time>2010-04-14T16:45:05Z</time>
      </trkpt>
      <trkpt lat="45.6742" lon="4.68819">
        <ele>379.237</ele>
        <time>2010-04-14T16:45:07Z</time>
      </trkpt>
      <trkpt lat="45.6743" lon="4.68874">
        <ele>380.577</ele>
        <time>2010-04-14T16:45:13Z</time>
      </trkpt>
      <trkpt lat="45.67436" lon="4.68921">
        <ele>380.98</ele>
        <time>2010-04-14T16:45:18Z</time>
      </trkpt>
      <trkpt lat="45.67454" lon="4.68986">
        <ele>381.338</ele>
        <time>2010-04-14T16:45:26Z</time>
      </trkpt>
      <trkpt lat="45.67469" lon="4.69017">
        <ele>380.755</ele>
        <time>2010-04-14T16:45:31Z</time>
      </trkpt>
      <trkpt lat="45.675" lon="4.69062">
        <ele>380.675</ele>
        <time>2010-04-14T16:45:40Z</time>
      </trkpt>
      <trkpt lat="45.67534" lon="4.69094">
        <ele>380.162</ele>
        <time>2010-04-14T16:45:48Z</time>
      </trkpt>
      <trkpt lat="45.67566" lon="4.69123">
        <ele>379.023</ele>
        <time>2010-04-14T16:45:55Z</time>
      </trkpt>
      <trkpt lat="45.67598" lon="4.6915">
        <ele>377.121</ele>
        <time>2010-04-14T16:46:01Z</time>
      </trkpt>
      <trkpt lat="45.67649" lon="4.69179">
        <ele>375.422</ele>
        <time>2010-04-14T16:46:09Z</time>
      </trkpt>
      <trkpt lat="45.67679" lon="4.69201">
        <ele>374.269</ele>
        <time>2010-04-14T16:46:14Z</time>
      </trkpt>
      <trkpt lat="45.6771" lon="4.69243">
        <ele>371.979</ele>
        <time>2010-04-14T16:46:20Z</time>
      </trkpt>
      <trkpt lat="45.67712" lon="4.69245">
        <ele>370.872</ele>
        <time>2010-04-14T16:46:24Z</time>
      </trkpt>
      <trkpt lat="45.67742" lon="4.69292">
        <ele>370.658</ele>
        <time>2010-04-14T16:46:28Z</time>
      </trkpt>
      <trkpt lat="45.67735" lon="4.69332">
        <ele>370.181</ele>
        <time>2010-04-14T16:46:31Z</time>
      </trkpt>
      <trkpt lat="45.6773" lon="4.69339">
        <ele>369.921</ele>
        <time>2010-04-14T16:46:32Z</time>
      </trkpt>
      <trkpt lat="45.67698" lon="4.69379">
        <ele>369.437</ele>
        <time>2010-04-14T16:46:38Z</time>
      </trkpt>
      <trkpt lat="45.67634" lon="4.6944">
        <ele>367.775</ele>
        <time>2010-04-14T16:46:49Z</time>
      </trkpt>
      <trkpt lat="45.67619" lon="4.6946">
        <ele>367.79</ele>
        <time>2010-04-14T16:46:52Z</time>
      </trkpt>
      <trkpt lat="45.67605" lon="4.69479">
        <ele>367.053</ele>
        <time>2010-04-14T16:46:56Z</time>
      </trkpt>
      <trkpt lat="45.67589" lon="4.69507">
        <ele>366.575</ele>
        <time>2010-04-14T16:47:02Z</time>
      </trkpt>
      <trkpt lat="45.67582" lon="4.6952">
        <ele>366.246</ele>
        <time>2010-04-14T16:47:05Z</time>
      </trkpt>
      <trkpt lat="45.67575" lon="4.69533">
        <ele>365.724</ele>
        <time>2010-04-14T16:47:10Z</time>
      </trkpt>
      <trkpt lat="45.67575" lon="4.69533">
        <ele>365.848</ele>
        <time>2010-04-14T16:47:13Z</time>
      </trkpt>
    </trkseg>
  </trk>
</gpx>